GFSWCAN_con_lsi_000.txt.gz
Lid_Strength_Index
4 4 3 3 3 3 2 2 2 2 2 1 2 3 3 3 4 3 1 -1 2 5 4 3 3 5 4 5 9 6 7 7 9 12 13 12 14 11 11 9 12 13 14 15 14 15 17 6 6 11 8 6 6 6
4 4 4 4 3 3 3 3 3 2 2 2 2 2 2 3 3 4 2 -1 -0 3 4 1 2 1 2 3 4 5 6 7 7 10 11 11 13 12 13 14 7 12 11 12 12 12 6 5 6 5 5 6 6 6
5 5 5 4 3 3 3 3 3 3 3 2 2 2 2 2 2 3 1 0 1 4 4 4 4 1 0 1 0 6 5 3 5 4 8 10 13 10 14 12 10 7 5 10 10 7 6 5 5 5 4 5 5 5
5 5 6 5 4 4 3 3 3 3 3 3 2 3 2 2 3 3 1 -0 1 4 11 6 1 2 0 0 1 1 3 3 3 4 8 11 12 7 11 10 11 8 6 8 9 7 6 6 5 5 5 5 5 5
5 5 6 5 5 5 4 3 3 3 3 3 3 3 3 2 2 1 -1 -0 -0 4 9 7 3 2 1 1 2 2 3 4 5 8 11 10 7 8 8 8 10 6 8 10 11 7 7 7 5 5 5 6 5 5
5 5 5 6 5 5 5 4 4 4 3 3 3 3 3 3 3 1 4 0 -1 0 6 10 3 3 2 2 2 3 3 4 5 7 9 7 5 7 12 12 7 5 4 4 6 5 5 5 4 5 5 6 6 7
5 5 5 5 5 5 5 5 5 5 5 4 3 3 3 3 -0 3 4 3 3 -0 6 10 8 4 3 3 3 4 3 4 5 6 8 7 7 6 10 12 7 5 4 4 4 4 6 5 6 5 6 6 7 7
5 5 5 6 6 6 5 5 5 5 5 4 4 3 3 3 3 2 0 1 2 2 4 9 10 8 3 7 8 4 6 5 6 6 7 8 6 7 11 7 6 5 4 5 5 5 5 5 5 6 6 7 8 9
5 5 5 6 6 5 5 5 5 5 4 4 4 4 1 1 3 2 4 3 -1 3 7 9 11 12 4 7 6 6 5 10 5 10 9 8 10 12 8 7 6 5 5 5 5 5 6 7 7 8 8 9 9 9
3 3 4 5 5 5 5 5 5 5 4 4 4 5 9 6 3 3 2 4 5 4 5 10 6 11 6 9 10 9 8 10 12 10 8 11 10 6 5 5 4 5 5 5 7 8 8 8 9 9 9 9 9 9
2 2 3 4 4 4 4 4 4 4 4 6 8 10 7 5 3 4 8 9 8 10 7 7 8 9 5 9 10 8 10 10 13 10 11 12 12 8 6 5 5 5 5 5 5 6 7 9 9 9 9 8 9 9
2 1 2 2 3 3 4 3 4 3 5 6 6 6 6 8 11 10 11 11 11 11 10 12 9 6 7 5 8 11 12 12 14 10 13 13 9 6 6 6 6 5 6 7 8 9 9 9 9 9 9 9 10 10
2 2 1 2 2 3 3 3 3 4 4 6 9 11 11 13 14 13 14 13 13 12 12 12 12 11 10 9 12 13 13 13 11 13 13 10 8 7 7 6 7 7 9 9 9 9 9 9 9 11 10 10 11 10
2 1 1 2 2 2 3 4 4 3 6 10 13 13 13 13 13 13 13 13 12 13 12 12 13 12 13 13 13 13 13 12 14 15 14 10 8 7 7 6 8 9 12 10 10 9 10 10 11 11 11 10 10 10
1 1 0 1 2 2 2 3 3 2 5 9 10 13 13 13 12 13 13 12 12 10 11 12 12 11 13 13 13 13 15 15 14 13 11 9 9 9 9 8 10 11 12 11 9 10 11 11 11 10 9 8 8 8
1 1 0 1 1 1 2 2 2 3 5 7 9 11 12 12 13 13 13 12 10 11 10 10 13 13 13 13 14 14 14 15 12 10 8 10 10 10 9 9 9 9 9 9 9 9 9 10 10 9 8 8 7 7
2 1 1 2 2 2 2 2 3 7 8 9 10 9 10 11 12 12 11 10 8 10 12 11 13 14 12 14 14 12 13 11 11 8 9 9 9 9 9 9 10 9 8 8 8 7 7 7 7 7 8 6 6 5
1 1 1 1 1 2 3 3 4 6 8 7 8 9 8 9 10 9 8 7 8 9 9 11 10 13 13 14 13 10 9 9 8 8 9 8 8 8 7 7 7 7 7 7 7 7 7 7 7 5 4 4 4 4
1 0 1 1 1 3 5 5 5 7 8 7 7 7 7 8 8 8 8 8 7 8 8 9 11 12 11 10 10 11 9 8 8 8 7 7 7 7 7 7 7 6 6 6 6 5 5 4 4 3 3 3 3 3
1 1 1 2 2 4 7 6 4 6 7 7 6 7 8 8 8 8 8 8 8 8 10 10 9 8 7 7 6 6 6 6 6 7 7 6 5 6 6 5 5 5 5 5 4 5 3 3 3 2 3 3 3 4
1 2 2 2 3 2 4 5 5 5 6 7 7 6 9 8 8 7 8 6 8 8 9 6 6 7 4 4 4 4 4 5 5 5 6 6 4 4 5 4 4 4 4 3 3 3 3 3 3 2 4 4 4 4
3 2 4 4 5 5 5 4 5 4 6 7 8 6 9 9 9 8 7 8 8 6 5 4 4 4 4 5 4 4 4 4 4 4 6 5 5 5 4 3 3 4 3 3 3 4 3 2 2 2 4 4 4 4
2 3 5 6 7 7 8 5 7 7 9 9 7 9 9 9 9 8 9 7 6 4 3 3 3 3 3 3 4 4 4 4 5 4 3 3 3 4 3 3 3 4 4 3 2 3 3 4 3 4 4 5 4 4
2 6 6 7 6 9 7 8 6 7 7 8 9 10 10 9 8 9 9 7 5 3 4 4 4 4 4 4 5 4 3 3 3 2 3 3 4 4 3 3 3 3 3 3 3 4 4 5 4 4 4 5 4 4
6 8 7 9 7 9 10 10 9 9 10 9 10 10 10 9 10 10 10 7 7 8 7 5 4 4 4 4 3 3 4 4 4 5 4 3 4 4 4 3 3 3 3 4 5 5 5 4 4 4 4 4 5 5
9 8 9 8 9 9 9 11 10 10 9 10 10 9 9 9 11 11 9 7 8 8 7 7 6 5 5 5 6 6 7 6 6 7 5 6 6 7 8 8 7 6 7 7 7 7 7 5 4 4 5 5 5 5
10 10 8 7 7 8 9 8 8 9 11 11 10 11 11 13 12 9 8 9 8 8 7 7 7 8 8 8 7 7 7 7 8 8 7 6 6 8 9 10 11 10 8 8 8 8 8 7 6 5 6 5 5 5
8 8 11 9 8 7 10 10 10 10 9 7 8 11 11 11 10 9 10 8 8 7 7 6 7 8 8 8 8 8 9 9 8 8 7 7 7 9 10 10 9 10 10 9 9 9 8 8 7 7 7 7 7 6
9 7 8 11 9 8 8 9 8 7 6 6 8 8 8 10 10 10 10 9 8 8 9 10 10 8 8 8 8 9 10 11 13 15 15 13 13 12 11 11 11 12 11 11 10 10 9 9 8 8 8 8 8 8
9 7 8 9 10 9 7 6 6 6 4 5 4 7 9 12 11 10 10 10 11 11 10 10 10 11 11 12 12 11 10 12 13 15 16 16 15 13 13 13 14 13 12 12 12 11 10 10 9 8 10 11 11 11
7 7 8 8 8 7 7 7 7 7 6 6 6 7 11 12 12 12 11 10 10 11 11 12 12 11 13 13 14 14 14 12 13 14 14 14 15 15 15 15 15 14 13 13 13 12 12 12 11 11 12 13 14 14
7 8 8 9 8 7 7 7 7 8 6 7 7 9 9 10 13 13 13 12 12 13 14 13 14 14 13 13 12 12 13 13 13 14 14 15 15 15 15 15 15 15 16 15 14 12 13 13 13 14 14 16 16 17
8 8 8 9 9 9 7 8 8 8 8 8 9 10 12 12 15 14 12 12 13 14 14 14 14 13 13 13 14 12 13 13 14 13 14 15 16 16 16 15 15 16 17 17 14 13 14 15 16 16 17 18 18 19

GFSWCAN_con_lsi_003.txt.gz
Lid_Strength_Index
4 3 3 4 3 3 3 3 3 2 2 3 3 3 3 4 5 4 2 2 4 6 6 5 5 7 7 7 11 8 9 9 13 13 13 14 16 14 14 11 13 15 17 15 16 18 19 7 8 12 9 8 7 7
4 4 3 3 3 3 3 3 3 3 2 2 3 3 3 3 4 6 3 2 1 4 5 3 3 3 4 4 6 7 8 8 9 12 12 12 14 13 15 16 9 14 12 14 13 14 9 7 8 6 6 7 7 8
5 5 4 4 4 3 3 3 3 3 2 2 3 3 3 3 3 5 3 2 3 7 5 5 6 3 2 3 2 7 7 5 7 6 10 10 13 11 14 13 13 9 7 13 12 9 8 7 6 5 6 6 6 6
5 5 5 4 3 3 4 4 3 3 3 3 3 3 3 3 3 5 3 2 3 6 12 8 2 4 1 2 2 3 4 4 5 8 11 11 13 8 13 11 13 9 8 10 11 8 8 7 6 6 6 5 5 5
5 5 6 5 4 3 3 3 4 3 4 4 4 4 4 4 3 4 1 2 2 5 11 10 4 3 2 2 3 3 4 5 8 11 13 12 12 10 13 13 13 8 9 12 12 8 8 8 6 5 6 6 5 5
5 5 5 5 5 5 4 4 3 4 4 4 4 4 4 4 4 3 5 2 3 3 7 11 5 5 4 4 4 4 4 5 6 10 12 9 6 9 13 14 8 6 5 6 8 6 6 6 5 4 6 7 8 8
5 5 5 6 6 5 4 4 4 4 5 4 4 4 3 3 3 5 5 4 5 4 9 11 11 7 5 4 6 5 5 6 7 10 12 12 10 7 13 13 8 6 6 6 5 5 7 5 7 5 6 8 8 9
5 5 6 5 6 6 5 5 4 4 4 4 3 3 3 3 4 4 3 4 5 4 7 11 11 10 5 11 11 7 10 8 7 8 9 11 10 12 14 8 7 6 5 6 6 5 6 5 5 7 8 9 11 11
6 6 6 6 6 6 6 5 5 4 4 4 4 4 2 3 6 4 4 4 1 5 11 11 11 12 6 9 10 10 8 12 8 11 10 9 12 12 9 8 7 6 6 7 6 5 6 7 8 9 10 11 11 12
6 6 5 5 5 5 5 5 5 4 4 4 4 5 9 7 4 4 3 7 8 9 8 12 8 11 7 11 12 11 12 12 12 11 9 12 11 8 6 6 6 6 6 6 8 9 9 9 11 11 11 11 11 11
4 5 5 5 5 5 5 5 4 4 4 5 8 10 7 5 4 7 10 11 10 11 9 9 10 10 8 11 12 11 12 12 13 13 11 13 13 10 8 7 7 6 6 6 6 8 9 10 11 11 11 12 12 13
2 3 4 5 5 5 4 4 4 5 6 6 6 6 7 8 11 11 12 12 12 12 12 11 10 10 10 8 12 12 12 13 14 11 13 15 13 9 8 8 7 7 8 9 9 10 10 10 10 12 12 13 14 13
3 2 2 3 3 4 5 4 5 5 5 6 8 11 10 13 13 13 14 13 13 13 12 12 13 12 11 10 13 13 13 14 12 13 15 15 9 8 7 10 11 10 11 11 10 10 11 11 12 14 14 15 13 12
2 2 2 2 2 3 4 4 4 4 6 10 11 13 13 13 13 14 13 13 13 13 13 13 13 12 13 13 13 14 14 13 15 17 18 13 9 9 9 10 11 12 13 13 12 12 13 14 15 16 15 14 16 14
2 1 1 2 2 2 2 2 3 3 7 11 10 12 13 13 13 13 13 13 12 11 12 13 13 12 13 14 13 14 16 16 15 15 14 12 11 10 11 11 13 13 14 13 11 13 14 15 15 13 13 12 10 9
1 1 1 1 2 2 2 2 3 4 9 9 11 12 12 11 12 12 12 13 11 12 12 12 13 13 14 14 15 15 15 16 14 13 12 12 12 12 12 12 12 11 11 11 12 12 12 14 14 12 10 8 9 8
1 3 1 2 1 2 2 3 5 9 9 9 11 10 10 11 11 11 11 11 9 12 13 12 14 15 13 14 15 13 14 13 12 12 12 11 11 11 10 10 12 11 11 10 11 10 11 11 12 9 10 8 9 9
3 1 1 1 1 2 4 4 6 8 11 9 9 10 9 10 10 10 9 9 9 11 12 13 12 14 14 15 15 13 13 12 12 11 11 11 10 10 9 10 9 10 10 11 11 10 11 11 10 9 8 7 8 8
2 1 1 2 2 5 7 7 6 9 9 9 9 9 9 9 9 9 9 8 8 8 10 11 13 14 13 13 11 11 11 11 12 11 11 9 9 9 9 9 9 9 9 8 8 9 8 7 7 7 7 8 8 8
2 1 2 2 2 7 8 8 6 9 9 9 8 9 9 9 9 9 8 8 8 8 9 13 13 11 12 11 11 11 10 10 10 11 11 10 9 8 8 8 9 8 8 7 8 9 9 8 7 8 9 9 9 8
2 2 2 3 5 5 7 8 8 8 9 9 9 9 10 9 9 8 8 8 8 8 12 11 9 8 9 9 9 9 9 9 9 10 10 10 9 9 9 8 8 8 9 10 10 8 10 8 6 7 6 6 7 5
3 2 6 5 7 8 8 8 8 9 8 9 9 8 10 10 10 9 8 9 9 10 10 10 9 9 9 8 8 7 7 7 7 9 9 9 10 9 9 9 10 10 10 9 9 8 8 8 9 10 7 6 5 5
3 4 6 7 8 8 9 7 8 8 11 10 9 11 10 11 10 9 10 9 10 9 9 8 7 6 7 6 7 7 7 7 9 9 10 9 9 10 10 9 10 11 8 8 8 7 6 7 10 9 8 6 6 6
3 6 7 8 8 9 7 9 7 8 9 10 10 11 11 11 11 12 13 12 11 9 8 8 9 9 9 9 8 8 7 7 8 8 7 8 9 8 8 8 8 8 8 7 6 6 6 6 10 7 6 7 7 10
6 8 8 8 7 11 13 11 9 11 11 11 11 11 12 12 13 16 15 13 11 9 8 7 8 8 9 9 8 8 9 9 9 10 10 9 10 10 10 10 10 10 9 9 9 9 8 7 7 7 8 10 10 14
9 9 11 9 9 11 12 11 11 11 11 11 11 13 13 12 17 17 12 9 9 9 9 9 9 8 9 9 10 10 9 10 11 14 11 10 10 10 12 12 12 12 11 10 11 11 12 11 10 9 8 8 10 10
10 9 8 7 7 8 9 9 9 12 12 12 12 13 15 20 19 12 10 10 10 9 8 8 9 9 9 9 9 9 10 11 13 11 11 10 10 11 12 14 14 14 12 12 13 13 13 12 12 11 10 11 10 9
8 8 11 9 9 9 10 11 11 12 12 10 11 15 16 17 14 11 10 9 9 8 8 10 9 10 9 9 10 12 15 15 14 14 12 10 12 14 15 15 14 13 15 14 14 13 13 13 12 12 11 11 11 12
9 8 9 12 11 11 12 13 13 11 9 11 14 15 13 12 12 11 10 10 9 10 11 12 14 14 14 14 11 14 17 16 18 21 22 22 19 18 15 15 16 16 15 15 14 13 13 12 12 12 11 13 13 15
10 8 12 14 15 13 10 9 8 8 9 8 9 11 12 13 13 12 12 13 14 13 12 11 15 17 18 19 19 17 14 18 21 21 23 22 18 17 17 17 17 17 16 16 17 16 13 13 12 12 14 14 14 16
8 8 9 10 9 9 8 8 8 7 7 7 8 11 15 16 16 14 14 13 14 16 16 17 16 17 20 19 18 21 22 21 19 18 21 21 19 22 20 18 18 17 17 18 18 17 15 15 14 15 17 17 17 18
8 9 9 11 10 8 8 9 8 9 8 9 10 10 12 14 19 19 18 16 18 20 19 21 21 19 20 18 17 19 14 17 17 21 21 20 22 23 21 19 18 18 19 19 18 18 16 17 17 18 18 19 19 20
10 12 12 14 15 15 10 14 15 15 15 15 14 15 17 19 21 19 16 15 19 21 22 22 22 21 17 20 22 18 19 21 20 16 15 16 18 20 21 21 18 18 22 20 19 17 17 17 19 19 19 20 20 21

GFSWCAN_con_lsi_006.txt.gz
Lid_Strength_Index
4 4 4 4 4 3 3 3 3 3 3 3 4 5 5 5 6 3 4 4 5 8 7 5 5 7 7 8 11 8 9 10 13 16 18 14 16 14 15 12 14 15 17 19 19 21 19 9 8 12 10 9 8 8
4 4 4 3 4 3 3 3 4 3 3 4 4 3 3 4 6 5 4 3 2 5 6 4 4 4 4 5 6 8 9 8 10 13 13 12 14 14 17 16 10 14 13 14 13 13 10 8 8 7 7 8 8 9
4 4 4 3 4 3 3 4 3 3 4 4 4 4 4 4 6 4 3 4 4 8 7 6 6 3 3 3 3 7 8 6 7 9 12 12 16 13 15 14 13 9 8 13 12 9 8 7 7 6 6 8 8 7
4 4 4 3 4 4 4 4 4 4 4 5 5 5 5 4 5 4 3 4 5 8 12 8 3 4 3 3 3 4 4 5 7 9 12 12 15 10 15 13 13 11 9 10 12 9 8 7 7 6 7 7 7 6
5 5 4 4 4 3 3 4 4 5 5 4 4 4 4 4 5 3 3 4 4 5 10 10 5 3 3 3 4 4 5 6 9 12 14 13 15 11 12 14 14 8 10 12 12 8 8 8 7 6 7 6 5 5
5 5 5 5 4 4 3 3 4 5 5 4 4 3 3 3 4 3 5 3 5 4 8 11 7 6 4 4 4 5 5 6 8 10 13 11 7 11 12 12 8 7 6 7 8 6 6 6 6 6 6 6 7 9
6 6 6 5 5 4 4 4 4 5 5 4 4 3 3 4 4 4 5 4 6 5 10 10 12 8 6 6 8 7 6 7 7 11 12 11 12 9 13 14 9 7 6 6 5 6 7 6 7 5 8 9 9 11
6 6 6 5 6 5 5 4 4 4 5 4 3 3 3 4 4 4 3 5 5 6 9 12 12 11 6 12 11 8 11 9 8 9 11 12 11 13 13 9 7 6 6 6 6 6 6 6 7 8 9 10 11 12
6 6 5 5 6 6 5 5 4 4 4 4 3 3 3 5 6 4 5 5 3 6 11 12 12 12 8 10 11 12 9 13 9 12 12 10 12 12 9 8 7 6 7 7 6 7 6 7 10 10 10 11 12 12
6 6 5 6 6 6 6 5 4 4 4 3 4 7 8 6 4 3 5 7 8 8 9 12 10 11 8 12 13 12 12 12 12 11 9 12 11 9 8 7 6 6 6 6 9 10 10 10 11 11 11 11 11 12
5 5 5 5 5 5 5 5 4 4 4 5 8 10 6 4 5 8 11 11 10 11 9 10 11 11 10 11 12 12 13 13 13 14 12 14 14 11 8 8 7 7 6 7 9 9 10 10 11 11 11 12 13 13
5 5 5 5 5 5 5 5 5 5 6 6 6 6 7 9 10 11 12 12 12 12 12 12 11 9 11 9 11 12 13 13 15 12 13 15 13 10 9 10 10 10 10 10 10 10 11 11 11 13 13 13 14 14
5 5 5 5 5 6 5 5 5 5 6 7 9 11 10 13 13 12 13 13 13 13 12 13 12 12 11 10 13 13 13 14 12 13 14 14 10 10 11 11 11 11 11 11 11 11 11 12 13 14 14 15 16 14
4 4 5 5 5 6 6 5 5 6 8 11 12 13 13 14 14 14 14 13 13 13 13 13 13 13 13 13 13 14 13 13 15 16 18 13 10 11 11 11 11 12 12 12 12 13 14 14 14 15 16 16 18 16
4 3 3 4 4 5 5 5 6 7 10 12 12 14 15 14 13 12 12 12 12 11 12 12 12 12 13 14 13 14 16 16 16 16 14 13 11 10 11 12 13 14 14 12 12 13 14 15 16 14 15 15 12 11
2 2 3 3 3 3 4 5 6 8 11 11 12 13 12 12 12 12 12 12 10 11 11 12 13 13 14 14 16 15 16 16 14 13 13 11 11 12 12 12 12 11 11 11 11 12 12 14 15 13 12 12 12 12
1 3 1 2 2 2 3 5 8 9 11 10 11 10 10 10 11 11 11 11 9 11 12 12 16 16 13 15 15 13 14 12 12 11 12 11 11 11 10 10 11 10 10 11 11 10 12 13 14 13 11 8 10 10
3 2 1 2 2 3 5 4 7 9 10 10 10 10 9 9 10 9 9 9 10 11 11 12 12 14 14 15 14 12 12 11 11 11 11 11 10 10 9 10 9 10 10 11 12 11 11 12 10 9 8 8 9 9
3 2 2 2 3 6 7 7 7 12 10 10 9 9 9 9 9 9 9 8 9 9 10 12 14 15 13 12 11 10 10 12 12 11 11 10 10 10 10 9 9 9 9 8 8 9 9 8 8 8 8 9 10 11
2 2 2 2 3 8 9 9 7 10 10 10 9 10 10 10 9 9 9 9 9 9 10 14 14 13 11 11 11 12 12 12 13 13 12 10 10 9 8 8 9 8 9 8 9 11 9 8 8 8 10 8 7 7
3 3 3 5 6 8 8 9 9 8 10 10 9 10 11 10 10 9 9 9 9 10 13 12 9 8 11 11 11 11 10 10 11 12 12 11 10 10 10 9 9 10 10 11 13 9 11 10 8 8 8 6 6 6
4 3 8 6 8 8 9 8 9 9 10 10 10 10 11 11 11 10 10 10 10 12 12 12 9 10 10 9 9 9 8 8 8 10 11 11 10 10 10 10 10 11 11 12 10 9 8 9 8 8 7 8 7 7
4 5 7 8 10 10 12 8 9 10 12 11 10 12 12 11 10 9 11 9 9 10 9 10 8 7 7 8 9 8 8 8 9 9 11 10 10 12 11 11 12 12 11 9 8 8 9 8 7 7 7 7 6 6
4 7 9 10 10 12 10 10 9 10 11 11 11 12 13 11 11 12 17 13 9 9 9 9 10 8 9 9 10 10 10 10 11 11 11 11 12 11 11 12 12 12 12 11 11 11 11 11 10 10 9 8 7 7
9 13 10 17 10 14 17 16 11 13 16 14 13 15 13 12 18 19 18 12 10 9 9 9 10 8 9 10 10 10 11 11 12 12 14 12 15 15 13 12 13 14 14 14 14 15 14 14 13 12 11 10 9 9
10 11 10 12 13 13 14 14 14 14 14 11 11 13 12 12 15 19 13 11 10 10 10 10 10 10 11 11 11 12 13 12 12 15 13 13 14 16 18 18 17 17 15 15 15 16 16 15 14 14 13 12 10 10
14 13 9 8 8 9 9 9 9 10 12 12 15 13 13 15 17 14 11 11 10 10 10 10 10 11 11 11 12 13 15 15 16 15 13 14 14 15 16 17 18 17 16 16 16 17 17 16 16 15 14 13 12 14
10 11 12 10 9 9 10 11 11 11 11 10 11 14 15 18 17 13 12 11 10 11 11 11 11 12 12 14 15 17 18 18 17 14 14 16 18 18 20 22 21 16 20 19 18 17 17 16 16 15 14 14 16 15
9 8 9 11 11 11 11 11 11 10 9 11 14 16 14 14 15 14 14 13 11 11 13 14 16 16 15 15 18 20 21 21 22 24 27 28 26 23 20 23 24 20 19 18 17 16 16 15 14 14 14 15 17 17
11 10 13 14 13 12 10 9 10 9 9 9 13 13 14 16 15 14 14 14 14 15 15 17 19 19 24 24 25 21 20 26 23 24 27 26 23 22 24 22 20 20 20 18 20 19 17 16 15 16 17 17 18 19
9 9 10 12 11 10 9 8 8 8 7 8 12 14 17 17 16 16 16 17 17 18 19 21 21 24 23 22 23 25 24 20 22 24 25 25 26 28 27 24 23 23 20 20 21 20 19 20 19 19 20 20 20 20
9 11 13 12 14 10 8 9 9 10 11 12 13 13 16 19 24 22 19 21 21 23 26 27 26 23 23 22 22 22 22 24 24 23 22 22 25 27 26 24 23 25 22 24 23 20 21 23 23 22 22 22 22 21
16 20 18 22 17 18 18 19 20 20 17 15 15 20 20 21 22 20 18 21 23 25 26 26 27 28 25 25 26 26 24 26 26 20 19 19 22 23 25 25 24 27 28 27 26 22 24 25 25 24 24 23 23 23

GFSWCAN_con_lsi_009.txt.gz
Lid_Strength_Index
3 3 3 3 4 4 3 3 3 4 4 4 4 5 5 6 4 3 4 5 5 8 7 6 6 7 8 9 12 9 10 11 15 17 18 18 17 15 15 13 14 15 17 19 18 21 19 10 9 12 10 10 8 8
3 3 4 4 4 4 4 3 4 4 4 4 4 5 5 6 5 4 5 3 3 6 6 5 5 5 5 6 8 9 9 10 11 14 15 14 15 14 17 17 11 15 14 15 14 14 10 9 9 8 8 8 8 8
3 4 4 4 4 4 4 4 4 4 5 5 6 6 6 7 5 4 4 4 5 9 7 7 6 4 3 4 4 8 9 6 8 10 11 14 17 15 16 15 14 11 10 14 13 10 9 9 7 6 7 7 8 7
4 4 4 4 4 4 4 4 4 5 5 5 5 5 5 6 4 3 4 3 6 9 13 9 4 5 3 3 3 5 5 6 8 9 12 13 16 11 16 13 14 11 9 11 12 10 9 7 7 7 7 7 7 7
5 4 4 4 4 4 4 5 6 5 5 4 4 4 4 5 4 3 5 5 4 6 11 12 6 5 4 4 5 5 6 7 10 12 14 14 15 12 12 13 13 9 10 13 13 9 9 9 7 6 7 7 6 7
5 5 5 4 4 4 4 6 6 5 5 4 4 4 4 4 4 3 6 4 5 5 8 11 8 7 5 5 5 5 5 7 9 11 14 12 10 12 13 12 9 7 7 8 8 8 8 7 7 6 6 6 6 10
5 4 4 5 5 5 4 5 5 5 5 4 4 4 5 4 3 5 8 5 6 5 9 10 12 9 7 7 8 7 7 8 8 11 13 12 12 9 13 14 9 8 7 7 6 6 9 8 7 6 8 9 9 11
5 5 5 5 4 4 5 5 5 5 5 4 3 4 4 4 4 4 4 6 6 7 9 12 12 11 7 12 12 8 11 9 9 10 10 11 11 12 13 9 8 7 7 7 6 6 7 6 7 10 11 11 12 12
6 6 6 6 5 4 4 4 4 5 4 3 4 4 4 5 6 4 4 5 5 6 11 12 12 12 8 10 11 11 9 13 9 11 12 11 13 12 10 9 8 8 8 7 7 7 7 9 11 11 11 11 12 13
6 6 6 6 6 6 5 5 5 5 4 4 5 8 9 6 4 4 5 8 9 9 9 13 10 11 7 12 13 13 12 11 12 11 9 12 11 10 9 9 8 7 7 7 10 11 12 12 11 10 10 11 11 12
5 5 5 5 5 5 5 5 4 4 4 6 7 9 6 5 6 8 11 11 10 11 9 10 11 11 8 11 11 12 13 13 13 13 11 13 14 12 10 10 10 8 9 10 9 10 9 10 11 12 12 12 12 13
5 5 5 5 5 5 5 4 4 6 6 6 7 6 7 9 10 11 12 12 12 12 12 12 11 9 10 10 11 12 13 13 15 12 13 15 14 13 13 12 11 11 11 11 11 11 10 10 10 11 12 13 14 13
5 5 5 5 5 5 5 5 5 5 6 7 8 10 9 12 12 12 13 13 13 13 12 13 12 12 11 11 13 13 13 14 13 14 14 14 12 11 11 11 11 10 10 10 10 10 11 12 13 13 13 14 15 13
5 5 5 6 6 6 6 5 6 6 8 11 12 13 13 14 14 14 14 13 13 13 13 13 13 13 13 13 13 14 13 13 15 18 19 13 12 11 11 11 11 12 12 12 12 13 13 13 14 14 15 16 16 15
5 5 6 6 5 5 6 6 6 7 11 13 13 16 15 14 13 13 13 13 13 12 12 13 13 12 13 13 13 14 15 17 16 17 14 13 11 11 12 12 13 13 13 12 12 13 14 14 14 14 14 14 12 12
4 5 6 5 5 6 6 7 9 10 13 12 13 14 13 13 13 13 13 13 11 12 12 12 13 13 14 13 15 18 18 18 14 12 12 11 12 12 12 11 11 11 11 11 12 12 12 13 13 12 13 14 14 14
3 5 3 4 4 5 6 9 11 13 14 13 14 13 13 12 13 12 12 12 10 12 13 12 16 17 13 16 16 13 14 13 11 11 11 11 11 10 10 10 11 10 10 10 11 11 12 13 15 14 12 9 10 10
4 4 2 2 3 5 7 8 11 12 11 11 12 11 10 10 10 10 10 10 10 10 10 12 12 15 15 16 14 12 11 11 11 11 11 10 10 10 10 10 10 10 10 12 12 11 12 12 10 9 9 8 9 10
4 3 2 2 4 7 9 8 8 13 11 10 10 10 10 9 10 9 9 9 9 11 12 14 16 16 16 12 10 9 10 12 11 11 11 10 10 10 10 9 10 10 9 8 8 9 9 8 9 9 9 10 11 9
2 3 3 3 4 9 10 11 7 10 10 11 10 10 10 10 10 9 9 9 9 9 12 15 14 14 13 12 12 13 11 9 12 14 13 12 11 10 10 10 11 9 9 9 10 11 10 9 8 8 9 8 7 7
5 5 5 6 7 9 9 9 9 9 10 10 10 11 11 10 10 10 9 9 10 10 14 13 12 9 11 12 12 12 10 11 12 12 12 12 11 11 10 10 10 10 12 11 10 10 9 9 9 8 8 7 7 6
6 4 8 6 9 8 9 9 9 9 10 10 11 10 12 12 12 11 10 11 11 13 12 14 9 9 9 9 9 8 8 9 9 11 11 11 11 11 10 11 12 13 11 11 11 11 11 10 10 10 10 9 8 7
4 6 8 9 10 11 14 8 9 11 12 12 10 12 13 12 11 10 12 11 10 9 9 9 8 8 9 9 9 10 9 9 11 12 12 11 12 14 14 12 13 14 14 13 12 13 14 15 14 14 13 11 11 10
5 9 10 11 11 13 10 13 10 13 13 12 12 13 14 12 11 12 13 13 9 8 9 9 8 9 10 10 12 12 11 10 12 13 13 13 13 13 13 14 16 17 16 15 16 18 17 17 17 15 15 14 14 14
11 15 11 13 11 12 14 14 15 14 17 16 14 14 13 13 16 14 15 11 10 10 9 9 8 9 11 11 12 13 12 12 12 13 14 14 17 17 17 16 17 17 17 19 19 18 18 18 17 17 16 16 16 14
12 12 11 12 14 12 17 19 17 12 18 15 13 14 13 12 14 15 13 12 10 11 11 11 11 11 11 11 13 14 14 14 14 16 16 16 17 23 23 22 21 21 18 21 19 20 19 19 19 18 18 17 16 15
13 17 12 9 9 10 9 10 11 11 12 12 13 14 13 14 15 14 12 11 11 12 10 10 10 11 12 14 15 16 17 18 17 16 16 17 17 17 20 25 22 20 19 20 21 21 21 20 20 19 18 16 16 17
13 11 14 13 10 9 11 11 11 11 11 10 11 13 14 14 16 13 13 11 12 12 13 13 13 15 16 17 19 19 18 19 16 17 18 20 21 23 24 25 24 18 22 25 24 23 23 20 19 17 18 20 20 18
12 11 11 12 13 12 11 11 11 10 9 10 13 15 16 16 17 17 14 13 13 14 16 17 18 18 19 18 20 22 23 23 24 27 29 30 28 25 25 27 28 26 26 26 20 18 18 17 16 19 18 19 22 24
12 13 15 17 13 13 11 10 10 9 9 12 13 14 15 18 17 16 16 16 17 18 19 19 21 22 26 26 27 24 24 27 28 26 29 29 25 24 29 27 26 26 25 27 24 22 21 24 23 26 24 24 23 22
9 9 10 13 11 10 9 8 8 8 8 11 14 17 20 20 18 17 18 19 19 20 22 24 24 28 25 28 29 29 27 27 27 24 25 26 29 30 28 27 27 28 29 28 28 28 25 29 30 30 29 29 28 26
10 13 16 16 15 13 15 15 19 13 17 14 14 16 21 23 26 21 20 23 24 25 29 31 28 26 27 26 28 28 25 27 29 28 26 26 28 30 29 28 30 31 31 31 30 29 29 31 31 31 32 31 30 29
21 20 19 23 18 18 20 20 22 20 18 15 19 20 23 22 23 21 19 23 25 27 27 28 28 30 28 28 28 29 26 29 30 24 23 22 25 25 29 31 32 33 32 33 32 32 31 31 32 32 32 32 31 31

GFSWCAN_con_lsi_015.txt.gz
Lid_Strength_Index
3 4 4 4 4 3 3 3 3 3 3 4 4 4 4 3 2 2 4 3 5 7 6 5 5 7 8 8 10 9 9 9 12 13 13 14 14 13 13 12 13 13 14 15 17 17 16 10 8 11 8 8 7 7
4 4 4 4 4 4 4 4 4 4 5 5 5 4 4 3 3 3 3 3 4 5 5 4 3 4 4 5 7 8 8 9 9 12 14 14 14 14 15 14 11 13 11 12 13 12 9 9 7 7 7 7 7 7
4 4 4 4 4 4 3 4 5 5 5 5 5 5 3 3 2 2 2 4 5 7 6 5 6 4 3 4 4 8 9 7 9 9 12 13 13 13 14 13 12 10 10 11 11 9 10 8 7 7 6 6 6 5
4 4 4 4 4 5 5 5 5 5 5 6 6 5 3 2 3 2 4 4 6 9 12 8 5 5 4 3 4 5 7 8 9 10 12 13 12 11 13 11 12 10 9 10 11 9 8 8 7 5 5 6 6 5
5 4 4 4 5 5 5 5 5 5 5 5 5 5 4 4 4 3 4 4 5 5 11 11 7 6 5 5 6 6 7 7 9 11 13 11 12 11 12 12 12 9 9 11 11 7 8 7 7 6 6 6 6 6
4 4 5 5 5 5 5 5 5 5 5 5 5 4 5 5 5 4 5 4 4 6 8 12 8 8 7 6 6 6 6 8 8 9 12 11 10 10 12 12 8 8 7 7 7 7 7 7 7 6 6 6 6 6
4 4 4 5 5 5 5 5 5 4 5 5 4 4 4 5 4 6 7 5 5 6 9 12 12 9 9 7 8 7 6 8 7 10 12 12 10 10 12 12 8 7 7 6 6 6 7 6 7 7 8 10 10 10
5 4 4 4 6 5 5 5 5 4 5 4 4 4 4 4 4 4 5 5 5 7 8 11 12 11 8 11 11 7 10 8 8 10 11 11 10 10 12 9 9 9 8 7 7 6 7 10 10 11 10 10 11 11
5 5 5 5 5 6 5 5 5 5 5 5 5 4 4 5 5 5 5 5 5 6 11 12 11 12 7 10 11 9 9 12 9 10 11 9 12 13 13 12 12 11 11 9 10 11 11 12 12 11 11 11 12 12
5 5 5 5 5 6 5 5 5 5 5 5 5 7 9 6 5 5 6 8 8 9 8 12 10 11 8 11 12 11 11 11 12 10 9 12 12 12 12 11 11 11 11 8 11 13 12 12 11 11 11 11 10 10
5 5 5 5 5 5 5 5 5 5 4 6 8 9 6 5 6 10 12 12 11 12 10 11 11 11 9 10 11 11 12 12 13 11 11 12 13 13 11 11 11 10 10 10 10 10 10 10 11 11 11 10 11 11
5 5 5 5 5 5 5 5 5 6 7 7 7 7 8 9 11 12 13 12 12 13 12 11 11 9 10 8 10 11 12 13 13 11 12 14 15 12 11 11 11 10 10 10 10 10 10 9 9 10 11 11 12 12
5 5 5 5 5 5 6 6 6 6 6 7 9 11 9 11 13 15 14 13 13 12 12 12 12 11 10 10 12 11 12 13 12 13 14 14 12 11 11 11 11 11 10 10 10 10 11 12 12 12 12 12 12 11
6 6 6 6 6 6 6 6 6 7 8 12 12 13 14 12 13 13 12 13 13 13 12 12 12 11 12 12 12 12 13 13 15 16 16 14 12 12 11 11 11 12 14 13 12 12 13 13 13 13 13 13 13 11
6 6 6 6 6 6 6 7 7 7 10 12 12 15 15 13 13 13 13 12 12 11 11 12 12 11 13 13 13 14 16 16 16 17 14 13 12 12 12 12 12 12 14 11 11 11 12 13 13 11 12 12 11 12
6 7 8 6 6 6 7 7 9 9 11 13 13 14 13 13 13 13 13 13 11 12 12 12 13 13 14 13 15 15 16 18 15 13 13 12 13 12 11 10 10 9 9 10 10 10 12 12 12 11 11 11 11 11
7 10 7 6 7 7 7 10 12 12 13 13 14 13 13 13 13 13 13 13 11 12 13 13 14 15 14 15 16 14 16 14 12 12 11 10 10 10 9 8 9 9 9 9 10 10 11 11 12 10 11 10 10 9
10 9 7 6 8 9 10 12 13 12 14 14 14 14 13 13 13 13 12 12 12 12 12 14 13 15 17 18 16 12 12 11 10 9 9 8 8 8 7 8 9 9 9 10 10 10 10 11 11 11 11 10 10 9
6 6 5 6 8 11 12 12 12 14 14 13 13 13 13 13 13 12 12 12 12 13 12 15 17 16 15 13 11 10 10 9 9 9 8 9 9 9 9 9 9 10 11 11 11 11 11 11 12 11 12 12 13 11
4 4 4 4 5 10 11 12 10 11 12 12 11 12 12 12 12 11 10 10 10 12 14 14 14 13 12 12 11 9 7 8 10 11 11 11 10 10 11 11 11 11 11 11 11 12 13 12 13 14 15 15 15 15
6 6 5 7 9 9 9 10 11 10 10 10 11 11 11 10 10 10 10 9 9 10 11 12 11 10 10 10 10 9 9 10 11 10 10 11 11 12 12 12 12 12 13 13 14 16 16 16 15 16 16 17 16 14
8 6 10 8 11 11 11 9 10 10 10 11 11 10 11 12 11 11 10 10 11 11 10 11 10 9 10 11 11 11 10 10 10 11 11 11 12 13 14 15 15 15 15 16 16 18 18 17 17 18 18 17 17 16
7 9 12 13 15 15 14 10 12 12 15 16 11 14 13 13 13 11 12 11 11 9 9 9 10 10 11 11 12 12 12 12 12 13 12 13 14 15 16 16 17 18 18 18 17 18 19 21 19 20 19 19 18 18
7 10 17 18 17 19 12 12 11 12 12 16 16 18 17 17 15 15 16 13 11 10 10 10 11 12 12 13 13 12 11 12 13 14 12 13 15 15 16 17 18 19 19 19 20 21 21 21 23 21 21 20 19 18
15 13 16 20 16 18 15 15 14 13 14 16 17 20 13 15 17 19 17 15 13 13 12 11 10 11 13 13 13 13 12 11 14 16 16 15 16 16 17 18 19 19 19 21 22 23 22 22 22 22 21 21 19 19
19 12 13 13 13 14 19 18 17 14 14 19 17 16 14 14 16 17 15 14 13 13 12 11 12 13 14 13 14 15 15 13 14 17 18 17 18 20 21 21 21 21 20 23 23 23 23 23 23 22 21 20 20 21
17 14 12 10 10 11 17 17 13 12 16 15 13 14 14 14 18 15 12 13 13 14 14 14 13 14 15 15 16 16 16 16 16 17 17 18 18 19 21 22 23 21 21 22 24 25 24 24 23 22 21 19 20 21
10 10 14 10 15 13 15 16 16 15 12 10 12 16 16 15 16 15 14 12 13 14 15 16 16 16 17 17 17 16 17 18 18 18 19 19 20 21 23 23 24 22 25 25 24 24 23 23 21 20 21 22 22 21
14 13 14 17 16 15 15 16 16 13 11 13 16 17 17 17 17 17 15 14 14 15 17 18 18 18 19 19 21 22 22 20 20 23 24 23 24 21 22 24 24 24 25 26 23 21 20 18 19 21 23 23 23 23
16 13 17 20 15 16 11 11 11 13 12 13 14 15 17 18 17 16 16 16 17 19 20 20 21 19 22 22 23 22 24 25 23 22 23 24 23 22 24 24 25 24 26 26 26 25 23 24 22 24 25 25 25 25
13 12 12 15 16 11 13 12 9 9 15 16 17 19 20 19 18 18 19 20 20 20 20 23 23 27 23 24 24 24 23 23 28 26 25 24 23 23 24 24 25 27 27 26 26 26 26 25 26 26 26 26 27 28
16 20 19 17 16 17 19 19 16 16 12 14 19 20 22 21 24 19 20 21 21 21 25 27 25 23 26 26 27 27 27 25 24 25 26 24 23 23 24 25 27 27 26 26 26 27 27 26 26 27 27 27 28 28
19 20 16 16 14 14 20 22 24 21 16 17 22 24 23 22 23 20 20 23 22 22 22 24 24 25 26 27 25 24 26 24 26 25 24 23 25 24 24 25 26 27 26 26 26 27 26 27 26 27 27 29 29 29

GFSWCAN_con_lsi_018.txt.gz
Lid_Strength_Index
3 3 3 3 3 3 3 3 4 4 4 4 3 3 3 3 2 1 1 -1 2 5 4 4 4 5 5 6 8 6 7 7 7 11 12 11 13 10 10 9 11 12 13 14 13 17 17 7 6 10 7 5 5 5
4 4 3 3 4 4 4 4 4 3 4 4 3 3 3 3 3 2 3 1 -0 3 4 2 2 2 3 3 5 5 6 6 6 9 9 10 13 12 11 13 8 12 9 10 10 9 7 6 5 4 5 5 5 5
3 4 3 3 4 4 4 4 4 4 4 4 4 4 3 3 3 1 1 1 1 4 4 4 5 2 1 1 1 6 4 4 5 4 7 8 14 9 14 11 10 8 7 9 9 7 6 6 5 4 4 4 4 3
3 4 4 4 4 4 4 5 5 5 5 4 4 4 4 3 3 1 1 1 1 4 10 6 2 3 2 1 1 2 3 4 5 4 7 9 12 7 10 8 9 7 7 8 8 7 6 5 4 4 4 3 3 3
4 5 5 5 5 5 5 5 5 5 5 5 4 4 3 2 2 1 0 2 1 3 8 7 3 3 2 3 3 3 3 4 5 7 9 10 7 8 7 7 9 6 7 9 9 6 6 5 4 4 4 4 4 4
5 5 5 5 5 5 5 5 6 6 5 6 4 3 2 2 2 1 5 1 2 1 5 10 5 5 4 3 3 3 4 4 4 6 8 6 7 7 11 10 7 6 5 5 6 5 4 4 4 4 4 6 6 6
5 5 5 5 5 5 5 5 5 5 5 5 3 3 4 4 0 3 4 2 4 2 5 9 8 5 5 4 5 4 3 4 4 6 8 7 6 6 10 11 7 7 6 5 5 4 6 6 7 7 7 7 7 8
5 5 5 5 5 5 5 5 4 4 4 5 5 4 4 4 3 2 2 4 4 3 4 9 9 8 5 7 8 6 7 5 6 8 8 8 7 7 11 8 8 8 7 5 7 5 7 7 7 7 7 8 9 10
5 5 5 5 5 5 5 5 5 5 5 4 4 4 1 2 3 2 5 5 2 3 7 8 11 12 7 9 8 7 5 9 6 9 8 7 10 12 11 11 9 9 8 8 8 7 8 9 9 9 10 11 11 11
5 5 5 5 5 5 6 6 5 5 5 5 2 3 6 4 5 4 3 4 4 5 6 10 7 10 6 8 9 8 7 10 12 9 8 10 12 11 11 10 9 8 7 7 9 11 10 11 11 11 11 10 10 10
5 5 5 5 5 5 5 5 5 4 3 2 4 6 3 5 3 5 8 8 7 10 7 9 8 9 6 9 10 8 10 9 13 10 11 12 13 12 11 11 9 8 8 8 8 9 10 10 10 10 10 8 9 9
5 5 5 6 6 6 6 6 5 4 4 4 4 4 4 5 6 10 11 9 9 11 10 9 9 8 8 6 8 9 11 11 13 8 12 13 13 11 11 11 10 9 9 9 9 9 9 9 9 10 11 11 11 10
6 6 6 6 6 6 6 6 6 6 6 3 5 9 7 10 12 13 14 12 12 11 11 11 11 9 8 7 9 9 13 13 9 12 13 12 12 11 11 11 10 9 9 9 10 10 10 11 10 11 10 10 9 8
6 6 6 6 6 6 6 6 6 6 5 8 10 13 12 13 13 12 12 12 12 12 11 9 11 8 10 10 10 13 13 12 13 14 13 13 12 12 11 10 10 11 12 11 11 11 11 11 10 10 10 9 9 9
6 6 6 6 6 6 7 7 7 5 8 11 10 14 14 13 13 13 13 12 11 10 10 10 10 8 11 12 12 12 13 14 13 13 13 12 12 11 11 10 11 11 11 10 9 9 9 9 9 9 9 9 9 9
6 6 7 6 6 7 7 7 8 7 10 11 12 13 13 13 13 13 12 12 11 11 11 11 12 12 12 11 13 13 13 14 13 11 12 12 12 11 10 10 9 9 8 8 8 8 8 9 9 9 9 10 10 9
7 8 8 7 7 7 7 7 8 11 12 12 13 13 12 13 13 13 13 12 11 12 13 12 13 13 11 13 13 11 12 11 12 11 11 10 10 9 9 8 7 7 7 8 8 9 9 9 10 10 11 10 10 9
8 7 7 7 7 7 8 8 9 11 13 13 13 13 12 12 12 12 11 10 10 10 10 12 11 13 13 14 12 11 11 11 10 10 10 9 8 7 6 6 7 7 8 9 10 10 10 10 10 10 11 10 10 9
8 8 8 7 7 7 10 10 9 13 13 12 12 12 12 12 11 11 11 11 10 9 9 10 12 12 11 10 11 11 10 9 9 9 9 8 7 7 7 7 8 9 10 10 10 10 10 11 11 11 11 11 11 11
5 6 6 7 6 8 11 11 8 11 13 12 11 12 12 12 11 11 11 10 9 8 9 10 10 10 9 9 8 8 7 7 8 9 9 9 8 8 8 9 10 10 10 10 11 11 10 10 11 12 12 12 12 13
4 4 4 3 5 6 9 9 9 9 9 10 10 10 10 9 9 9 9 7 7 8 9 9 9 9 9 9 8 8 8 6 6 6 7 10 10 9 10 10 10 10 10 11 11 12 13 13 13 13 13 13 13 12
5 5 5 6 7 7 8 7 8 7 8 8 8 7 8 9 9 9 8 8 9 9 8 8 8 8 8 10 10 9 9 9 9 9 10 10 11 12 12 11 11 12 12 12 12 13 13 14 15 14 14 14 14 13
5 6 7 8 10 10 11 7 9 9 11 10 9 10 10 9 9 8 10 9 9 9 8 8 10 9 10 10 11 11 10 10 11 11 12 12 12 12 13 13 13 13 13 14 14 14 15 17 16 16 15 14 14 14
6 9 12 11 10 12 9 11 10 11 10 11 11 13 12 11 9 10 12 12 12 11 10 10 10 11 11 12 13 12 11 11 12 12 11 11 13 13 13 14 15 15 16 16 15 16 16 16 17 16 16 16 15 15
11 12 11 13 11 13 13 13 12 11 13 12 13 12 12 10 12 13 14 14 12 13 12 11 11 11 12 12 12 12 11 11 12 14 14 13 13 14 14 15 16 16 16 17 17 17 17 17 17 17 17 16 17 17
13 11 12 12 12 12 12 13 13 12 12 13 12 11 10 10 13 15 13 13 12 13 13 11 10 11 12 12 12 13 13 12 13 15 15 15 15 15 16 16 16 16 16 17 18 18 18 18 18 18 17 16 17 17
13 13 10 9 10 10 10 10 9 10 11 12 10 10 10 13 14 13 11 12 11 12 12 12 11 12 13 14 14 14 14 14 14 15 15 16 16 16 17 18 19 18 17 18 18 18 19 19 18 18 17 16 16 17
10 9 12 10 9 8 10 10 10 11 10 9 9 12 13 13 14 13 13 12 12 12 13 13 14 14 14 14 14 14 14 15 15 15 15 15 16 16 17 17 17 19 19 18 19 18 18 18 17 17 17 18 18 17
9 8 8 12 10 9 10 10 10 9 9 9 10 12 14 14 14 14 13 12 11 11 13 14 14 14 15 15 16 15 14 14 15 17 17 16 16 16 16 17 17 17 17 18 18 18 18 17 18 18 19 19 18 18
9 8 10 12 12 12 9 8 8 8 9 10 11 13 14 15 15 13 13 13 13 15 15 15 15 14 15 14 15 16 16 16 17 17 17 18 17 17 17 17 17 17 18 18 18 18 18 19 18 18 19 19 18 19
8 7 9 10 10 9 10 10 8 9 10 12 13 13 15 15 14 15 15 15 15 14 14 15 16 16 16 16 16 17 17 17 19 19 19 18 17 17 16 17 17 17 18 18 19 19 20 19 19 20 19 20 21 21
10 12 12 12 10 11 11 11 11 10 10 12 14 14 16 15 17 15 16 14 14 15 19 17 16 16 17 17 18 17 22 18 17 18 19 18 17 16 16 17 17 18 18 19 19 20 20 20 20 20 20 20 21 22
11 12 11 11 11 11 13 13 14 13 12 14 16 16 16 16 18 16 15 16 16 16 16 16 16 16 18 19 18 17 20 17 18 19 19 19 20 19 18 16 17 18 19 19 19 19 20 20 20 20 21 22 22 22

GFSWCAN_con_lsi_021.txt.gz
Lid_Strength_Index
0 0 0 0 0 1 3 3 3 3 3 4 4 4 4 3 3 2 1 -1 2 4 4 3 3 4 4 5 8 6 7 7 7 11 12 11 13 10 10 9 11 11 13 14 12 16 17 6 6 10 7 4 4 4
1 1 2 2 3 3 3 3 3 3 4 4 4 4 4 3 3 3 2 -1 -0 3 4 2 2 2 2 2 4 5 5 6 6 8 9 9 13 12 10 13 7 11 9 10 9 9 5 5 5 4 4 4 4 4
3 4 4 5 4 4 3 3 3 4 4 4 4 4 4 3 3 3 1 0 1 4 4 4 4 2 0 1 1 5 4 4 5 4 7 8 13 9 14 11 9 7 6 8 8 6 6 5 4 4 4 4 3 3
4 4 4 4 4 4 4 4 4 4 4 4 4 4 4 3 3 4 1 -0 1 4 9 6 1 3 0 1 1 2 3 2 3 4 7 10 12 6 10 8 8 7 6 8 8 6 5 5 4 4 4 3 3 3
4 4 4 4 4 4 4 4 4 4 4 4 4 3 3 3 3 0 -1 -0 0 3 8 7 3 2 1 1 2 2 3 3 5 7 9 9 7 7 7 7 8 6 7 9 9 6 6 5 4 3 4 4 4 4
5 5 5 5 5 5 5 5 4 4 4 4 3 3 3 4 3 1 4 0 -0 1 5 9 3 4 2 2 2 3 3 3 3 6 8 5 5 6 11 10 6 5 5 5 6 4 4 4 5 5 5 6 5 6
5 4 4 5 4 5 5 5 5 5 5 4 4 4 3 3 0 3 4 2 3 -0 5 9 8 4 3 3 3 3 3 4 4 5 7 6 6 6 10 11 7 6 5 4 4 4 6 5 6 5 5 6 6 8
5 5 5 5 5 5 5 5 5 5 5 4 4 3 3 3 4 2 2 4 2 3 3 9 10 8 3 6 7 3 6 4 5 6 6 7 6 7 10 7 7 6 5 6 6 5 5 5 5 6 6 8 9 10
5 6 5 5 5 5 5 5 4 4 4 4 3 2 0 2 3 3 5 3 1 3 7 8 11 13 4 7 6 5 4 9 6 9 8 7 10 11 9 8 7 7 7 7 6 6 6 7 8 8 8 9 11 11
5 6 5 6 6 5 5 5 5 4 4 4 1 3 5 3 5 3 2 4 4 4 4 9 6 10 5 8 9 8 7 10 11 9 6 10 10 9 8 8 7 7 6 6 8 9 9 10 9 10 10 9 8 8
6 6 6 5 5 6 5 5 5 5 4 1 4 6 2 5 4 4 7 8 6 9 7 8 7 9 5 9 10 8 10 9 13 10 10 12 12 10 9 9 8 7 6 7 7 8 8 8 9 9 9 9 10 10
5 6 6 6 6 6 6 6 4 3 3 3 2 3 3 5 6 10 10 9 9 11 9 9 9 7 7 4 8 8 10 9 13 7 12 13 12 11 10 10 9 8 7 8 8 9 9 9 9 10 10 11 11 11
6 6 6 6 6 6 6 6 6 6 4 2 4 8 6 8 13 13 14 12 12 10 10 9 10 7 6 5 8 9 13 13 7 12 12 12 11 10 10 9 9 8 9 9 9 9 10 10 10 10 11 11 9 8
6 6 7 7 7 7 7 6 6 5 4 7 9 12 12 13 12 13 12 12 12 12 10 8 10 9 9 10 9 12 12 10 14 15 13 12 12 11 10 9 9 10 10 10 10 10 10 11 11 11 10 9 9 9
7 7 7 7 7 7 7 7 6 5 7 10 10 14 14 13 13 13 13 12 12 10 9 8 8 7 10 11 10 11 13 14 13 13 12 12 12 11 10 9 10 11 11 9 9 10 11 9 9 9 9 9 9 10
6 6 7 7 7 7 7 6 5 6 9 11 12 13 13 13 13 13 13 13 11 11 9 8 11 11 12 11 12 13 13 14 12 11 11 12 12 11 10 9 9 8 9 9 9 9 9 9 9 9 9 10 9 10
6 7 7 7 7 6 6 7 8 10 11 12 13 13 13 13 13 13 13 13 11 11 13 11 12 13 11 12 13 11 12 11 12 11 10 10 11 10 9 9 9 8 8 8 8 8 9 9 9 10 10 10 10 10
7 6 7 7 6 6 7 7 9 11 13 12 12 13 12 12 12 12 11 10 9 10 11 12 11 12 12 13 12 11 11 11 10 10 10 9 9 9 8 7 7 7 8 8 9 9 9 9 9 9 10 10 10 9
8 7 7 7 6 7 10 10 9 13 12 11 11 11 11 12 10 10 10 9 8 8 9 10 11 12 12 11 12 11 11 10 10 10 10 8 7 7 6 6 7 8 8 8 8 8 9 10 10 10 10 10 10 10
7 7 7 7 6 8 12 11 8 11 13 12 11 12 11 11 10 11 11 9 8 9 11 12 13 13 12 12 11 10 8 8 9 9 10 8 7 7 7 7 8 8 8 10 10 10 9 9 10 10 10 11 11 11
4 5 4 3 5 6 9 10 10 10 10 11 10 10 11 9 10 10 10 7 9 11 11 10 10 9 9 9 9 8 8 6 7 6 7 8 8 8 8 9 9 8 9 9 10 11 10 11 11 11 10 10 11 11
4 4 3 3 6 7 7 6 7 6 8 8 8 8 9 10 9 8 7 8 10 11 10 9 9 9 9 10 10 10 9 8 8 9 9 9 10 10 10 10 10 11 11 10 11 11 11 12 12 12 11 12 11 11
4 4 5 5 8 8 10 6 9 8 10 9 7 10 10 9 9 6 9 9 11 10 9 9 10 10 10 10 10 11 10 10 11 12 11 12 11 12 12 12 11 11 11 12 12 12 12 14 13 13 12 12 12 12
5 7 9 10 9 11 8 10 8 9 8 9 10 12 12 10 8 9 12 12 11 10 11 10 9 9 10 11 12 12 11 11 12 11 10 11 12 12 12 13 13 13 13 13 13 13 13 13 14 13 13 14 13 14
9 11 9 11 9 10 11 11 10 10 12 11 11 11 11 9 11 12 13 13 12 12 12 10 11 11 11 12 12 13 12 11 12 13 11 11 11 12 12 13 14 14 14 14 14 14 14 14 14 14 15 14 15 15
12 11 11 11 11 11 11 12 12 11 11 11 11 9 9 10 13 14 13 12 12 12 12 12 10 10 11 11 11 12 12 10 10 12 13 13 12 13 13 14 13 14 14 14 15 15 15 15 16 16 15 15 15 15
13 12 10 8 9 9 10 9 9 9 11 11 10 10 9 12 13 12 11 11 11 11 10 10 10 10 11 12 12 12 12 12 12 13 13 13 13 13 14 15 16 15 15 15 15 15 16 16 16 16 15 14 14 15
10 9 11 10 9 8 9 9 9 10 9 8 8 11 12 12 12 12 11 10 10 10 11 11 12 12 12 12 11 11 11 12 12 12 12 12 12 13 14 13 14 17 15 15 16 16 16 16 16 15 15 15 16 15
9 8 8 11 9 8 9 9 10 9 8 8 9 10 12 13 12 11 11 11 9 9 11 11 12 11 12 12 12 12 12 12 13 15 15 14 13 13 13 14 14 14 15 15 15 15 15 16 15 16 16 16 16 15
9 7 8 10 10 11 9 7 7 8 8 9 9 11 12 13 13 11 11 11 12 13 12 12 12 12 13 12 13 13 13 14 15 15 16 16 16 15 15 15 15 15 15 15 15 15 15 15 15 15 15 16 16 17
7 7 8 8 10 9 8 7 7 8 8 10 10 10 13 13 13 12 13 12 12 12 12 13 13 13 13 14 14 14 14 14 16 16 16 16 15 15 15 15 14 14 15 15 15 15 15 16 16 16 16 17 17 18
8 10 10 11 9 8 8 8 8 8 9 9 11 11 12 12 14 14 14 12 12 13 15 13 13 14 14 14 14 14 18 16 15 16 16 16 15 14 14 14 15 15 15 16 16 16 16 16 16 16 16 17 17 19
8 8 9 9 9 10 9 9 10 11 10 12 13 12 13 13 16 14 13 13 14 14 14 14 13 13 15 16 15 15 15 14 16 16 16 16 18 17 17 15 15 15 16 16 16 16 16 17 17 17 18 18 18 19

GFSWCAN_con_lsi_024.txt.gz
Lid_Strength_Index
2 2 2 2 1 1 0 -0 -0 0 -0 1 1 3 4 4 4 4 4 3 3 7 4 3 3 5 5 6 9 7 8 7 8 12 13 12 13 11 11 9 12 13 14 15 14 17 18 6 6 10 8 5 5 5
2 1 1 1 0 0 0 0 0 0 0 1 1 4 4 4 3 3 5 2 2 5 5 2 2 2 2 3 6 6 6 7 7 9 10 10 13 12 12 14 7 12 10 12 11 12 6 4 5 4 4 5 4 4
1 1 0 0 0 0 0 0 0 0 1 1 3 3 3 3 3 3 5 3 2 4 5 4 5 2 1 1 1 6 5 4 5 4 8 9 13 10 14 13 9 7 6 9 9 6 6 5 4 4 4 4 4 4
4 3 3 3 2 2 2 2 2 2 2 2 3 3 3 3 4 4 4 3 2 4 10 7 1 3 1 1 2 2 3 3 4 5 8 10 12 7 11 10 10 7 7 8 8 6 5 5 5 4 4 4 4 4
4 5 5 4 4 4 4 4 4 4 4 3 3 3 4 4 3 3 3 2 1 4 9 7 3 2 1 2 2 2 3 4 5 8 9 10 7 9 8 8 10 6 7 10 11 6 7 6 5 4 5 5 5 5
5 5 5 5 4 5 4 4 4 4 4 3 3 4 3 4 4 3 5 1 -0 1 6 10 4 4 2 2 3 3 3 4 4 7 9 6 5 7 12 11 6 6 5 5 7 5 5 4 5 5 6 6 6 7
5 5 5 5 5 5 5 5 5 4 4 4 4 4 3 4 1 4 5 3 5 0 6 10 9 4 3 3 4 4 3 4 5 6 8 7 7 7 11 12 7 5 5 5 4 4 6 5 6 5 7 7 8 8
5 4 4 4 5 5 5 5 5 5 4 4 4 4 3 4 3 3 1 3 4 3 5 10 11 8 3 7 8 4 6 5 6 7 7 8 7 8 11 7 6 6 5 5 5 4 5 6 6 7 7 8 9 9
5 6 5 5 5 5 5 5 4 4 4 4 4 3 1 2 3 2 4 4 -0 3 9 9 12 13 4 7 6 6 5 10 6 9 8 8 10 12 8 7 6 6 6 7 5 6 7 8 8 8 9 9 10 10
6 6 6 5 5 5 5 5 5 4 4 3 1 3 7 3 4 4 2 4 5 5 5 9 7 11 6 8 10 8 8 10 12 9 7 10 10 8 7 7 7 6 5 5 8 10 9 10 9 9 9 9 10 11
6 6 6 6 5 5 5 4 4 3 3 2 4 6 2 3 2 4 8 8 8 10 8 8 7 9 5 10 10 8 11 10 13 11 11 12 12 10 8 8 7 6 6 6 7 8 8 8 9 10 11 11 11 12
6 6 6 6 6 5 5 5 4 2 2 2 2 2 2 4 7 10 10 9 10 11 10 10 8 8 7 5 8 9 11 10 13 9 12 13 11 9 9 9 8 7 8 8 8 9 9 9 10 11 11 12 12 12
6 7 7 6 6 6 5 5 5 4 4 1 4 8 7 9 12 13 14 12 12 11 11 10 11 8 7 7 9 10 12 13 8 12 12 11 10 10 9 9 9 8 8 9 9 10 10 11 11 12 13 13 11 11
6 7 7 7 7 6 6 6 5 4 3 6 9 12 13 13 13 13 13 13 13 13 11 9 10 10 10 11 10 12 12 9 14 15 13 12 11 11 9 9 9 10 11 11 11 11 12 13 13 12 12 12 13 12
6 7 7 7 7 6 6 6 6 5 7 11 11 15 15 14 13 13 13 13 13 11 10 8 8 8 10 12 10 12 13 14 13 13 12 11 11 10 10 9 11 11 11 11 11 12 12 12 12 12 12 11 11 11
6 6 8 7 7 6 6 6 6 7 10 12 13 14 14 14 14 14 14 14 12 11 9 8 11 12 13 11 12 13 13 14 13 12 12 12 11 10 10 10 10 10 10 10 11 11 12 11 11 11 11 11 11 11
6 7 8 7 7 6 6 7 7 10 11 12 14 14 13 14 14 14 13 13 11 11 13 11 13 14 11 12 13 13 14 13 13 12 12 11 11 10 10 10 10 10 10 10 10 10 10 10 10 10 10 11 10 10
7 6 7 6 5 6 6 7 10 11 13 13 14 14 13 13 13 13 12 10 11 12 12 13 11 13 13 14 14 13 12 12 11 11 11 11 10 10 9 9 9 9 9 9 9 9 9 9 9 10 10 11 10 10
8 7 7 6 5 7 9 9 8 13 13 12 12 11 12 12 10 10 11 9 8 8 10 11 13 14 14 14 14 13 12 11 12 12 11 10 10 10 9 9 9 9 9 8 8 9 10 10 11 11 11 11 11 11
7 7 7 6 6 8 11 11 7 11 13 12 11 12 11 11 10 11 11 9 8 9 12 14 15 14 14 13 13 12 11 11 11 12 12 11 9 8 8 8 8 8 9 10 10 9 10 10 11 11 11 11 11 12
5 6 6 5 6 8 10 11 11 11 11 12 11 10 12 10 11 11 11 9 12 14 14 14 13 13 13 13 13 12 11 11 10 9 8 9 9 8 8 8 8 8 9 10 11 12 11 12 12 12 11 10 11 10
4 4 3 3 6 7 8 7 8 8 9 9 9 9 11 12 11 11 8 12 14 13 12 12 12 11 12 12 11 10 10 10 10 10 9 9 10 11 11 10 11 12 13 12 12 12 12 13 13 12 12 12 12 11
3 3 4 5 9 8 10 5 9 8 10 9 8 10 11 10 9 6 11 11 11 10 10 10 10 10 11 10 11 11 10 11 12 12 12 13 13 13 13 13 12 12 13 13 12 12 12 13 13 13 12 12 12 12
4 8 9 9 8 11 7 10 8 9 8 10 10 12 12 10 8 10 13 12 12 11 11 10 9 10 11 12 13 13 11 11 12 12 12 13 14 14 13 13 13 14 13 12 12 12 12 13 14 13 13 14 13 14
9 11 9 11 8 10 11 11 10 10 12 11 11 12 11 9 11 12 13 13 12 13 12 10 11 11 12 12 13 13 12 12 13 14 13 10 11 12 13 13 14 14 13 14 15 14 14 14 14 14 15 14 15 15
13 11 11 11 11 11 11 12 12 12 11 11 12 10 9 10 12 14 14 12 13 13 13 12 11 11 13 12 13 13 13 10 11 13 13 13 12 12 13 13 13 15 14 14 15 16 15 15 15 15 15 15 15 15
13 12 10 8 9 9 10 9 9 9 10 11 10 9 9 12 13 13 11 11 11 11 11 11 11 11 12 12 12 12 12 12 12 13 12 13 13 13 14 16 17 16 15 15 15 16 17 16 16 16 16 15 14 15
11 10 12 10 10 8 10 10 10 10 9 8 8 11 11 13 14 12 11 10 10 10 11 11 11 12 12 12 11 11 11 11 12 11 11 12 12 13 13 13 14 15 15 14 15 16 16 16 17 17 16 16 16 14
10 9 7 11 9 9 9 9 9 9 8 9 9 11 13 13 12 11 11 10 9 9 11 11 11 10 11 11 12 12 13 13 14 15 15 14 13 14 13 14 13 14 14 15 14 15 15 16 16 16 16 16 16 15
10 7 8 9 10 11 9 8 8 8 8 9 9 11 13 13 12 11 11 11 12 12 12 12 12 12 13 12 13 13 14 14 15 16 17 17 16 15 14 14 15 15 15 15 16 15 14 15 15 16 15 15 16 16
7 6 8 8 10 9 9 7 7 8 8 10 9 11 13 14 13 12 12 11 12 12 12 13 14 13 14 15 15 15 15 14 15 15 16 16 15 15 14 15 15 14 15 15 15 16 16 16 16 17 16 17 17 17
8 10 9 10 9 8 7 8 8 7 8 9 11 11 12 12 14 14 13 12 12 13 14 13 14 15 14 14 14 14 18 15 15 15 16 16 16 16 15 15 15 14 14 15 15 16 16 16 16 17 17 17 17 19
8 8 8 9 9 9 8 9 9 10 10 12 12 12 13 13 17 14 12 12 13 14 14 14 14 13 14 15 14 15 15 14 14 14 14 14 16 16 16 16 15 15 16 16 16 16 16 16 16 17 18 18 18 19

GFSWCAN_con_lsi_027.txt.gz
Lid_Strength_Index
3 3 2 2 2 2 2 2 2 2 1 0 0 0 1 1 3 4 6 4 4 7 6 5 4 6 7 7 11 8 9 9 12 13 13 15 15 13 14 11 13 14 15 16 15 17 18 7 8 12 9 8 7 7
2 2 2 2 2 2 2 2 1 0 0 -0 -0 1 1 1 3 4 8 4 2 6 6 3 3 3 4 4 7 7 8 8 8 11 12 13 14 14 14 16 9 14 12 14 13 13 8 7 8 6 6 7 7 6
2 2 2 2 2 2 1 1 0 0 0 0 -0 1 1 3 3 4 6 3 3 6 6 5 6 4 3 2 2 8 7 6 7 6 9 11 14 14 15 14 13 10 7 12 11 9 8 7 6 5 5 6 5 6
2 2 2 1 1 1 1 0 0 0 0 0 1 2 2 3 3 3 5 3 4 6 10 8 2 4 3 2 3 3 4 4 5 6 10 12 12 9 14 11 12 9 9 9 10 8 7 7 6 5 6 6 7 8
2 1 1 0 0 0 0 0 0 0 0 1 1 2 3 3 3 3 3 3 2 6 10 9 4 3 3 3 3 3 4 6 7 10 13 12 11 11 14 12 14 9 9 12 13 8 8 8 7 6 8 8 8 8
3 2 2 1 0 0 0 0 0 1 2 2 3 3 4 4 3 3 6 3 3 4 7 11 5 5 4 3 4 5 5 6 6 8 11 9 7 10 14 15 8 7 6 6 8 7 7 7 8 7 8 8 8 9
5 4 4 3 2 1 1 1 2 2 3 4 4 4 4 4 4 5 6 4 4 3 7 11 11 6 4 4 6 5 5 6 7 8 12 10 9 8 14 14 8 7 7 7 6 7 8 7 9 8 9 9 9 9
6 5 4 4 4 3 2 3 3 4 4 4 4 4 4 4 4 5 3 4 4 4 5 10 11 9 4 10 11 6 9 8 8 10 10 12 10 13 14 9 8 7 7 7 7 6 8 8 8 9 9 9 10 11
5 5 5 4 4 4 3 3 4 4 4 4 3 4 3 3 4 3 4 4 1 4 10 11 12 13 6 9 10 9 7 13 8 13 12 11 14 14 10 9 9 8 8 8 8 8 8 10 10 10 10 11 12 12
5 5 5 5 5 4 4 3 3 3 3 4 3 4 8 4 4 3 4 6 7 7 8 12 9 11 7 12 12 12 13 12 14 12 10 14 16 11 10 10 9 8 7 8 10 12 11 11 10 10 11 12 12 12
5 5 5 5 5 5 4 4 4 3 3 3 5 8 4 3 4 8 12 11 11 13 11 10 10 11 7 12 13 12 13 13 16 14 14 14 16 12 11 10 9 8 7 8 9 9 9 9 11 12 12 13 14 14
5 5 5 5 4 5 5 4 4 3 3 3 4 3 4 6 9 12 13 13 11 12 13 11 11 9 10 8 13 11 13 14 16 10 13 16 14 11 10 10 9 8 9 9 8 10 10 11 11 12 13 14 14 14
6 6 5 5 5 4 4 4 4 3 3 4 7 10 8 11 12 13 15 13 13 13 12 12 13 12 11 10 12 13 13 14 12 13 15 15 11 11 10 10 10 9 10 10 11 11 11 12 13 13 13 13 14 14
6 6 6 6 6 6 6 5 5 4 5 9 12 13 13 13 14 14 14 14 13 13 13 12 13 13 13 13 13 14 14 13 15 16 16 14 12 11 10 9 10 11 12 13 13 13 14 14 14 14 14 16 15 15
7 7 6 7 6 6 6 6 6 6 9 12 13 15 15 14 13 13 13 13 13 12 12 12 12 11 13 13 13 13 14 15 15 16 14 12 11 11 11 11 12 13 13 13 13 13 14 14 15 14 15 14 15 16
6 7 8 7 6 6 6 6 7 8 11 13 13 14 13 13 14 14 14 14 12 12 12 12 13 13 14 13 14 14 15 17 15 14 13 12 12 11 12 11 11 11 12 12 12 12 13 14 15 15 14 15 16 16
6 9 7 6 6 6 6 8 9 12 13 13 14 13 14 14 14 14 14 13 12 13 14 13 14 15 13 14 15 14 16 15 14 14 13 12 11 12 12 11 11 11 12 12 12 12 13 14 14 15 14 12 12 13
9 8 6 6 6 7 7 9 12 12 14 13 14 14 14 14 14 14 13 12 12 13 13 14 13 15 16 17 17 15 14 14 13 13 13 11 11 11 10 10 10 11 12 12 13 13 13 14 13 13 13 12 12 13
8 7 6 6 6 9 12 11 10 14 14 13 13 13 13 13 13 12 12 11 11 12 12 13 16 17 17 16 16 15 13 13 13 13 12 11 11 11 10 11 12 12 12 12 12 13 13 13 13 13 13 13 15 15
7 7 7 6 6 11 13 13 9 13 14 13 12 13 13 13 13 13 13 13 12 13 15 16 17 16 16 16 15 14 14 12 12 13 13 11 11 11 11 11 12 12 12 12 12 12 13 14 13 13 14 14 16 18
7 8 7 7 9 10 12 13 13 13 13 14 13 14 14 13 13 13 15 14 16 16 16 16 15 15 14 14 14 13 14 14 14 13 12 14 13 12 12 11 10 10 12 12 13 14 15 15 15 14 18 20 20 19
7 5 9 8 11 12 13 11 13 13 12 13 14 13 15 17 15 14 15 16 17 16 15 15 15 15 15 16 15 14 13 13 13 14 14 13 14 14 14 13 14 15 15 14 14 15 15 15 15 16 20 20 17 17
4 5 9 9 14 14 15 10 14 11 15 14 13 14 13 12 12 10 15 14 14 12 12 11 12 12 13 13 13 13 12 12 14 14 14 15 15 15 15 15 14 15 15 14 13 13 14 14 15 16 16 18 21 20
5 9 13 13 13 14 14 15 11 12 14 14 15 15 13 12 12 16 16 14 14 13 12 12 11 13 13 14 15 14 13 13 14 14 14 15 16 16 15 16 15 15 14 13 14 15 15 18 18 18 23 24 25 24
14 14 13 17 13 16 15 12 13 13 14 13 16 14 12 13 16 16 16 15 16 16 15 12 14 14 15 15 15 15 14 13 15 16 15 13 14 15 15 15 15 15 15 17 19 21 22 23 25 25 24 26 24 23
14 12 13 13 13 12 12 14 13 13 13 13 13 11 11 13 17 18 15 15 16 16 15 15 14 16 15 14 15 15 15 12 13 16 15 15 15 16 16 17 18 19 18 22 25 25 24 24 25 24 25 22 20 21
14 13 11 9 10 11 12 11 10 13 15 14 11 11 12 15 19 15 14 13 14 14 13 13 13 13 13 13 13 14 14 14 15 14 14 15 15 16 19 23 24 21 21 22 25 26 26 26 26 26 24 21 23 24
12 11 13 11 11 10 12 12 12 13 12 10 10 15 17 17 18 14 12 11 12 13 12 13 13 13 14 14 14 15 16 15 16 16 14 15 16 18 20 21 20 16 19 20 23 21 23 23 26 27 26 26 27 27
12 10 12 14 11 11 11 10 11 10 10 10 12 15 16 15 14 13 12 11 11 12 14 14 13 14 15 16 17 18 18 19 21 23 25 24 21 20 20 22 21 22 23 23 19 18 20 22 21 24 25 22 22 23
12 10 13 14 13 13 12 9 11 10 10 10 14 14 15 16 14 13 13 13 14 16 16 14 15 16 18 17 19 19 21 23 23 25 27 27 26 22 23 20 22 24 23 25 25 23 20 22 22 25 24 23 20 23
9 11 13 13 15 12 10 8 10 9 10 13 14 17 18 17 17 15 15 14 15 14 15 18 18 19 20 21 23 24 23 23 24 22 24 25 25 25 20 19 19 23 23 19 21 24 25 25 23 23 25 25 23 23
10 11 16 15 13 12 8 10 9 9 12 14 17 18 19 17 21 19 15 15 16 16 16 17 19 20 23 23 23 23 23 24 21 23 24 25 25 25 25 24 25 20 19 19 19 21 21 21 21 21 22 23 25 27
13 13 14 14 14 13 13 14 12 15 15 17 17 16 19 19 21 19 15 16 19 21 21 20 17 18 19 22 23 22 19 20 20 18 16 16 19 20 22 24 23 25 25 25 24 24 23 20 19 20 22 25 27 24

GFSWCAN_con_lsi_030.txt.gz
Lid_Strength_Index
3 3 3 3 4 4 3 3 3 3 3 3 2 2 1 1 1 2 4 3 5 6 6 5 5 6 7 7 10 8 9 9 13 14 14 15 17 14 14 12 13 14 16 18 15 18 17 7 9 12 11 8 8 8
3 3 3 3 3 3 3 3 3 3 3 3 2 2 1 0 1 1 4 3 3 8 7 4 4 4 3 4 7 8 8 8 8 11 12 14 14 15 15 16 10 14 12 13 13 13 8 8 8 7 7 7 8 7
3 3 3 3 3 3 3 3 3 2 2 2 1 1 -0 0 1 2 5 3 3 7 7 6 6 4 3 3 3 8 7 6 7 6 10 11 14 15 15 15 13 10 8 12 11 9 9 7 6 6 6 7 8 8
2 2 2 2 2 2 2 2 2 2 1 1 1 0 -0 1 1 1 4 4 2 5 10 8 3 5 3 2 3 4 4 4 5 8 11 13 13 10 15 12 13 10 9 11 11 9 8 7 7 7 8 8 9 9
2 2 2 2 2 2 2 1 1 1 0 1 0 0 1 1 1 4 4 3 3 5 9 9 4 4 3 3 3 3 4 6 8 11 13 14 13 11 15 13 15 9 10 13 14 8 9 9 8 8 8 9 9 10
1 1 2 1 1 1 1 0 0 0 0 -0 -0 0 1 1 3 4 7 3 1 2 8 13 6 6 4 4 4 5 5 6 7 9 13 10 7 11 14 16 9 8 8 8 8 7 8 9 9 9 10 10 10 10
1 1 1 1 1 0 0 0 0 0 0 0 1 1 1 1 2 5 6 3 3 4 8 12 11 6 5 6 7 6 6 7 7 9 12 11 10 10 15 14 9 8 8 8 8 8 10 9 11 10 10 10 10 10
2 1 0 1 1 1 1 0 0 0 -0 1 1 2 1 2 2 4 3 3 2 5 5 12 11 10 5 10 10 8 10 9 9 10 11 13 10 14 14 10 8 9 9 8 9 8 9 10 10 10 10 11 11 12
3 2 2 1 1 2 1 0 1 1 1 1 1 1 3 3 5 5 3 4 3 4 9 13 13 13 7 10 11 10 10 12 9 13 13 11 14 15 11 10 9 9 10 11 10 10 10 10 11 11 12 12 13 14
4 4 4 3 3 3 3 2 2 1 1 2 2 4 7 4 4 3 5 7 7 7 10 13 10 12 8 12 12 13 12 13 14 13 11 14 14 12 11 10 9 10 10 10 12 12 12 12 12 12 13 13 13 13
5 5 5 5 5 4 3 3 3 3 2 3 5 9 4 4 5 8 12 12 12 13 12 12 12 11 8 12 12 13 13 14 15 13 14 14 15 13 11 10 10 9 9 10 10 10 11 11 13 13 13 14 14 14
3 4 4 4 4 4 4 4 3 4 4 4 5 4 4 6 11 12 14 12 13 13 12 12 11 8 9 8 11 12 13 14 16 11 15 15 13 11 10 10 10 9 10 10 9 10 11 12 12 13 14 15 14 14
5 4 4 4 4 4 4 4 4 4 4 6 8 11 9 12 13 16 15 14 14 13 12 12 12 11 11 9 12 13 14 15 12 13 15 16 12 11 11 11 12 11 11 11 12 12 12 12 13 14 15 15 15 15
6 5 5 5 5 5 5 5 5 5 7 11 13 14 13 14 15 15 14 14 13 13 13 12 13 12 13 13 14 14 14 14 17 19 17 14 12 11 11 11 12 13 13 13 13 13 14 14 15 14 15 15 15 15
6 6 6 6 6 5 5 6 6 7 10 13 12 16 15 14 13 13 13 13 13 12 12 12 13 12 14 14 14 14 15 16 17 17 15 13 12 12 12 13 13 14 14 14 14 14 15 15 15 15 15 15 15 16
6 7 7 6 6 6 6 6 8 10 12 14 13 14 14 14 14 14 13 13 12 13 12 12 13 14 14 14 15 15 16 17 16 15 14 12 13 12 12 13 13 13 14 14 14 14 15 15 15 15 15 16 17 17
7 9 7 6 6 6 6 8 11 13 13 14 15 13 13 13 14 13 14 13 12 13 13 13 15 15 13 16 17 15 17 16 14 14 13 12 13 12 12 13 13 13 13 13 13 14 14 15 15 16 16 16 15 17
10 9 6 6 7 7 8 9 12 13 14 14 15 14 13 13 14 13 13 12 13 13 13 14 13 17 19 19 19 17 14 14 13 13 13 12 12 12 12 12 12 13 13 13 13 13 14 15 15 15 15 15 15 14
8 7 7 6 8 11 12 12 11 15 14 14 13 13 13 13 13 14 13 12 12 12 13 15 18 19 19 18 18 17 16 14 14 13 13 12 12 12 12 12 12 12 13 13 13 14 15 15 16 15 15 15 16 15
7 7 7 7 8 13 13 13 10 13 15 13 13 13 13 13 13 14 15 14 14 15 17 18 19 18 18 17 16 16 16 15 13 14 14 13 12 12 12 12 13 13 14 14 15 16 15 15 15 14 15 15 17 18
9 9 8 10 12 12 13 14 14 13 13 14 14 14 15 14 16 17 17 15 17 17 18 17 18 17 16 16 16 15 16 16 17 15 15 16 15 15 15 15 14 14 15 15 16 16 16 16 15 15 16 17 17 17
9 7 13 11 13 14 14 13 14 14 14 14 15 14 16 17 16 17 16 18 18 17 16 16 17 17 17 17 17 16 15 16 16 17 17 17 18 17 16 15 15 16 16 16 16 16 16 15 15 15 16 17 16 16
7 9 12 13 16 16 16 12 14 12 15 15 14 14 14 14 13 14 18 16 16 15 14 15 16 15 16 15 15 15 15 15 16 16 16 16 16 16 16 16 15 16 16 16 14 15 16 15 16 17 17 17 20 22
7 12 13 17 15 17 16 15 12 14 15 16 16 16 14 13 13 17 18 17 15 15 14 14 14 15 15 16 17 16 15 15 16 16 15 16 17 17 17 17 17 17 16 16 16 17 17 18 18 19 22 26 27 27
15 16 17 19 17 17 15 15 16 16 18 18 17 15 14 16 18 20 19 18 18 18 16 15 16 16 18 18 17 16 15 15 17 17 17 14 16 16 17 17 18 17 17 19 21 22 22 23 25 25 26 30 25 24
15 14 15 13 13 14 14 15 15 15 19 19 15 13 17 20 23 22 17 19 18 18 18 17 18 17 16 16 17 17 16 13 15 17 16 16 16 18 19 20 21 21 20 27 27 29 28 29 30 29 29 24 22 24
15 17 13 11 11 13 15 16 16 18 20 19 18 18 15 22 22 17 14 14 15 17 14 14 14 15 15 15 14 15 15 15 15 16 16 16 17 18 22 26 25 22 23 25 29 29 28 29 30 30 31 29 29 29
13 13 16 13 15 14 19 19 19 18 16 12 14 20 21 23 20 15 13 12 13 13 13 14 14 15 16 17 18 19 20 19 16 16 17 18 18 19 21 21 22 16 23 26 27 24 24 24 23 25 27 29 27 30
13 12 16 16 17 15 15 17 17 13 11 12 17 19 19 16 16 16 14 13 13 14 16 16 16 17 18 18 20 20 20 21 24 26 29 29 27 24 20 19 21 22 25 26 21 19 22 23 22 25 28 28 22 25
17 17 19 22 20 18 16 12 13 13 14 17 16 16 16 17 16 15 15 16 16 18 18 18 18 19 21 25 24 22 24 25 23 26 30 30 27 24 26 26 25 24 24 28 26 23 22 27 26 26 25 25 29 28
15 18 18 18 16 12 10 11 10 15 19 19 19 21 22 19 19 16 16 16 16 18 19 20 22 24 23 24 27 29 27 26 24 24 26 28 29 30 30 29 29 30 27 26 25 24 24 27 27 25 24 23 24 27
19 21 20 19 16 14 13 11 13 14 18 19 22 26 22 24 25 20 17 19 19 19 20 22 24 22 25 28 29 26 23 24 25 25 24 25 25 25 23 25 29 30 30 30 31 29 28 26 24 22 21 22 24 26
19 21 23 21 17 18 20 18 16 18 19 20 21 20 22 22 23 20 17 18 21 25 26 26 25 24 21 22 24 26 24 27 27 22 22 21 23 22 26 28 28 28 27 28 28 31 26 25 26 26 25 24 24 25

GFSWCAN_con_lsi_033.txt.gz
Lid_Strength_Index
3 3 3 3 4 4 4 4 4 4 4 4 3 3 3 2 2 3 3 1 4 7 6 5 5 7 6 7 10 8 9 9 13 13 15 16 17 14 15 13 14 15 17 19 19 20 18 9 9 13 11 9 8 8
4 4 4 4 4 4 4 4 4 4 4 3 3 2 2 2 2 2 3 1 2 6 7 5 5 4 5 5 6 7 8 9 8 11 13 14 16 16 14 16 11 14 13 14 14 14 10 9 9 8 8 8 8 8
3 3 3 3 3 4 4 4 4 4 3 3 3 3 2 2 1 1 2 2 3 6 8 7 6 4 3 3 2 8 7 6 7 7 10 12 15 15 16 15 14 11 9 12 12 10 9 8 7 7 7 7 7 7
3 3 3 3 3 3 4 4 4 3 3 3 3 2 2 2 0 0 2 2 3 4 9 7 2 4 3 3 3 4 5 4 6 8 11 13 14 11 15 13 14 11 9 10 11 10 8 8 9 9 10 9 10 10
2 3 3 3 3 3 3 3 3 3 3 3 3 2 2 0 -0 -0 1 2 2 5 9 8 6 4 3 4 3 4 4 6 9 11 14 13 12 11 16 14 16 10 10 12 13 8 9 9 9 9 9 10 10 10
2 2 2 3 2 2 3 3 3 3 3 2 2 2 0 -0 0 3 6 3 2 2 7 13 6 6 5 5 4 5 5 7 8 10 13 11 8 11 14 16 10 9 8 8 9 8 9 10 10 9 10 10 10 11
2 2 2 2 2 2 2 2 2 2 2 1 1 0 -0 0 3 7 7 4 2 4 8 12 14 7 4 6 7 6 6 7 7 9 13 11 10 11 17 15 9 8 9 9 9 10 11 11 11 10 10 11 11 12
2 2 2 1 1 1 1 1 1 1 1 1 0 -0 0 1 2 3 1 2 2 5 5 11 13 10 6 12 10 7 10 8 8 10 12 14 11 14 14 10 9 9 9 9 10 9 10 11 11 11 11 12 13 13
2 2 1 1 1 1 0 0 0 0 0 0 -0 0 1 3 5 4 2 2 1 4 9 12 13 14 8 11 11 11 10 12 9 12 12 11 14 14 12 11 10 9 10 11 11 11 11 12 12 12 13 13 14 14
2 2 2 2 1 1 0 0 0 0 0 1 1 4 7 4 2 3 4 6 6 6 8 13 10 12 10 13 13 12 12 13 14 13 11 14 14 12 12 10 10 11 11 11 13 14 13 14 14 13 13 13 13 15
2 2 2 1 1 1 1 1 1 1 1 3 6 7 3 3 5 8 10 11 10 13 11 11 11 11 9 12 13 13 14 15 15 14 13 15 15 13 12 11 10 10 10 10 10 11 12 12 13 14 14 14 15 15
3 3 3 3 2 2 2 2 2 2 4 4 4 3 4 6 9 13 13 12 12 13 13 12 12 10 11 9 12 13 14 14 16 12 15 15 14 12 12 11 10 10 11 11 11 11 12 12 12 13 14 15 15 15
5 4 3 3 4 5 4 3 3 2 2 4 8 11 10 13 14 14 15 14 14 14 13 13 13 13 12 11 14 15 16 17 14 14 15 15 11 10 11 11 12 11 11 12 12 12 13 14 14 15 15 15 15 15
4 5 4 4 4 4 4 3 3 4 5 11 12 15 14 16 15 15 15 14 14 13 13 12 13 13 14 14 14 16 14 13 15 16 18 14 12 12 12 12 12 13 14 14 14 14 14 15 16 16 15 15 16 16
4 5 5 4 5 4 4 4 5 7 10 13 13 16 15 14 13 13 13 13 13 12 13 12 12 11 13 13 14 14 15 16 16 18 15 14 13 13 13 13 14 14 15 14 14 15 15 15 16 16 16 15 16 17
6 6 7 5 5 5 6 6 8 9 12 13 13 14 14 14 14 14 13 13 12 12 12 12 13 14 15 14 15 16 16 18 17 16 14 13 13 13 14 14 14 14 14 14 14 14 15 15 15 16 16 17 18 18
7 8 7 6 6 6 6 8 10 12 13 15 14 13 13 14 14 14 14 13 12 12 14 13 15 16 14 17 18 16 18 17 15 14 14 13 13 14 13 13 14 14 14 14 14 15 15 16 16 17 17 16 17 18
10 8 6 6 7 7 8 10 13 14 15 14 16 15 15 15 16 15 14 13 13 13 14 16 14 19 20 21 21 19 17 15 14 14 14 13 13 13 13 13 12 13 13 14 14 15 16 16 16 16 16 16 16 16
9 9 7 7 8 10 12 12 11 15 15 14 13 13 14 15 15 15 15 14 13 13 14 16 19 20 20 19 19 18 18 17 14 14 14 13 13 13 12 12 13 13 14 14 15 15 16 16 16 16 16 16 17 17
8 8 8 8 8 13 14 13 11 13 14 14 13 16 15 16 15 16 16 15 15 16 18 20 21 20 19 19 17 18 18 16 14 15 17 17 15 14 15 14 15 15 16 16 16 16 16 16 16 16 16 16 16 17
10 9 9 11 12 12 14 14 13 13 13 14 14 14 15 15 17 18 18 16 17 18 20 19 19 18 17 17 17 17 17 17 19 17 17 18 17 17 17 16 16 16 17 17 18 18 17 17 16 16 16 17 16 15
11 9 15 13 15 15 15 14 14 14 14 15 15 15 17 18 19 18 17 19 19 19 18 18 18 18 18 18 18 17 17 17 17 18 18 18 19 19 19 18 18 18 18 17 17 18 17 16 16 16 17 17 16 16
9 11 14 14 17 17 18 14 16 14 17 17 15 16 17 18 16 15 19 17 18 16 16 17 18 18 18 18 18 18 17 18 19 19 19 19 18 18 18 18 17 17 18 17 16 17 17 17 17 19 19 19 20 21
9 15 17 19 17 21 18 18 14 15 17 17 17 18 15 16 16 19 20 18 17 16 16 16 16 17 17 17 18 18 17 16 18 18 17 17 19 19 19 19 19 19 18 18 18 20 20 21 20 21 23 26 26 27
15 17 18 20 19 18 21 21 20 18 22 21 20 16 15 18 22 22 21 20 19 19 19 17 17 18 20 19 18 17 16 17 18 19 18 16 18 18 18 19 19 19 19 21 24 25 26 27 28 29 29 31 26 27
19 15 16 15 18 18 19 22 22 18 22 21 18 15 20 23 25 24 19 21 20 21 20 19 21 19 18 17 18 18 17 16 17 19 18 18 18 22 23 23 23 22 23 29 30 30 29 30 31 29 30 28 26 28
19 19 14 13 15 17 19 20 19 20 21 17 19 23 22 26 25 18 15 15 16 17 14 15 15 16 17 17 17 17 17 17 17 18 18 18 19 20 24 26 25 22 24 27 29 28 27 28 30 28 29 33 32 31
14 17 20 20 19 19 24 24 23 21 21 15 19 25 27 26 22 16 16 13 14 14 15 16 17 18 20 20 21 20 18 19 19 20 21 21 21 21 22 21 21 18 23 24 27 31 31 26 27 26 28 27 26 30
17 18 18 22 22 20 17 21 21 16 14 16 23 22 22 18 18 18 15 14 15 16 18 20 19 20 20 21 22 23 23 25 26 28 31 32 30 26 26 29 28 28 29 29 23 19 19 22 25 27 25 26 24 26
18 21 21 26 23 21 20 20 19 19 18 20 18 17 18 19 17 15 16 17 18 20 22 23 23 23 27 26 26 23 24 27 26 27 31 30 27 26 31 32 31 31 32 31 30 27 22 27 26 28 28 27 27 30
21 22 22 21 19 16 17 18 19 21 24 25 25 24 24 20 20 17 17 19 19 21 21 23 25 30 28 29 31 30 29 26 26 26 27 29 29 30 27 26 28 32 32 33 34 33 31 30 32 31 28 26 25 26
23 27 22 21 19 15 14 17 18 21 23 25 24 26 24 26 27 21 19 22 23 26 26 28 28 25 27 28 30 29 26 28 29 30 30 30 30 30 32 32 33 32 32 33 34 34 32 31 31 30 32 30 28 26
24 25 26 23 20 20 21 18 17 20 21 22 23 23 24 25 26 22 20 24 25 27 28 29 29 27 23 25 26 29 27 30 31 26 25 24 26 26 31 33 35 34 33 34 34 34 32 31 31 33 32 28 27 26

GFSWCAN_con_lsi_036.txt.gz
Lid_Strength_Index
1 1 1 1 1 1 1 1 2 2 3 3 3 3 3 3 2 4 6 3 4 7 7 5 5 7 7 8 10 8 9 9 12 12 14 15 18 14 15 13 14 14 16 19 19 21 18 11 11 13 11 10 9 9
1 1 1 2 2 2 2 2 3 3 3 3 3 3 3 3 3 4 7 4 2 5 5 3 5 4 5 5 6 7 8 9 8 11 13 14 17 18 15 16 12 14 13 14 14 14 11 10 10 9 9 9 9 9
4 3 3 3 3 3 3 3 3 3 3 3 3 3 3 3 3 4 5 4 3 5 6 6 7 4 4 4 3 7 7 6 7 7 10 12 14 14 16 15 13 12 11 14 13 11 10 9 8 8 8 9 8 8
4 4 4 3 3 4 4 4 4 4 4 4 4 3 3 3 3 3 4 2 2 5 9 7 2 4 2 3 3 3 5 5 6 7 11 13 14 11 15 12 13 12 11 12 13 10 9 8 8 9 9 9 9 10
3 3 3 3 4 4 4 4 4 4 4 4 4 3 3 2 2 3 3 1 1 5 9 8 6 4 4 4 4 4 4 6 9 11 14 13 12 12 15 12 15 11 11 13 13 10 9 9 9 9 9 10 10 10
3 3 3 3 3 4 4 4 4 4 4 4 3 2 2 2 2 3 6 1 0 2 6 11 6 6 4 4 5 5 5 6 8 10 12 10 8 10 13 14 10 9 9 9 9 8 9 10 10 10 11 11 11 11
3 3 3 3 3 3 3 4 4 3 3 3 2 2 2 2 3 5 6 4 0 1 6 11 12 8 4 5 7 7 6 7 7 9 12 11 10 10 16 14 10 9 9 9 10 10 11 10 11 11 11 12 11 12
2 2 3 3 3 3 3 3 3 3 3 3 3 2 2 2 1 3 2 2 1 4 5 10 11 10 5 9 9 7 10 9 8 10 12 13 11 15 14 11 10 10 10 10 11 10 10 11 11 12 12 12 13 14
2 2 2 2 2 3 2 2 2 3 2 2 2 2 3 4 5 5 1 1 1 4 9 9 12 13 7 9 9 11 11 13 9 13 12 12 14 14 13 11 11 11 10 12 12 12 11 12 13 13 13 13 14 14
2 2 2 2 2 2 2 2 3 2 2 2 2 5 8 5 1 1 3 5 6 5 6 11 9 13 8 12 11 12 12 13 15 13 11 14 14 13 12 11 11 11 11 12 14 14 14 14 14 14 14 14 14 14
2 1 1 1 1 1 1 1 1 1 1 3 5 6 3 1 3 6 11 10 9 11 10 11 11 11 8 13 13 12 13 14 14 13 12 14 14 13 11 11 10 11 11 10 11 12 12 13 14 15 15 15 15 14
1 1 1 1 1 1 1 1 0 1 4 4 3 3 3 7 10 11 12 12 12 12 11 11 10 9 11 9 13 13 14 14 15 12 13 14 14 13 12 12 12 12 12 12 11 12 13 13 13 14 15 15 15 16
4 3 2 3 3 3 2 2 2 2 2 3 6 9 10 12 13 15 15 14 13 13 12 12 13 12 12 11 14 14 14 15 13 14 15 15 13 13 13 12 13 12 12 12 12 12 13 14 14 15 15 16 16 16
3 3 3 4 3 3 3 4 3 3 5 10 11 15 14 15 15 15 14 14 13 14 13 13 13 13 14 13 14 15 15 14 16 18 18 15 14 14 13 13 13 14 14 14 14 14 15 16 16 16 16 16 16 16
4 3 4 4 4 4 4 4 5 6 10 12 13 16 15 13 13 13 14 13 13 12 13 13 13 12 14 14 15 15 16 18 17 18 16 14 13 13 13 14 14 14 15 15 15 16 16 16 16 17 16 16 16 17
5 5 5 5 4 5 6 6 7 9 12 13 14 15 14 15 15 15 14 14 12 13 12 12 13 13 14 16 18 20 18 21 18 16 14 14 14 14 14 14 14 14 14 14 15 15 16 16 17 17 17 17 18 18
6 7 5 5 6 6 6 8 11 13 14 15 15 15 15 15 16 16 15 14 12 12 14 14 17 18 15 18 21 19 20 18 16 15 14 14 14 15 14 14 15 14 15 15 15 15 16 16 16 17 18 18 17 18
9 7 6 6 6 7 8 9 13 13 14 14 16 16 16 16 17 17 16 14 13 13 15 17 16 21 23 23 23 20 19 18 15 15 14 14 14 13 14 14 14 15 15 15 15 16 16 16 16 16 17 17 17 17
8 8 6 6 7 9 12 12 12 16 16 15 15 15 16 16 16 16 16 15 14 14 16 18 21 22 22 20 20 20 19 19 16 17 17 16 14 14 14 14 14 15 15 15 16 17 17 16 17 17 16 17 18 18
8 8 7 6 7 12 13 13 11 14 15 16 16 17 17 18 17 17 17 16 16 17 20 21 22 21 21 20 19 19 19 18 16 18 19 19 17 17 17 17 17 17 17 17 17 17 18 18 18 17 17 17 18 19
10 11 10 11 12 12 13 14 13 13 13 15 15 16 18 17 19 20 19 17 19 20 21 20 20 19 18 19 18 18 19 19 20 19 19 21 19 18 18 18 18 19 19 20 20 20 19 19 19 18 18 18 17 16
12 10 15 13 14 14 15 15 14 14 14 16 16 16 18 22 22 20 19 21 21 20 19 20 19 19 20 20 19 19 18 19 19 20 20 20 22 22 21 20 20 20 20 20 20 21 20 19 18 18 19 18 17 18
11 12 14 14 17 18 19 15 17 15 19 19 17 17 19 20 18 17 21 19 19 17 17 17 18 18 19 19 19 19 19 19 20 21 21 22 22 22 22 22 21 21 21 20 19 20 21 20 20 21 21 20 22 23
10 15 18 20 18 22 20 19 15 16 18 19 19 20 17 21 18 21 21 19 18 17 17 17 16 18 18 18 19 19 18 18 19 19 19 20 21 21 21 21 21 21 21 20 21 23 23 24 24 23 26 28 28 30
15 17 19 21 20 20 23 23 22 19 23 23 21 18 20 20 24 24 23 21 20 21 20 18 18 19 21 20 20 19 18 18 20 21 20 19 21 20 21 21 21 21 21 24 27 29 30 33 33 34 31 33 29 29
18 16 16 22 20 20 22 23 23 23 24 22 19 17 22 25 27 25 20 23 21 22 21 21 22 20 19 18 19 19 18 17 18 20 20 19 20 25 26 25 24 22 23 29 31 31 30 31 33 31 31 29 30 33
18 19 15 14 17 18 21 23 21 22 22 19 23 26 26 30 28 21 17 18 18 18 17 18 18 19 19 18 18 18 18 18 19 19 19 20 20 21 24 27 26 23 22 26 28 29 29 29 30 31 32 35 35 33
14 18 22 22 21 20 24 25 25 23 22 17 23 29 31 30 26 20 17 16 16 17 17 18 19 20 21 21 20 20 20 22 21 22 23 23 24 26 27 28 27 22 29 32 31 31 31 29 28 29 30 30 28 31
20 22 20 24 23 21 20 23 23 19 18 23 29 27 25 21 21 21 17 16 16 18 21 21 21 23 24 24 25 25 26 28 28 30 33 33 32 27 27 30 32 33 35 32 25 22 22 24 25 28 29 29 27 26
21 23 23 26 24 23 23 24 26 27 22 24 21 20 21 21 19 17 18 19 20 24 29 30 31 28 30 29 29 26 27 31 31 29 32 32 29 28 30 32 32 32 33 35 35 33 28 33 31 34 34 32 33 31
23 23 23 23 21 22 23 26 28 27 28 27 28 28 27 24 22 20 21 23 25 27 26 28 28 32 30 31 32 32 30 30 32 30 30 32 32 33 34 34 34 36 36 37 37 37 36 36 38 37 37 35 33 32
25 27 24 24 20 20 21 20 27 26 27 28 27 28 29 29 29 25 22 25 28 28 29 32 30 27 29 30 33 34 30 32 32 32 32 31 31 32 34 35 37 38 37 37 38 38 37 36 36 37 39 37 35 34
28 29 28 25 21 20 20 19 21 23 25 25 26 26 27 28 28 24 22 28 28 29 30 31 32 32 28 30 31 33 29 33 34 27 26 26 28 29 34 36 37 37 36 37 38 38 36 35 36 37 37 37 36 35

GFSWCAN_con_lsi_039.txt.gz
Lid_Strength_Index
1 1 1 1 1 1 1 1 1 0 1 1 2 2 2 2 2 4 6 3 4 7 7 5 5 7 6 7 10 8 8 8 9 12 13 13 14 12 13 11 13 13 14 15 15 15 16 9 10 11 8 8 7 7
1 1 1 1 1 1 1 1 1 1 1 2 2 2 2 2 2 3 7 3 2 5 6 3 3 3 4 4 6 6 7 8 8 10 11 12 13 13 12 15 11 14 11 13 12 13 8 9 7 7 7 6 7 6
2 2 1 1 1 1 1 1 1 1 2 2 2 2 2 2 2 4 5 5 4 6 7 6 6 3 2 3 2 7 6 5 7 5 9 10 13 12 14 13 12 11 10 11 10 9 9 8 8 7 7 6 6 6
3 2 2 1 1 1 1 1 1 2 2 2 3 3 2 2 2 3 5 4 4 4 10 7 2 4 1 2 2 2 4 4 5 5 8 10 12 8 11 10 11 10 10 11 11 10 9 8 7 7 7 6 7 7
3 3 3 2 2 2 2 2 2 2 3 3 2 2 2 2 3 4 4 3 3 5 9 8 5 4 3 3 3 3 4 5 6 8 11 11 10 10 12 11 12 9 10 11 12 8 8 8 7 8 7 7 7 8
3 3 3 3 3 3 4 3 3 3 3 3 3 3 3 3 3 5 8 4 2 1 7 10 4 6 3 3 4 4 4 5 6 8 10 9 7 9 12 12 8 8 8 7 8 8 10 10 8 8 8 8 8 9
3 3 3 4 4 4 4 4 4 4 4 4 3 3 3 3 4 7 7 4 3 1 6 10 9 5 4 4 5 5 4 5 6 7 9 8 8 8 13 12 8 8 8 8 9 9 10 10 10 10 10 11 10 10
3 3 3 4 4 4 4 4 4 4 4 4 3 3 3 3 3 5 3 1 1 3 5 10 11 9 4 8 9 6 7 7 7 8 9 9 9 12 13 10 9 9 9 9 9 10 9 10 11 12 12 12 13 13
3 3 3 3 4 4 4 4 4 4 3 3 3 3 3 4 6 5 1 1 1 4 9 11 13 13 6 8 8 9 9 11 7 11 10 9 12 12 10 10 10 10 10 11 11 11 11 11 12 13 12 13 13 14
2 2 3 3 3 3 3 3 3 3 3 3 4 6 10 6 2 1 3 5 5 5 6 10 8 11 7 10 11 11 11 12 13 11 10 11 12 11 11 11 10 10 11 11 13 13 13 13 13 13 13 13 13 14
2 2 2 2 3 3 3 3 3 2 2 4 7 7 4 1 3 5 9 9 8 10 8 9 9 10 7 11 11 11 13 13 14 12 12 12 12 12 11 11 11 10 10 10 10 11 11 12 13 14 14 14 14 14
2 2 2 2 2 2 2 2 2 3 4 3 3 2 2 5 8 10 11 10 10 12 10 9 9 8 10 8 12 11 13 14 15 11 13 14 13 11 11 11 11 11 11 12 11 13 13 13 13 14 15 15 15 16
2 2 2 2 1 2 2 2 2 2 1 3 6 9 8 10 12 13 14 12 12 11 11 10 11 11 11 10 13 13 14 14 12 13 15 14 12 12 12 12 13 12 12 13 13 14 14 14 14 15 16 16 15 16
3 3 3 3 3 3 3 3 3 3 5 10 10 12 12 14 14 14 14 14 13 12 12 12 13 12 13 13 14 14 14 14 15 17 17 15 14 14 14 14 14 14 14 15 15 15 16 15 16 15 15 15 16 17
5 4 4 4 4 4 4 4 4 6 9 12 12 15 14 13 13 13 13 13 13 12 13 12 13 12 13 13 14 14 15 18 18 19 17 15 14 14 15 15 15 15 16 16 16 16 16 16 16 16 16 16 16 17
5 5 6 4 4 4 4 5 6 8 11 13 15 17 15 16 17 16 16 15 13 13 12 12 13 14 16 17 18 20 19 22 20 19 16 14 15 16 15 15 14 14 15 15 15 15 16 17 17 17 17 17 18 18
6 7 5 5 5 5 6 8 10 13 13 15 17 16 17 17 18 17 17 16 14 12 15 15 19 20 16 19 21 20 22 20 20 18 15 15 15 15 15 15 15 15 15 15 16 16 17 17 17 17 18 18 17 18
7 6 6 6 6 6 8 9 13 14 16 16 18 18 17 18 19 18 17 15 14 14 15 18 16 21 23 23 23 21 20 19 16 18 18 16 14 14 14 15 15 15 16 16 16 16 16 17 17 18 18 17 17 17
6 6 6 6 7 9 12 12 12 17 17 16 16 16 18 19 17 17 16 16 15 15 16 18 22 23 23 21 22 21 20 20 18 19 19 18 17 17 16 16 17 17 17 17 17 17 17 17 17 17 17 17 18 18
6 7 6 7 7 12 13 13 11 14 17 16 16 18 19 19 19 18 18 17 17 18 21 22 23 22 21 21 19 20 20 18 17 20 20 19 18 18 19 18 18 18 18 19 19 18 19 19 19 18 18 17 18 18
10 10 8 10 12 12 14 13 13 13 14 15 15 17 19 19 20 21 21 18 20 21 23 21 21 20 19 19 18 19 20 20 21 20 21 22 20 20 20 19 19 19 20 20 21 21 21 21 20 19 19 19 18 18
12 11 14 13 14 14 15 15 14 15 16 17 17 17 20 22 24 21 19 22 22 21 20 20 20 20 20 20 20 18 19 19 20 21 21 21 23 23 23 21 21 22 22 22 22 22 22 22 21 20 20 20 18 18
11 13 15 16 18 18 19 15 18 16 20 20 18 18 21 22 19 17 22 20 20 18 17 17 17 17 18 17 18 18 18 19 21 21 22 22 22 23 23 23 22 22 23 22 21 22 23 22 22 22 21 21 21 20
12 16 19 20 18 22 20 20 15 16 18 18 18 19 18 20 18 21 22 20 19 18 18 18 17 18 18 19 20 20 19 19 20 21 20 21 22 22 21 21 21 21 21 21 22 22 23 24 24 23 24 22 23 22
15 17 18 21 20 20 23 23 21 19 21 20 20 19 22 20 24 24 23 21 20 21 20 19 19 19 21 21 21 20 20 20 21 22 21 20 20 20 20 20 21 21 20 21 23 22 23 23 24 23 23 24 23 24
19 18 18 22 21 19 20 22 22 23 22 22 21 20 23 25 26 25 21 21 21 20 21 21 21 20 20 19 20 20 19 17 18 20 20 19 20 21 22 22 22 21 21 23 22 23 23 23 24 24 23 23 27 25
20 21 16 15 18 19 21 22 21 22 22 21 23 26 27 30 28 21 19 19 20 21 20 20 20 19 19 18 18 19 18 18 19 19 19 19 20 20 21 23 23 22 22 23 23 24 24 24 24 24 24 23 24 25
17 18 22 23 21 21 24 26 26 24 23 19 24 29 31 29 25 21 19 19 19 19 20 20 20 20 20 20 20 19 20 20 20 20 20 20 22 22 23 24 24 24 25 25 23 24 23 23 23 23 24 24 25 24
22 24 21 26 24 23 22 25 24 21 20 24 28 28 25 22 22 22 18 17 17 19 22 22 22 24 23 22 24 24 23 22 22 25 26 25 25 23 23 25 25 25 26 25 23 21 20 21 22 23 25 25 25 26
22 24 23 26 26 25 27 27 28 29 23 24 21 21 22 22 20 18 19 19 21 23 26 27 27 24 24 23 24 23 25 26 25 24 25 25 24 24 26 26 25 25 27 26 26 25 25 26 24 25 27 26 26 26
23 24 23 23 22 25 26 29 32 29 29 28 29 28 26 23 21 20 20 22 25 27 24 25 25 28 25 26 25 26 25 25 30 27 26 26 26 26 25 26 27 28 28 28 28 28 28 27 28 28 27 28 28 28
27 29 25 24 23 24 23 26 30 28 30 28 29 29 28 27 29 24 22 25 25 25 27 28 27 24 26 27 29 28 29 27 26 27 28 26 25 25 25 26 28 28 27 28 28 29 29 28 28 27 28 28 29 29
30 30 29 25 24 24 23 23 24 25 27 27 27 28 30 26 26 23 23 28 24 24 26 26 26 27 28 29 27 27 27 27 30 27 26 25 26 26 26 27 28 28 28 27 28 29 28 28 27 27 27 29 29 29

GFSWCAN_con_lsi_042.txt.gz
Lid_Strength_Index
1 1 1 1 1 1 1 1 1 1 0 0 0 1 1 1 1 3 3 0 2 5 5 4 4 6 5 6 9 6 7 7 8 11 11 11 13 11 10 9 12 12 13 14 12 16 16 7 8 9 6 5 5 5
1 1 1 1 1 1 1 1 1 1 1 1 1 1 1 1 1 2 5 1 0 3 5 2 2 2 3 3 5 5 6 6 6 9 9 8 12 12 11 14 8 13 10 11 10 11 6 6 5 4 4 5 5 4
1 1 1 1 1 1 1 1 1 1 0 1 1 1 1 1 2 2 3 2 2 4 5 5 5 2 1 1 1 6 5 4 5 4 7 8 12 10 14 12 10 9 8 11 10 7 7 5 4 5 5 4 4 3
1 1 1 1 1 1 1 1 1 1 1 1 1 1 1 1 2 2 3 1 2 4 7 6 1 3 1 1 1 2 3 3 3 4 7 9 11 7 10 8 10 7 8 9 9 7 6 6 5 4 5 5 5 4
2 1 1 1 1 1 1 1 1 1 1 1 1 1 1 2 2 2 2 2 2 4 7 6 3 2 2 2 3 2 3 4 5 7 9 9 6 8 7 8 10 7 8 10 11 6 6 5 4 4 5 5 5 4
3 2 2 2 2 1 1 1 2 2 2 2 1 2 2 3 3 5 8 3 1 1 5 10 4 4 3 3 4 4 4 4 5 6 7 6 6 7 11 11 6 5 5 5 6 6 5 6 6 4 5 5 4 4
3 3 3 2 2 2 2 2 2 2 2 2 3 3 3 3 3 6 7 4 2 1 5 8 8 4 3 4 4 5 4 5 5 6 7 7 8 7 10 12 6 5 5 5 6 7 7 7 7 7 6 6 6 5
4 3 3 3 3 3 3 3 3 3 3 3 3 3 3 3 3 4 2 2 0 3 5 9 9 8 4 7 9 5 7 6 6 7 7 8 7 8 11 7 6 5 6 6 6 7 8 7 7 8 8 8 9 9
4 4 4 4 4 4 4 4 4 4 3 3 3 3 3 4 6 6 2 2 1 3 8 9 11 12 5 7 7 8 6 10 6 9 8 8 10 12 8 7 7 7 7 7 8 8 8 8 9 10 10 10 10 11
4 4 4 4 4 4 4 4 4 3 3 3 4 6 8 5 2 1 3 7 5 4 5 9 7 12 7 8 9 10 10 11 13 10 7 11 10 7 8 7 7 8 8 8 10 10 10 11 11 11 10 10 10 10
3 4 4 4 4 4 4 3 3 3 3 4 7 7 3 2 2 4 8 9 8 10 7 8 8 10 6 10 10 7 11 12 14 12 11 12 12 10 9 8 8 8 8 8 8 8 9 9 10 11 11 10 10 11
2 3 3 3 3 3 3 3 3 3 3 4 3 2 2 4 6 9 10 9 10 11 8 9 9 8 8 5 8 8 11 12 15 10 13 14 12 11 10 9 9 8 8 9 9 9 10 10 10 11 11 13 14 15
2 2 3 3 3 3 2 2 2 2 2 1 3 6 7 8 12 13 14 12 12 10 9 10 10 8 6 6 9 11 13 13 12 13 16 16 13 12 12 12 12 12 11 12 12 12 13 13 13 14 15 15 15 16
2 2 2 2 3 3 3 3 3 3 4 8 9 12 11 12 12 12 12 10 9 11 11 10 10 10 11 12 12 13 13 12 14 16 18 16 14 14 13 13 13 15 15 15 15 15 15 16 16 16 16 16 16 16
3 3 3 3 4 4 4 4 5 5 8 11 10 13 13 12 13 13 13 11 11 11 11 10 11 11 13 13 14 13 15 17 17 19 17 16 14 14 14 15 15 16 16 16 16 16 16 16 16 16 15 15 15 16
4 4 4 4 4 4 4 4 5 7 9 13 15 16 15 15 17 16 16 15 13 14 13 12 13 14 16 16 18 19 19 22 20 19 17 15 15 15 15 15 15 16 16 16 16 16 15 16 16 17 16 16 16 16
5 6 4 5 5 6 5 6 8 11 12 14 16 16 17 17 18 17 16 16 14 12 14 15 18 19 15 18 21 19 21 20 19 18 18 16 16 15 15 15 15 15 15 15 15 16 16 16 15 16 17 17 17 17
6 5 5 5 5 6 7 8 11 14 16 16 18 17 17 17 18 17 16 14 13 14 15 18 16 20 21 21 21 20 19 18 17 18 19 17 17 17 16 16 16 15 16 15 15 15 16 16 17 17 17 17 17 17
5 5 6 6 6 7 10 10 11 17 17 16 17 16 17 17 16 16 15 14 14 14 15 17 20 22 22 20 20 19 18 17 18 18 18 18 17 17 17 17 17 17 17 17 17 18 18 17 17 16 16 16 17 16
6 6 7 7 7 10 11 11 10 14 17 16 15 17 17 17 16 16 16 15 16 17 20 21 22 21 20 19 19 19 18 16 16 19 20 19 18 18 18 18 18 18 18 18 19 18 18 18 18 18 17 17 17 17
7 8 8 8 10 10 12 12 12 13 13 14 13 15 16 15 17 18 18 16 18 20 21 20 20 19 18 18 18 18 19 19 19 18 19 20 19 18 19 19 18 18 19 19 20 20 20 20 19 18 18 18 18 17
9 10 10 10 11 12 12 12 11 11 12 13 13 14 17 18 18 18 17 19 21 20 18 19 18 18 19 19 19 18 18 18 18 19 19 19 20 20 20 19 19 20 20 20 20 21 21 21 19 19 19 18 18 18
10 11 12 13 13 13 15 11 14 13 14 14 12 15 16 16 16 14 19 18 18 17 15 16 16 16 17 16 16 17 16 16 17 17 18 18 18 18 18 19 18 19 19 19 18 19 20 20 19 18 18 17 17 17
11 14 15 14 12 15 13 14 12 13 13 13 14 16 17 16 15 17 20 19 18 16 16 16 15 16 16 17 18 18 17 16 17 17 16 17 18 18 18 18 18 17 17 17 17 18 18 18 18 17 18 18 18 18
14 15 13 15 13 14 15 15 15 14 15 15 16 16 17 14 18 19 20 18 18 17 17 16 16 16 17 17 17 18 17 16 17 18 17 16 16 16 17 17 17 18 17 17 18 18 18 18 18 18 18 19 20 20
17 15 15 14 15 14 15 16 16 16 16 17 17 17 16 18 20 21 19 17 17 17 17 17 17 17 17 16 17 17 17 15 15 17 17 16 16 16 17 18 17 18 17 18 18 18 19 19 19 20 19 19 21 20
17 16 14 14 13 14 15 15 14 16 18 18 17 19 18 22 22 20 17 16 17 18 17 17 15 16 16 17 16 16 15 16 16 17 16 17 17 17 18 19 20 19 18 18 19 19 20 20 20 20 20 19 19 20
15 15 18 17 16 15 18 18 18 19 18 17 17 23 23 22 21 18 17 17 17 17 17 17 16 15 15 16 15 15 16 16 17 16 16 16 17 17 18 18 19 20 19 19 19 18 18 19 19 19 20 20 20 20
17 16 16 22 19 19 20 19 19 19 19 18 20 22 22 20 19 17 17 16 16 15 16 17 18 17 17 17 17 16 16 15 18 21 21 19 18 18 18 18 18 18 18 19 19 19 18 18 19 20 21 21 20 19
17 16 17 20 22 21 20 20 20 20 19 18 18 20 20 19 18 16 15 15 15 16 17 16 17 15 16 15 17 18 18 18 19 19 19 20 19 19 18 19 19 19 19 19 20 19 20 20 19 19 20 20 20 21
17 14 17 18 20 19 19 19 19 18 19 19 19 20 21 19 17 17 17 17 17 17 16 17 17 16 17 17 17 18 19 18 21 21 20 19 18 18 18 19 19 19 20 20 21 21 21 21 20 21 21 22 22 22
17 18 18 20 20 19 18 17 17 18 18 18 20 20 20 18 19 18 17 16 16 16 19 17 16 17 18 18 19 19 24 19 19 20 21 19 18 18 19 19 20 20 20 21 21 21 22 22 21 21 21 21 22 22
18 17 17 18 19 20 18 17 18 19 18 18 19 19 18 18 20 17 18 18 16 16 16 17 17 17 19 19 19 19 20 19 22 23 23 22 23 21 21 19 20 20 21 21 21 21 22 22 21 22 22 22 22 22

GFSWCAN_con_lsi_045.txt.gz
Lid_Strength_Index
1 1 1 1 1 1 1 1 1 1 1 0 1 1 1 1 0 2 3 -0 3 5 5 3 3 6 5 5 8 6 7 7 8 11 11 10 11 9 9 10 11 13 13 14 13 15 17 6 6 9 6 5 4 4
1 0 0 1 1 1 1 1 1 1 1 1 1 1 1 1 1 1 3 0 -0 4 5 2 2 2 3 3 4 5 6 7 6 8 8 8 10 11 9 13 8 13 10 12 10 10 6 5 6 4 4 4 4 4
1 1 1 1 1 1 1 1 1 1 1 0 1 1 1 0 1 1 2 1 2 5 5 4 4 2 1 1 1 7 5 4 5 3 6 7 10 9 13 12 9 7 7 10 9 7 6 6 5 4 4 4 3 3
1 1 1 1 1 1 1 1 1 1 0 0 1 1 0 1 1 1 2 1 2 4 8 6 1 2 0 1 1 2 3 3 2 4 6 8 10 5 10 8 9 7 7 8 8 6 6 5 5 4 4 3 3 3
1 1 1 1 1 1 1 1 1 1 1 0 0 0 1 1 1 1 1 0 0 4 7 6 2 2 1 2 3 2 3 4 5 7 8 9 6 6 6 7 9 6 7 10 10 6 6 6 4 3 4 4 4 4
2 1 1 1 1 1 1 1 1 2 1 1 1 1 1 1 2 3 7 2 1 2 4 9 3 3 2 2 3 4 3 4 4 5 7 6 4 6 10 10 6 5 4 5 6 5 5 4 4 3 4 3 3 3
2 2 1 2 2 1 1 1 1 1 1 2 2 2 2 2 2 5 6 3 2 1 4 7 8 4 2 3 4 4 3 4 5 7 7 6 6 6 9 11 6 5 5 5 4 4 6 5 5 4 4 3 4 3
3 3 2 2 2 2 2 2 2 2 2 2 2 2 3 3 3 3 1 2 1 4 3 7 8 7 3 6 7 4 6 5 5 7 6 7 6 7 10 7 5 5 5 5 4 4 4 4 5 5 5 5 6 5
4 3 3 3 3 3 3 3 3 3 3 3 3 3 3 4 5 4 2 2 1 3 7 7 10 12 5 7 6 6 6 10 5 8 8 7 9 11 8 6 5 6 6 6 5 5 5 6 6 7 7 7 6 7
4 4 4 4 4 4 3 3 3 3 3 3 3 5 8 4 2 3 4 6 4 3 4 8 6 10 9 9 10 9 8 11 12 10 6 9 10 7 7 6 5 5 5 5 7 7 7 7 7 8 7 7 7 8
4 4 4 4 4 4 3 3 3 3 3 3 6 6 3 3 5 5 8 9 9 9 6 7 7 9 6 10 11 8 11 10 14 11 11 11 11 13 11 9 7 6 6 6 6 6 6 6 7 8 8 8 9 9
3 4 4 4 4 3 3 3 3 2 3 4 3 2 1 4 6 9 10 9 10 10 8 8 7 7 7 7 9 9 12 11 15 9 13 14 14 12 12 11 10 10 8 7 8 8 8 8 8 9 11 12 13 14
3 3 3 3 3 3 3 3 3 2 1 1 3 5 6 8 11 12 13 12 12 9 9 9 10 8 7 8 9 10 13 13 12 14 16 15 14 13 13 13 12 12 12 12 12 12 13 13 13 14 15 14 15 16
3 3 3 3 3 3 3 3 3 3 2 7 9 11 11 12 10 11 11 11 10 11 11 9 10 11 10 10 12 13 12 11 14 16 18 16 15 14 14 14 15 15 15 15 15 15 15 15 15 15 15 15 15 16
3 3 3 4 4 4 4 4 4 4 7 11 11 14 13 12 12 11 11 11 10 10 11 11 11 11 12 12 12 11 13 16 17 18 17 15 14 14 14 15 15 15 15 15 15 15 16 16 16 16 16 16 16 17
4 4 4 4 4 4 4 4 5 5 8 12 14 15 15 14 14 13 13 13 11 12 11 11 12 14 15 14 16 17 17 20 18 17 17 15 15 15 15 15 15 15 15 16 15 16 16 17 17 17 16 16 16 16
4 4 4 5 5 5 5 6 8 11 13 14 16 16 16 16 17 15 14 14 11 12 13 14 17 17 14 18 21 19 21 19 18 18 17 17 17 16 16 16 16 15 15 16 16 16 16 16 16 16 17 17 17 17
5 5 5 5 4 5 7 9 12 14 17 16 17 17 16 16 17 16 14 14 12 14 15 17 15 19 20 21 21 19 18 18 18 18 18 17 17 17 17 17 17 17 17 17 17 16 15 16 16 16 16 16 16 17
5 5 6 6 5 7 10 11 11 16 17 15 16 15 15 16 15 14 14 13 14 13 15 17 20 21 21 19 18 17 16 17 18 18 18 18 17 17 17 17 17 18 18 17 18 18 18 17 17 16 16 16 17 16
6 7 7 7 6 8 11 12 10 13 15 15 14 15 16 16 15 14 14 14 15 16 19 21 21 20 19 19 18 17 16 15 16 18 18 17 17 17 17 17 17 17 17 18 18 17 17 18 17 17 17 17 17 18
7 8 7 6 8 9 10 11 12 12 12 14 13 13 14 14 15 16 16 15 17 19 20 19 19 18 17 17 16 17 17 17 17 17 18 19 17 17 17 17 17 17 18 18 19 19 19 19 18 17 17 17 18 17
8 9 8 8 10 10 11 10 11 10 12 12 13 13 15 16 16 16 16 18 19 18 17 17 17 16 17 17 16 15 15 15 15 16 16 16 17 17 17 16 17 18 17 17 18 18 18 18 17 16 17 16 16 17
9 8 10 10 11 11 13 9 12 11 13 13 12 14 14 14 14 12 16 16 17 14 15 15 15 14 15 15 15 15 14 14 15 15 15 15 15 15 16 16 16 17 17 17 17 17 18 18 17 17 16 16 16 16
10 12 14 13 11 14 11 12 10 11 11 12 14 16 15 14 13 16 19 18 16 15 15 14 14 15 15 15 16 15 14 14 14 14 14 15 16 16 16 16 16 16 16 15 16 16 16 16 17 16 16 17 17 17
13 15 12 13 10 12 13 13 13 12 14 13 15 15 15 12 16 17 18 17 16 16 15 15 14 14 15 15 16 16 15 14 15 16 15 14 13 14 14 15 16 16 15 15 16 16 16 16 16 16 17 17 19 18
16 14 13 13 12 12 12 14 14 14 14 15 15 14 13 15 18 19 18 17 17 16 16 15 15 15 15 15 16 16 16 13 13 15 15 15 15 15 15 16 16 17 15 16 16 17 17 17 17 18 17 17 19 18
15 14 13 11 11 11 12 12 12 13 15 16 15 16 16 19 20 19 16 15 16 16 15 14 14 15 16 15 15 14 14 14 15 15 14 15 15 15 16 17 18 17 15 16 16 17 17 18 18 18 18 17 17 18
13 13 16 14 14 13 15 15 16 16 16 15 14 19 20 19 19 16 16 15 15 15 15 15 14 13 13 13 13 13 13 14 14 14 13 14 14 15 16 16 17 18 17 17 17 17 17 17 17 17 18 19 18 18
14 13 15 19 16 17 18 17 17 17 16 14 16 18 19 18 15 16 16 15 14 14 15 15 15 14 14 13 13 13 13 13 15 19 20 16 15 16 16 16 16 16 16 16 17 17 17 17 18 18 18 18 17 17
15 12 16 18 19 19 18 16 18 17 16 16 17 18 18 18 17 14 15 14 14 14 14 14 13 12 13 13 14 15 15 15 16 16 17 17 17 16 16 16 17 17 17 17 17 17 18 17 17 17 18 18 17 19
12 12 15 16 18 17 16 16 16 15 16 16 15 16 18 18 17 15 15 14 14 14 14 14 14 13 14 14 14 15 16 16 18 18 17 16 16 16 16 17 17 17 17 17 18 18 19 19 18 18 18 19 19 19
14 14 16 18 18 17 15 14 15 15 15 16 17 16 17 16 18 16 14 14 14 14 16 14 14 15 15 15 16 16 19 16 16 17 20 17 16 16 17 17 17 17 18 19 18 18 19 19 19 19 19 19 19 20
14 14 15 16 17 17 15 14 16 17 15 16 16 16 16 15 17 15 15 13 13 13 14 13 14 14 16 17 16 16 17 16 20 20 21 20 21 20 19 17 17 18 19 19 19 18 19 19 19 20 20 20 20 20

GFSWCAN_con_lsi_048.txt.gz
Lid_Strength_Index
2 2 1 1 1 1 1 1 1 1 1 0 0 0 0 0 -0 1 4 1 3 6 5 4 4 7 6 6 9 6 7 7 9 12 12 12 12 10 10 9 13 14 15 15 14 16 17 6 7 10 7 6 5 5
2 1 0 0 1 1 1 1 1 1 1 1 0 0 0 0 0 1 5 1 0 5 5 2 3 2 3 3 5 5 7 6 7 10 9 9 12 11 10 13 7 14 11 13 11 12 7 6 6 5 5 5 5 5
1 0 0 1 1 1 1 1 1 1 1 1 0 0 0 0 0 1 3 2 2 5 5 5 5 2 1 1 1 7 5 4 6 5 7 8 11 9 13 12 9 7 7 11 10 8 7 6 5 4 4 5 4 4
0 1 1 1 1 1 1 1 1 1 1 1 0 1 1 0 0 1 3 1 2 4 9 7 2 3 1 1 2 2 3 4 4 5 7 9 11 6 10 9 10 8 7 9 9 7 7 6 5 5 5 4 4 4
1 1 1 1 1 1 1 1 1 1 1 0 1 1 0 0 0 0 1 1 0 5 9 8 3 2 1 2 2 2 3 5 6 8 9 10 8 8 7 8 9 6 8 10 11 6 7 7 5 4 5 5 4 4
1 1 1 1 1 1 1 1 1 1 0 1 1 1 1 1 1 2 7 2 0 1 6 10 3 4 3 2 3 3 4 4 6 7 8 6 5 7 11 11 6 5 5 5 6 4 5 5 4 4 5 4 4 4
2 1 1 2 1 1 1 1 1 1 1 1 1 1 1 1 2 4 5 2 1 0 5 8 8 4 3 3 4 4 3 5 6 7 8 7 7 6 9 12 6 5 5 4 4 4 6 5 6 4 4 4 4 3
2 2 2 2 2 2 2 1 1 1 1 1 1 1 1 1 1 3 1 1 0 3 5 8 9 7 3 7 7 4 6 6 6 7 7 8 7 8 11 7 6 5 5 5 5 4 5 4 5 5 5 5 5 5
3 3 2 2 2 2 2 2 2 2 2 2 2 2 2 3 4 3 2 2 -0 3 7 7 10 12 5 6 6 6 6 10 6 9 9 7 9 12 11 9 7 6 6 6 5 5 5 5 5 5 6 6 7 6
3 3 3 3 3 3 3 2 2 2 2 2 2 5 7 3 2 2 3 5 5 4 5 8 5 10 6 8 9 9 8 11 12 9 7 10 11 10 11 11 9 9 6 6 7 7 7 6 6 6 7 6 6 7
3 3 3 3 3 3 3 3 3 2 2 3 5 7 4 2 3 5 8 9 8 9 6 6 7 9 6 10 10 8 10 10 13 11 11 12 12 13 12 11 11 10 8 8 7 6 7 7 7 7 8 9 10 12
3 3 3 3 3 3 3 3 3 3 3 4 4 3 4 6 7 9 10 10 10 10 7 8 8 7 7 6 10 9 11 11 15 9 12 15 14 12 12 13 13 12 11 11 11 11 11 11 11 12 13 14 15 15
3 3 3 3 3 3 3 3 3 3 1 2 4 6 6 8 11 12 13 12 12 10 9 8 10 8 8 8 12 11 13 13 11 14 16 17 15 13 14 14 14 14 14 14 14 13 14 14 14 15 16 15 16 16
4 3 3 3 3 3 3 3 3 3 3 6 8 12 11 12 12 12 13 11 10 11 12 10 10 11 12 12 13 13 13 12 14 17 19 16 15 14 14 14 14 15 15 15 15 15 15 15 16 15 15 15 16 17
3 3 3 3 3 3 3 3 3 4 7 11 10 14 14 12 11 11 11 10 11 11 12 11 11 10 12 12 12 12 14 18 18 20 18 16 15 15 15 15 16 16 16 16 16 16 16 16 16 16 16 17 17 18
3 3 4 4 4 4 5 5 5 6 9 12 14 15 13 13 14 13 13 12 11 12 11 11 12 13 15 14 16 17 17 21 20 17 17 16 16 16 16 15 15 15 16 16 16 17 17 17 18 18 17 17 17 18
4 5 4 5 5 5 5 6 8 11 12 13 15 14 14 14 15 14 13 13 12 13 13 13 16 16 14 18 20 18 20 19 18 17 17 17 17 17 17 17 17 17 16 16 16 17 17 17 17 17 18 18 17 17
5 5 4 4 4 5 7 8 11 13 17 15 16 15 14 14 15 14 13 13 12 13 14 17 16 20 21 21 21 18 18 18 18 18 18 17 17 18 17 18 17 17 18 18 17 17 16 17 17 17 16 16 17 17
5 5 6 5 5 7 11 11 11 16 16 15 15 14 15 15 15 14 13 14 14 14 15 17 20 21 21 19 18 17 18 18 19 19 18 18 17 17 17 17 18 18 17 17 17 18 18 18 18 17 17 17 18 17
6 7 6 6 5 8 12 12 9 13 16 15 14 16 16 16 15 16 16 15 15 17 20 21 21 20 20 18 17 17 16 16 17 18 18 17 17 17 17 17 17 17 18 19 19 18 18 18 18 18 18 18 18 19
7 7 7 6 7 8 9 11 12 12 12 14 13 14 15 15 17 18 17 16 18 19 20 19 19 18 16 16 16 15 15 15 15 16 17 17 16 16 17 17 17 17 18 19 19 20 19 19 18 17 17 18 19 18
8 8 7 7 9 10 10 9 11 10 12 12 13 13 15 16 16 16 16 17 18 18 16 17 16 16 16 16 15 15 15 15 15 15 15 15 16 16 16 16 16 17 17 17 17 18 18 18 17 16 17 16 16 17
9 8 9 9 12 11 13 9 12 11 14 13 12 14 14 15 14 12 17 17 16 15 15 15 15 15 16 15 15 14 14 14 15 15 15 15 15 15 15 16 15 16 17 17 16 17 17 18 17 17 17 17 16 16
9 12 13 13 12 15 11 12 10 11 11 13 14 16 15 14 12 16 19 18 16 15 14 14 14 15 15 16 16 16 15 14 14 14 14 15 16 17 16 17 17 16 16 15 16 16 16 16 17 16 17 18 18 17
14 16 13 14 10 11 12 13 12 12 14 13 15 15 15 12 16 17 19 17 16 15 15 14 14 15 16 16 16 16 15 15 16 17 15 13 13 13 14 15 16 16 15 16 16 16 17 16 17 17 17 18 19 18
17 15 13 12 12 12 12 14 13 13 13 15 15 14 12 14 17 19 18 16 17 16 16 15 15 16 16 16 17 17 16 13 14 16 16 15 15 14 15 16 16 17 15 16 17 17 17 17 18 18 18 18 19 19
15 15 13 10 10 11 12 11 11 13 15 15 14 15 15 18 20 19 16 15 17 16 14 14 14 15 16 16 15 15 14 14 14 15 14 14 15 15 16 17 19 18 16 17 16 17 17 17 17 18 18 18 18 18
13 13 15 14 14 12 14 14 15 16 16 14 14 18 19 19 19 16 16 15 15 14 15 15 15 14 14 14 13 13 13 13 14 13 13 14 14 14 15 15 16 16 16 17 17 17 17 17 18 18 18 19 18 17
14 13 15 18 16 17 17 16 17 17 16 14 16 19 20 17 16 16 15 14 14 14 16 16 15 14 14 13 14 13 14 14 15 17 17 16 16 17 15 15 15 16 16 16 16 16 17 18 18 18 19 18 17 17
14 12 16 18 19 20 18 16 17 15 15 16 17 18 18 17 15 13 14 14 14 15 14 14 13 13 14 13 15 15 15 16 16 16 17 17 17 16 16 16 16 16 16 16 17 17 16 18 16 17 18 17 18 19
11 13 16 17 19 17 17 15 14 15 15 15 15 17 19 18 16 15 15 15 14 14 14 15 14 13 14 14 14 15 16 16 18 18 17 16 16 16 16 17 16 16 17 17 18 18 18 19 19 18 18 19 19 19
12 15 17 19 18 16 14 13 14 15 15 16 17 16 16 16 18 17 15 13 14 14 17 13 14 15 14 15 15 17 18 16 16 17 17 17 16 17 17 17 17 17 17 18 19 18 18 19 19 19 19 19 19 20
13 14 15 16 16 16 15 14 15 16 15 16 17 16 16 16 18 16 14 13 13 13 13 13 13 14 15 15 15 16 18 16 19 19 19 20 21 20 20 18 17 18 19 19 19 19 19 19 19 20 20 20 20 20

GFSWCAN_con_lsi_051.txt.gz
Lid_Strength_Index
1 2 2 1 1 1 1 0 0 0 1 1 1 1 1 1 1 1 3 3 6 9 6 5 5 7 7 7 10 8 8 8 10 12 13 13 14 12 12 11 13 14 15 16 15 18 19 8 8 10 9 6 6 6
2 1 1 1 1 0 0 0 0 0 0 0 0 0 0 1 1 1 4 3 3 6 6 3 3 3 4 4 7 7 8 7 8 11 11 12 14 12 12 16 9 14 12 14 13 14 8 7 8 6 6 6 6 7
1 0 0 0 0 0 1 1 1 1 1 1 0 0 0 1 1 1 3 3 4 7 6 5 6 3 2 2 2 8 7 6 7 6 9 10 13 11 14 12 11 10 8 11 12 9 8 7 6 5 5 6 5 5
1 0 0 0 1 1 1 1 1 1 1 1 0 0 0 0 0 1 3 2 3 5 9 7 2 4 1 1 2 3 4 4 5 6 9 10 12 8 12 10 11 10 9 10 11 8 7 7 6 5 5 5 5 5
1 1 1 1 1 1 1 1 1 1 1 1 0 0 0 0 -0 1 1 1 1 5 9 8 4 3 2 2 3 3 4 6 7 9 10 11 9 9 9 10 11 8 9 12 12 8 8 7 6 5 5 6 5 5
1 1 1 1 1 1 1 1 1 1 1 1 0 0 0 0 0 2 6 3 2 1 7 11 5 5 3 3 4 4 5 6 7 8 9 8 6 8 12 13 8 7 7 6 7 6 6 6 5 5 5 5 5 6
2 1 1 1 1 1 1 1 1 1 1 0 0 0 0 0 1 4 6 3 1 1 6 10 9 5 4 4 5 6 5 6 7 8 9 9 8 8 13 14 8 7 6 6 5 6 7 6 7 6 6 6 6 5
2 2 1 1 1 1 1 1 1 1 1 1 1 1 0 0 1 3 2 1 1 4 6 11 12 9 4 8 9 5 8 7 7 8 8 9 8 9 12 10 9 8 6 6 6 6 6 6 6 7 7 7 7 7
2 2 2 1 2 2 2 2 1 1 1 1 1 1 2 3 5 4 1 1 1 4 9 11 13 13 6 8 8 7 7 11 7 11 9 9 12 13 13 12 11 10 9 8 7 6 6 7 6 7 8 8 8 9
2 3 2 2 2 2 2 2 1 1 1 2 2 5 8 5 1 2 3 5 6 6 6 11 9 11 7 9 9 9 10 12 13 11 8 11 14 12 13 11 11 11 9 9 10 11 10 10 9 11 11 11 12 13
2 2 2 2 2 2 2 2 2 1 1 3 6 7 4 2 4 6 10 10 10 12 9 9 10 10 7 10 10 10 11 11 14 12 11 12 16 14 13 13 13 12 11 11 10 10 11 11 12 13 14 14 15 16
2 2 2 2 2 2 2 2 2 3 4 4 4 3 4 6 7 11 12 11 11 11 9 11 10 8 8 8 11 10 11 11 15 10 13 17 15 13 13 14 14 13 12 12 12 13 13 13 14 15 15 16 16 17
3 3 3 3 3 3 2 2 3 2 2 2 4 8 8 10 13 14 14 12 12 11 10 9 10 11 8 8 11 11 12 13 11 15 19 18 15 14 14 14 14 13 14 14 15 15 15 15 15 16 16 16 17 17
3 3 4 3 3 3 3 3 3 3 5 9 10 15 14 15 14 15 14 13 11 10 11 11 10 10 11 13 12 13 12 12 17 19 21 17 16 15 15 15 15 16 16 16 16 16 17 17 18 17 17 17 17 17
3 3 3 3 3 4 4 4 4 7 10 14 14 17 17 13 13 13 12 12 11 11 12 11 11 11 12 12 13 13 16 20 20 22 19 18 17 16 16 16 16 16 17 17 17 17 17 17 18 18 17 17 17 17
3 3 4 4 4 3 3 4 7 7 11 15 16 18 17 17 19 16 15 14 12 12 11 11 12 14 16 16 19 20 21 23 22 20 18 18 18 18 18 17 17 17 17 17 18 18 18 19 19 19 18 18 18 18
4 6 4 4 4 5 5 7 10 12 13 15 17 15 17 18 17 15 14 15 12 12 14 14 19 19 15 21 23 21 23 21 19 19 18 18 18 18 18 18 18 18 18 17 17 17 17 17 17 18 19 18 18 18
6 5 4 4 3 5 8 9 12 13 16 16 17 16 15 16 17 15 14 14 13 13 14 17 16 21 22 23 23 21 20 20 19 18 18 18 18 18 18 18 18 18 18 18 19 19 18 18 18 19 18 17 18 18
6 6 5 5 5 8 12 12 12 16 16 15 16 15 15 16 16 16 15 15 15 15 16 18 21 22 22 20 20 20 19 19 20 19 19 18 17 17 17 18 18 19 18 18 18 19 19 19 19 19 18 19 19 18
6 6 6 6 6 10 13 13 10 14 16 16 16 17 18 18 17 17 17 16 17 18 20 22 22 21 20 19 17 17 16 16 16 18 18 17 17 17 17 17 17 17 18 18 18 18 18 18 18 19 20 19 19 20
7 7 7 6 8 9 12 13 13 13 14 15 15 16 17 17 19 20 20 18 20 20 21 20 20 18 16 16 16 16 16 16 17 17 17 18 16 17 17 17 17 18 19 19 20 21 20 19 19 18 19 22 21 19
9 7 10 8 12 11 13 12 13 12 14 14 15 14 19 21 22 20 18 19 19 19 18 18 18 17 16 16 16 16 15 16 16 17 17 17 18 19 18 18 19 20 19 20 21 22 22 20 19 20 20 20 21 21
8 9 11 12 15 15 16 11 14 12 17 16 15 17 17 19 16 15 20 18 17 16 16 16 16 15 16 15 15 15 15 16 17 18 18 18 18 20 19 19 19 21 20 19 18 20 21 20 21 23 23 22 23 22
9 13 15 16 15 19 15 16 13 13 15 16 18 20 19 18 16 20 21 18 17 15 15 15 16 17 17 18 18 17 16 17 18 18 17 18 20 20 19 19 19 18 17 17 18 21 21 25 22 22 27 27 28 29
18 19 17 19 15 17 19 18 17 17 19 18 20 19 18 16 20 21 21 19 17 17 17 15 16 17 20 21 19 18 17 17 19 20 19 17 16 17 18 18 19 18 18 22 22 27 27 27 27 26 26 30 26 28
22 19 18 16 16 17 16 19 20 20 19 20 18 15 17 21 24 22 19 19 20 19 17 18 20 20 19 18 20 20 19 16 17 20 18 17 18 22 22 20 22 22 19 23 25 23 26 25 27 26 27 23 26 29
21 18 14 12 13 13 16 15 15 18 20 18 18 19 22 27 26 20 18 18 20 18 16 16 17 18 19 19 18 18 18 17 18 17 17 16 17 17 21 25 26 22 20 24 26 26 25 26 27 26 27 29 28 28
15 15 19 17 18 16 20 20 20 21 21 17 19 25 26 25 23 18 19 19 19 17 18 18 17 17 18 17 16 17 18 19 20 17 17 18 19 21 20 21 21 18 21 23 26 27 27 28 28 28 29 29 27 27
18 17 18 22 20 20 20 21 22 19 17 18 24 25 24 18 20 19 19 18 17 18 21 22 22 22 21 19 20 20 21 21 23 26 27 24 23 23 24 24 24 24 25 24 19 21 24 25 27 27 27 28 28 25
17 16 20 22 23 23 20 19 18 21 19 21 20 19 19 19 18 18 17 16 17 19 20 20 18 18 18 19 24 25 25 26 27 26 26 26 24 25 23 26 26 25 26 26 25 25 20 26 25 24 24 25 26 30
14 17 20 20 22 21 22 19 18 18 18 19 21 22 24 23 21 18 20 21 22 22 22 22 22 21 21 23 23 23 25 25 27 26 26 26 25 22 24 27 25 26 26 26 28 28 28 28 29 29 29 28 28 27
16 19 22 24 21 19 17 16 19 20 21 24 25 24 22 22 24 23 21 19 19 21 21 18 20 23 24 24 25 26 24 24 23 25 26 27 26 28 28 27 26 23 25 28 28 28 28 27 28 28 29 28 29 30
17 18 19 21 22 21 18 19 20 20 21 23 24 22 23 22 25 23 21 20 16 18 18 20 22 24 24 22 23 25 23 26 25 20 23 24 26 26 30 29 29 30 30 30 30 29 26 26 27 26 27 29 29 29

GFSWCAN_con_lsi_054.txt.gz
Lid_Strength_Index
2 2 2 1 1 1 1 1 1 1 1 2 2 2 3 2 2 4 5 3 6 10 9 7 6 9 8 9 11 10 10 10 11 13 14 14 16 13 13 12 13 14 16 16 15 17 19 8 8 11 9 8 7 6
2 1 1 1 1 0 0 0 1 1 1 1 1 1 1 2 1 1 5 3 2 6 7 4 4 3 5 5 7 8 9 8 8 11 12 12 14 15 12 15 10 14 12 14 13 14 8 7 8 7 6 7 7 7
1 1 0 0 0 0 0 0 0 0 0 0 0 0 0 1 1 1 4 3 4 7 7 7 7 3 1 2 2 8 7 6 7 7 9 10 13 12 15 14 11 10 8 12 11 9 8 7 6 6 6 6 6 5
1 1 1 0 0 1 1 0 0 0 0 0 0 0 0 0 1 1 4 3 4 5 9 7 3 5 1 2 3 3 5 4 5 6 9 12 12 9 13 11 12 9 9 10 11 9 7 6 6 6 6 5 5 5
1 1 0 0 1 1 1 1 1 1 1 0 0 0 0 0 0 1 2 2 2 5 9 8 4 3 2 3 3 3 4 5 7 9 10 12 9 10 10 9 11 8 10 12 12 8 8 7 6 5 5 5 5 5
1 1 0 0 1 1 1 1 1 1 1 0 0 0 0 0 -0 2 6 2 2 2 7 10 5 5 3 3 4 5 5 6 6 8 9 8 7 9 12 12 9 8 7 6 9 6 7 6 6 5 6 6 6 6
1 1 1 0 1 1 1 1 1 1 1 0 0 0 0 0 1 5 6 4 1 2 7 10 10 5 4 4 5 6 5 6 6 8 9 9 8 8 11 13 10 8 8 7 7 6 8 7 8 7 6 6 6 7
1 2 1 1 1 1 1 1 1 0 0 0 0 0 0 -0 1 4 2 1 2 6 5 11 10 9 5 8 8 5 7 7 7 8 9 9 8 9 12 12 11 10 9 8 8 7 7 7 7 7 7 7 9 12
2 2 2 2 1 1 1 1 1 0 0 0 0 1 1 3 4 3 2 2 2 4 9 12 12 13 7 9 9 8 8 11 8 11 12 9 12 15 14 14 13 12 11 10 8 9 9 9 10 11 11 11 13 14
2 2 2 2 2 1 1 1 1 1 1 1 2 5 9 4 1 1 4 6 6 7 8 12 10 11 8 11 9 10 11 13 12 11 8 13 15 12 13 12 13 12 11 10 10 11 11 11 12 13 14 14 15 16
2 2 2 2 2 2 2 2 1 1 1 3 6 7 3 1 4 7 10 11 10 11 10 10 11 11 8 13 12 9 11 10 14 12 12 15 17 15 13 13 13 12 12 12 11 11 12 12 13 14 15 16 16 16
2 2 2 2 2 2 2 2 2 3 4 4 4 3 5 6 9 12 12 12 12 11 9 12 11 9 9 8 11 10 11 11 14 10 15 20 16 15 15 14 14 13 14 14 14 14 14 15 15 16 16 17 17 17
3 3 3 3 3 2 2 2 2 2 2 3 6 8 9 12 16 17 15 14 13 11 11 10 10 9 9 9 11 11 12 13 11 17 20 18 16 15 15 15 15 15 15 15 16 16 17 17 16 17 18 18 18 18
3 3 3 3 3 3 3 4 3 4 6 11 13 18 18 19 17 17 18 18 14 11 12 11 10 10 10 13 11 12 14 14 19 24 22 18 17 16 15 15 16 16 16 16 17 17 17 17 17 17 17 17 18 19
3 3 4 4 3 3 4 4 5 8 11 14 15 20 19 16 17 16 14 16 13 11 11 10 10 10 12 13 14 14 19 21 21 23 21 19 18 17 17 17 16 17 17 17 17 18 18 18 18 18 18 18 18 18
3 4 4 3 4 3 4 6 8 9 12 15 16 20 18 19 18 17 15 16 13 12 11 11 12 14 17 18 20 22 22 24 22 20 18 18 19 18 18 18 17 17 17 17 17 17 18 18 19 19 19 19 19 19
4 6 4 3 4 5 4 8 10 13 15 17 19 19 20 21 20 18 16 16 13 13 16 15 20 19 17 20 22 21 23 22 21 20 19 19 19 19 18 18 19 18 19 19 18 18 18 17 18 18 20 19 19 19
6 5 4 3 3 6 8 10 12 14 17 16 19 17 18 20 20 20 16 15 14 14 16 18 17 21 22 22 23 22 21 20 19 19 19 19 19 20 19 19 19 19 19 19 19 19 19 19 19 19 18 18 19 19
6 6 5 4 5 9 12 12 12 16 16 16 16 16 17 17 16 16 15 15 16 15 16 18 21 23 23 20 21 21 20 20 20 20 19 18 18 18 18 18 18 19 19 18 18 18 19 18 19 18 18 18 19 19
5 6 6 6 6 11 13 13 11 15 17 17 16 18 18 19 18 18 18 17 18 19 21 22 23 22 21 19 18 18 17 17 18 20 20 19 18 18 18 18 19 19 19 19 19 19 19 19 20 20 20 20 21 21
7 8 7 8 9 11 13 13 14 15 15 16 16 17 19 18 20 20 20 18 20 21 22 20 20 18 16 16 16 16 16 16 18 18 19 19 18 18 18 18 19 19 20 21 21 21 20 21 20 20 22 24 23 22
10 8 12 10 12 13 13 12 13 13 15 15 16 16 19 22 22 21 18 19 20 19 18 18 17 17 17 17 16 16 16 16 17 18 18 18 20 20 20 21 21 21 22 22 22 26 25 22 21 21 23 26 23 23
9 10 13 13 15 16 16 12 15 13 18 17 16 18 20 23 20 17 22 18 18 16 16 17 16 16 16 16 16 16 16 17 19 19 20 20 21 23 21 21 21 24 21 20 20 21 23 23 24 26 25 25 26 26
10 14 15 18 17 19 17 17 13 15 17 18 19 22 19 22 18 22 22 19 17 16 17 17 17 18 18 18 18 18 18 18 19 20 20 20 21 21 21 21 20 19 20 19 21 24 24 28 26 26 28 28 30 31
18 19 18 20 18 19 21 21 21 19 22 21 22 21 21 19 24 25 23 20 19 19 20 19 18 19 21 22 21 20 19 19 20 21 20 19 20 20 20 20 20 19 19 23 27 29 30 29 30 30 29 31 28 31
22 19 19 19 19 19 19 22 22 22 22 20 20 18 21 25 27 25 21 23 21 23 22 26 22 21 21 20 21 21 20 18 19 21 20 18 19 24 25 26 26 24 22 27 26 27 27 29 30 28 28 28 29 32
23 19 15 14 16 16 19 19 18 21 23 23 21 24 27 31 30 22 19 20 21 22 19 20 19 20 20 20 19 19 19 19 19 19 18 18 19 20 24 28 28 23 25 28 29 29 29 30 29 30 32 33 33 32
17 19 23 23 21 19 24 25 25 25 24 19 23 29 30 30 25 21 22 21 21 19 19 19 19 19 19 20 21 21 21 22 20 19 19 20 22 25 25 26 25 20 24 27 29 32 31 31 31 32 33 32 31 29
22 21 21 25 24 23 22 24 24 21 19 22 29 28 24 20 24 21 20 20 21 20 22 22 25 25 24 23 24 26 27 22 23 26 27 29 27 24 27 28 27 29 30 27 21 23 24 27 29 29 27 27 28 27
21 21 23 26 26 25 22 23 26 26 22 24 21 19 20 20 18 20 19 18 23 26 27 26 27 25 27 27 30 27 29 32 30 26 29 29 27 25 28 30 29 30 32 30 30 29 23 29 27 30 30 29 29 30
18 22 22 23 23 23 24 23 21 22 26 27 29 27 26 24 22 20 21 24 26 25 23 25 24 29 24 27 30 31 29 28 31 30 28 28 27 29 31 31 32 29 28 30 33 33 32 31 30 32 33 33 33 32
22 25 24 24 22 21 22 24 28 29 31 29 30 32 29 29 29 26 21 25 23 24 27 28 26 27 30 31 32 32 27 28 29 30 29 31 32 33 33 32 31 32 33 33 34 34 34 32 30 29 29 29 29 31
21 20 24 23 24 25 24 23 25 25 28 30 26 26 27 27 28 25 22 24 25 24 26 28 30 31 28 28 28 29 28 30 30 23 25 26 29 28 33 35 35 35 34 34 35 35 32 32 33 34 34 34 34 35

GFSWCAN_con_lsi_057.txt.gz
Lid_Strength_Index
1 1 1 1 1 1 1 1 2 2 3 3 3 3 3 3 3 4 6 3 6 9 8 7 7 9 9 9 13 10 10 11 12 15 15 15 17 13 13 12 13 15 16 16 15 17 19 8 9 13 10 8 7 7
2 2 2 1 1 1 1 1 1 1 1 1 2 3 3 3 3 3 7 5 4 7 8 6 6 5 6 7 8 9 10 9 10 13 14 14 16 17 13 16 10 15 12 14 13 14 9 7 8 7 7 7 7 7
2 1 1 1 0 0 1 0 0 0 0 1 1 1 1 2 2 3 6 5 5 9 8 8 9 6 3 3 4 9 8 7 8 8 11 11 14 14 16 15 12 10 8 11 12 9 8 6 6 7 7 6 5 5
1 1 0 0 0 0 0 0 0 0 0 0 1 1 1 0 1 2 6 5 6 7 12 11 5 7 4 3 3 4 5 4 5 7 10 12 14 9 14 11 12 10 9 11 11 9 7 6 6 6 5 5 6 5
1 1 1 1 0 0 1 1 0 0 0 0 0 0 1 0 0 2 3 4 4 7 11 11 5 4 4 3 3 3 4 5 7 9 10 11 10 10 11 10 12 9 10 12 13 9 9 8 6 6 6 6 5 6
1 1 1 1 0 1 1 1 1 1 0 0 0 0 0 -0 0 3 6 3 2 3 6 11 6 5 4 3 4 4 4 5 6 8 9 8 7 9 12 13 9 8 8 7 8 7 7 6 6 7 7 7 6 7
1 1 1 1 1 1 1 1 1 1 0 0 0 0 0 0 3 5 7 4 2 4 8 10 9 5 4 4 5 5 4 6 7 8 9 9 8 8 11 14 10 9 9 8 8 8 7 7 9 8 8 8 10 11
2 1 1 1 0 1 1 1 0 0 0 0 0 0 0 1 1 4 3 2 2 6 6 10 10 8 4 8 8 6 8 7 7 8 9 9 8 9 12 13 12 11 10 8 9 8 9 8 10 11 10 11 13 14
2 1 1 1 1 0 0 0 0 0 0 0 0 0 1 2 5 3 1 2 3 5 9 10 13 13 6 9 8 8 8 12 8 11 10 8 12 15 14 14 13 13 12 11 10 9 9 10 12 12 13 14 15 16
2 2 2 1 1 1 1 0 0 0 0 1 2 5 7 4 1 1 4 7 8 7 7 10 11 11 8 10 10 10 9 10 12 10 8 14 15 13 14 13 13 12 11 11 11 11 11 11 12 14 15 15 16 16
2 2 2 1 1 1 1 1 1 0 1 3 7 7 3 1 4 7 9 9 10 12 10 11 11 10 8 11 11 11 10 10 14 12 12 15 17 15 15 14 13 13 13 13 12 13 13 13 14 15 16 16 17 17
2 2 2 2 2 1 1 1 1 3 4 4 4 3 4 6 9 12 12 12 11 11 10 10 11 10 10 9 12 10 11 11 14 12 16 19 16 15 15 15 14 14 14 15 14 15 15 16 16 16 17 17 18 18
3 2 2 3 3 2 2 2 3 2 2 4 8 11 11 14 18 19 17 14 14 12 11 10 10 9 9 9 11 10 12 14 13 18 20 19 16 15 15 15 15 15 15 16 16 16 16 17 17 17 18 17 18 18
3 3 3 3 4 4 4 4 5 6 8 12 14 20 19 21 18 18 18 18 13 12 11 10 10 10 10 11 11 14 15 16 22 25 22 19 17 17 16 16 17 17 17 17 18 18 18 18 18 18 18 18 19 20
3 3 4 4 3 4 4 5 6 8 11 14 15 21 19 17 16 17 16 16 13 11 11 10 11 12 15 16 16 17 21 24 22 25 22 19 18 17 17 17 17 17 18 18 17 18 18 18 19 19 18 18 19 19
4 4 4 4 4 4 6 7 8 9 13 15 17 20 19 20 19 18 17 17 13 13 11 11 14 16 19 18 20 22 22 25 24 21 19 18 19 19 19 19 19 18 18 18 17 18 18 19 19 19 19 19 20 20
3 5 3 3 4 5 6 10 11 13 15 17 20 17 21 20 19 18 16 15 13 13 17 16 19 19 17 21 24 22 24 22 21 21 20 20 20 20 19 19 19 19 19 20 19 19 19 18 18 19 20 19 19 19
5 5 3 3 4 7 9 11 13 15 18 18 20 18 19 20 20 19 16 15 14 15 16 18 17 22 23 24 25 22 22 20 20 20 20 20 20 20 19 20 20 19 19 19 19 19 19 19 19 19 19 19 19 20
5 5 4 4 6 10 12 13 13 18 19 20 19 18 19 19 17 16 16 16 15 15 16 18 22 23 23 21 22 21 21 21 21 21 20 19 18 18 19 19 19 19 19 19 19 19 19 19 19 19 19 19 20 20
5 5 5 4 6 11 12 13 11 15 19 18 17 18 19 19 18 18 17 16 17 18 21 22 23 22 21 20 19 19 19 18 19 20 20 19 18 18 19 19 19 19 19 19 20 19 19 20 20 20 21 21 22 23
8 8 7 8 10 11 13 14 15 15 16 17 17 18 19 18 20 20 20 18 20 21 22 20 20 18 17 17 17 17 18 18 19 20 20 20 19 18 19 19 19 20 22 23 23 23 22 22 21 22 24 28 27 25
10 7 12 10 13 13 14 13 14 14 15 16 17 16 21 24 24 21 18 20 20 19 18 18 18 18 18 18 17 17 17 17 18 19 19 19 21 21 22 23 22 24 24 26 25 28 26 22 23 24 26 30 25 25
10 11 14 14 16 17 16 14 16 14 20 19 18 20 23 25 21 17 22 19 19 17 17 17 17 16 18 17 17 17 17 18 20 20 21 21 22 24 23 22 24 26 24 21 22 23 26 25 25 26 27 27 29 31
11 15 16 19 17 20 18 18 14 16 18 18 19 21 22 24 19 23 22 20 19 17 17 17 17 19 19 19 20 19 19 19 21 23 22 22 22 22 21 21 21 22 22 21 22 26 26 31 28 28 32 32 34 32
17 18 18 21 19 19 21 22 21 19 23 22 22 23 23 20 25 26 24 21 21 23 23 19 19 20 24 25 22 21 19 19 21 21 22 20 22 21 21 21 21 20 21 26 31 32 32 34 34 33 32 34 31 33
21 18 19 20 21 19 20 23 23 23 23 23 22 21 24 26 28 27 23 25 23 26 28 25 23 22 21 20 22 21 20 19 20 22 20 18 19 25 28 27 27 24 24 28 29 32 31 32 32 31 32 31 31 34
23 21 17 16 17 18 22 21 20 22 25 25 24 28 29 32 32 24 20 21 22 23 19 20 20 21 21 21 20 21 20 20 20 20 20 19 20 21 25 28 27 24 26 29 31 31 31 32 33 33 33 34 35 33
19 21 25 26 23 22 28 29 30 28 26 20 24 30 32 31 26 23 22 21 21 19 20 20 19 20 21 22 24 22 23 23 22 21 21 21 22 26 27 28 27 21 28 31 32 34 33 33 33 33 34 33 33 35
25 26 24 29 26 25 24 28 27 22 20 26 30 30 26 22 24 24 21 20 21 20 22 23 25 28 27 27 29 29 28 26 26 29 30 30 31 24 26 30 31 31 33 29 22 24 24 30 31 32 32 32 30 30
25 25 26 29 27 26 26 26 27 26 23 25 21 20 22 22 20 23 22 24 25 27 29 28 30 29 31 30 32 29 34 34 29 25 29 31 28 28 31 30 31 32 34 33 33 30 25 30 28 32 33 33 35 34
21 25 25 24 24 25 25 28 22 24 28 28 31 28 28 25 23 20 21 25 27 26 25 28 29 32 30 33 33 32 30 31 34 32 31 32 32 31 31 32 34 34 34 34 35 35 34 34 35 34 34 34 32 33
26 28 26 25 24 24 24 29 31 31 34 31 32 35 30 30 31 25 24 25 26 28 30 32 29 28 33 34 35 35 30 30 32 33 32 33 33 35 35 34 36 36 36 36 38 37 36 35 35 35 35 35 35 35
23 22 25 25 26 27 26 25 27 29 31 31 28 30 31 31 30 26 24 28 27 26 27 28 31 32 31 31 30 32 30 32 32 25 28 28 31 31 36 38 38 37 35 37 38 38 36 35 37 38 38 38 38 38

GFSWCAN_con_lsi_060.txt.gz
Lid_Strength_Index
2 2 1 1 1 1 1 1 2 2 3 3 3 3 3 3 2 3 5 3 6 10 7 6 6 8 8 9 12 10 10 11 13 15 15 13 16 14 14 12 14 14 15 16 15 17 19 8 9 13 10 8 8 7
2 2 2 2 1 1 1 1 1 1 1 2 3 3 3 3 3 3 8 3 3 7 7 5 4 4 5 6 8 8 10 10 11 14 14 14 16 17 14 16 11 14 12 14 13 14 9 8 8 7 6 7 7 7
2 2 2 1 1 0 0 0 0 1 1 1 1 2 3 3 3 4 6 5 7 9 8 8 8 5 4 4 4 9 9 8 10 9 12 13 15 14 17 15 13 11 9 12 12 10 9 7 7 6 6 6 6 5
2 1 1 1 1 0 0 0 0 0 0 1 1 1 1 2 3 3 6 5 6 8 11 9 5 6 4 3 4 4 6 5 6 8 11 13 14 11 15 12 14 11 10 11 11 10 8 8 7 6 7 6 6 5
1 1 1 1 0 0 0 0 0 0 0 0 0 0 0 1 1 3 4 5 5 7 12 11 7 6 5 4 5 4 4 6 7 9 13 12 12 11 12 11 12 9 11 12 13 9 9 8 7 8 8 8 8 8
1 1 1 0 0 0 1 0 0 0 0 0 0 0 -0 0 0 4 7 5 4 4 8 13 8 6 6 6 6 5 5 5 7 8 10 9 8 9 12 15 9 8 8 8 8 8 8 8 7 9 10 9 10 11
1 1 1 0 0 1 1 1 1 0 0 0 0 0 0 0 2 5 8 5 3 3 8 11 10 6 5 5 6 6 5 6 6 7 9 10 9 8 11 13 11 10 10 9 7 8 8 8 9 10 10 11 11 13
1 1 0 0 1 0 1 1 1 0 0 0 0 0 0 1 1 3 3 2 2 5 7 11 10 8 4 8 8 5 7 6 7 8 9 10 8 9 12 13 11 12 11 10 10 9 8 8 10 11 12 13 15 16
1 1 1 1 0 1 1 1 0 0 0 0 0 1 2 4 5 4 1 2 3 6 11 11 12 12 5 8 7 7 6 10 8 10 11 9 11 13 15 14 13 13 13 12 11 10 8 9 11 13 14 14 16 16
1 1 1 1 1 1 0 0 0 0 0 1 2 5 8 4 1 1 4 7 7 8 6 10 9 10 8 9 9 9 10 11 13 12 11 14 15 14 14 13 13 13 12 12 12 12 12 12 13 15 15 15 16 16
1 1 2 1 1 1 1 1 0 0 0 3 5 6 3 1 4 6 9 10 9 11 9 10 10 10 7 12 10 10 11 10 13 12 13 15 17 15 14 14 14 13 13 13 13 13 14 14 15 15 16 16 17 17
2 2 2 2 1 1 1 1 0 2 3 3 3 3 5 7 9 11 12 11 10 11 10 10 10 9 9 10 11 10 11 10 14 12 16 20 17 15 15 15 15 14 14 15 15 15 15 16 16 16 17 18 18 18
2 2 3 3 3 3 2 1 1 1 2 5 8 11 11 14 17 16 17 16 15 12 11 9 10 9 9 9 10 10 12 15 13 18 21 20 17 16 16 15 16 15 15 16 15 15 16 17 17 17 18 18 18 19
3 3 3 3 3 3 4 4 3 5 8 12 15 20 20 22 19 18 19 18 13 12 12 10 10 10 10 11 12 14 17 17 22 24 23 19 17 17 16 16 17 17 17 17 17 18 18 18 19 18 19 19 19 20
2 3 4 4 4 4 4 5 6 8 12 15 16 22 20 17 16 16 15 14 13 12 11 11 14 13 17 19 17 17 21 23 22 25 22 19 18 18 18 17 17 17 18 18 18 19 19 19 19 20 19 19 20 20
3 3 4 4 4 5 6 7 8 9 12 16 17 20 20 21 20 20 18 18 13 13 13 13 18 19 21 19 21 23 22 25 24 22 20 19 19 18 18 18 18 18 18 18 18 18 19 19 20 20 19 20 20 21
3 5 3 3 5 6 6 9 11 14 16 18 19 19 21 21 21 19 18 16 14 15 18 16 19 19 16 22 24 21 27 25 22 20 19 19 19 19 19 19 19 19 19 19 19 19 19 19 19 20 21 20 19 20
7 5 4 3 5 7 10 11 13 15 19 20 22 20 19 19 20 19 16 15 14 14 15 18 17 21 23 24 24 22 21 20 20 20 20 20 20 20 20 20 20 19 20 20 19 19 19 19 19 20 20 20 20 21
5 5 4 4 7 10 12 13 13 19 20 20 19 17 18 19 16 16 15 15 15 14 16 18 21 23 23 21 22 21 21 20 21 21 20 20 20 20 20 19 20 20 20 20 20 20 20 20 20 20 20 20 22 21
4 5 4 4 7 11 13 14 13 16 19 18 17 18 18 18 17 17 17 16 17 18 21 22 23 22 21 21 20 20 20 19 19 21 21 20 19 19 20 19 20 19 20 20 21 21 21 21 22 22 22 23 24 26
7 7 6 8 11 11 13 15 16 16 16 18 17 18 19 18 19 19 19 17 20 21 23 21 22 19 18 17 17 18 18 18 20 20 20 21 20 20 20 21 21 21 23 24 24 24 24 24 24 24 27 32 32 30
10 7 12 10 12 13 14 13 15 15 15 16 16 17 20 22 22 21 19 22 22 21 19 18 18 18 18 18 18 17 18 18 18 19 20 20 22 23 24 25 23 26 26 28 27 30 26 23 25 26 29 33 27 27
10 11 14 14 16 16 16 13 16 15 20 19 19 22 24 26 22 17 23 19 19 17 17 18 18 17 18 18 18 18 18 19 20 21 22 23 23 26 24 24 27 27 26 24 23 25 27 25 26 31 31 30 33 33
12 16 19 21 18 22 19 20 16 18 19 20 20 23 24 25 21 23 23 21 19 17 18 18 18 19 19 20 21 20 20 20 22 24 23 22 23 23 22 22 22 23 23 21 24 28 28 34 31 29 35 35 37 35
18 19 19 23 19 20 22 23 22 20 23 22 23 24 25 21 25 26 25 22 22 24 22 20 20 21 25 25 22 21 20 20 21 22 25 21 22 22 22 21 22 21 23 28 31 33 33 36 36 35 33 36 32 33
21 20 21 22 22 20 22 25 25 24 24 25 24 24 25 26 28 28 23 26 23 26 29 28 25 23 22 21 23 22 21 19 20 24 21 19 21 27 29 28 27 25 24 29 31 33 32 34 34 32 33 32 33 35
25 23 18 18 18 19 23 23 22 24 27 26 26 30 30 33 32 25 22 23 24 26 22 23 22 22 22 22 21 22 22 21 21 21 21 21 21 21 25 28 28 24 27 30 32 32 32 32 32 33 34 36 35 35
22 23 26 28 25 24 30 30 30 29 26 21 26 32 33 32 27 24 23 22 21 21 22 22 22 22 23 23 25 24 25 25 23 23 23 23 24 27 28 29 27 21 29 33 34 35 34 34 34 34 36 34 34 36
27 28 25 30 28 27 26 30 28 23 22 27 32 31 27 23 25 24 22 21 22 22 24 26 28 31 29 28 30 32 29 28 28 30 32 32 33 27 29 31 32 33 35 31 24 28 27 31 33 34 35 35 32 34
27 27 28 32 30 29 29 28 29 28 24 25 22 21 23 23 21 22 24 24 23 25 30 31 34 33 33 32 33 30 32 34 29 25 28 32 29 31 34 32 32 34 36 35 34 31 25 31 30 33 34 35 37 37
25 28 28 27 28 28 28 31 23 26 30 29 32 29 29 27 23 22 24 30 31 30 29 32 32 35 31 35 34 33 30 32 36 34 34 35 35 34 33 35 37 37 35 35 36 37 36 37 38 37 37 36 37 38
31 32 28 29 28 27 27 33 32 32 35 32 32 36 33 31 32 27 25 27 29 28 30 33 31 29 31 34 37 36 32 32 34 34 32 33 34 36 37 36 39 39 38 38 39 39 37 37 38 38 39 39 39 39
28 25 28 27 28 29 29 28 29 30 33 32 32 34 35 33 30 27 26 29 27 25 28 30 33 35 34 34 33 34 32 34 34 24 28 28 31 32 38 39 39 38 36 38 39 39 38 37 38 39 39 40 39 40

GFSWCAN_con_lsi_063.txt.gz
Lid_Strength_Index
2 2 2 2 1 1 1 1 2 2 2 3 3 3 3 3 2 3 5 3 5 9 6 4 5 7 7 8 10 8 9 9 10 12 13 13 13 12 12 11 13 14 15 15 14 17 18 7 8 11 8 6 6 6
2 2 1 1 1 1 1 1 1 1 1 2 3 3 3 3 2 2 6 3 3 7 7 4 4 3 4 5 7 7 8 9 9 11 11 11 13 13 12 14 9 13 11 13 12 13 8 7 7 6 6 7 6 6
2 2 2 2 2 1 1 1 1 1 1 1 1 2 3 3 3 3 6 4 5 8 8 7 7 4 3 3 3 8 7 6 8 7 10 10 12 11 13 12 11 9 8 11 11 8 8 7 6 5 5 6 5 7
2 2 1 1 1 1 0 1 0 0 0 0 1 1 2 3 3 4 6 5 6 7 10 9 4 5 3 3 4 4 5 4 6 6 9 11 11 9 11 10 11 9 8 10 10 8 7 7 6 6 6 6 7 8
1 1 1 1 1 1 0 0 0 0 0 0 -0 0 1 1 2 3 4 5 4 7 11 9 6 5 4 4 4 4 4 5 6 8 10 10 9 9 10 10 10 8 10 11 11 9 9 8 5 7 7 8 9 10
1 1 1 0 0 0 0 0 0 0 0 0 0 -0 0 1 2 5 8 4 4 4 8 11 7 7 5 4 5 5 5 5 6 7 9 8 7 8 11 12 9 8 9 9 10 8 8 7 7 8 9 9 10 11
1 0 0 0 0 0 0 0 0 0 0 0 0 -0 0 1 2 6 8 5 3 3 8 10 10 6 6 6 6 5 4 5 6 7 8 8 8 7 10 12 10 11 10 10 9 9 8 8 9 10 10 10 11 11
1 0 0 1 0 0 0 1 0 0 0 0 0 -0 -0 1 1 4 3 2 2 5 6 10 11 8 5 8 8 5 7 6 7 8 8 8 8 8 12 13 12 12 12 10 11 10 10 9 9 11 11 11 13 14
1 1 1 0 0 0 0 0 0 0 0 0 0 -0 3 4 6 4 1 1 2 5 10 10 11 12 6 7 7 7 6 10 8 10 10 8 10 12 15 15 14 13 13 12 11 10 10 10 12 13 13 13 14 15
1 1 0 1 1 0 0 0 0 0 0 1 2 4 8 5 1 1 3 7 6 6 6 11 8 10 7 8 10 9 9 11 12 10 10 12 16 15 14 14 14 13 12 12 13 13 13 13 13 14 15 15 15 16
1 1 1 0 0 1 1 1 1 1 1 3 5 6 3 1 4 6 8 10 10 11 9 9 9 9 8 10 10 9 10 10 13 11 11 14 17 16 14 14 14 13 13 13 13 13 14 14 14 15 16 16 17 17
2 1 1 1 1 0 0 0 0 2 3 3 4 4 6 8 8 10 11 10 10 11 9 9 9 8 9 8 9 9 11 10 14 12 15 19 17 15 14 15 15 14 14 14 14 15 15 15 16 16 17 18 18 18
3 2 2 2 1 0 0 1 2 2 4 6 8 11 11 14 17 16 16 15 15 13 11 10 10 9 9 8 9 10 12 15 13 18 20 19 17 16 16 16 16 15 15 16 16 16 16 17 17 17 18 18 19 20
3 3 3 3 3 3 3 3 4 5 8 11 14 19 19 20 17 17 18 17 13 12 12 9 11 11 11 12 13 15 16 15 20 21 22 19 18 17 16 16 17 17 17 17 17 18 18 19 19 18 18 19 20 21
2 3 4 3 3 4 4 5 6 8 11 15 15 21 20 17 16 16 15 14 13 12 10 11 14 13 16 17 16 16 19 22 21 22 20 18 18 18 18 17 17 17 18 18 18 18 19 19 19 20 19 19 20 20
3 3 3 4 4 5 6 7 8 9 12 16 17 19 19 19 19 18 17 16 13 13 12 13 16 19 20 19 21 22 21 23 22 20 18 18 18 18 18 18 18 18 18 18 18 18 19 19 20 20 20 20 20 21
3 6 3 3 5 6 6 10 11 14 16 18 19 19 20 20 20 18 17 16 13 13 17 16 19 19 17 22 23 21 23 22 21 19 18 18 18 18 18 18 18 18 19 18 18 18 19 19 19 20 21 20 20 20
6 6 4 3 6 7 9 11 14 16 19 19 20 19 18 17 18 17 15 14 14 14 16 18 16 21 22 23 23 21 20 20 19 20 20 20 20 20 19 20 19 19 19 19 19 18 18 19 19 19 19 19 20 20
6 6 4 5 7 10 12 13 14 20 19 20 18 17 17 18 16 16 15 14 14 14 15 18 21 22 22 21 21 21 20 20 21 21 20 20 19 19 19 19 19 19 19 19 19 20 20 20 20 19 20 20 21 20
5 5 5 5 7 11 13 14 12 16 19 17 16 17 17 18 16 17 17 16 16 18 20 22 23 21 21 20 19 19 19 19 19 21 21 20 19 19 19 19 19 19 19 19 20 19 19 20 21 21 21 21 21 22
8 8 7 9 11 11 13 14 16 16 16 18 17 17 18 17 19 19 19 18 20 21 22 21 20 19 17 17 16 16 17 17 18 18 19 21 19 19 19 20 20 20 21 22 22 22 22 22 22 22 22 24 23 22
10 7 12 10 13 13 14 14 15 15 15 16 17 17 20 21 21 21 19 22 22 20 18 18 18 18 18 18 18 17 18 18 19 19 19 19 20 21 22 22 22 23 23 23 22 22 21 21 21 21 21 22 22 21
9 10 13 13 17 17 15 12 16 15 19 18 18 21 22 24 21 18 22 20 19 17 17 18 18 17 19 18 18 18 18 18 20 21 21 22 22 23 22 22 21 21 21 20 20 20 21 22 23 23 22 22 21 22
11 16 20 20 17 21 19 19 16 18 19 20 21 23 23 23 20 22 23 21 19 17 18 18 18 19 19 20 20 20 20 20 21 22 21 21 22 21 20 20 20 20 19 19 20 22 23 24 25 22 24 23 24 23
18 21 21 23 20 21 23 24 23 21 24 23 23 24 24 21 24 25 24 22 21 22 22 20 20 21 23 22 21 20 19 19 20 21 21 20 20 20 20 20 20 20 20 20 21 21 23 25 24 23 23 23 22 23
23 21 22 23 24 22 23 26 26 25 25 26 26 25 25 26 28 27 23 23 21 23 24 24 22 21 21 20 21 20 20 19 19 21 20 18 19 21 22 22 21 20 20 21 21 21 22 24 24 24 23 24 29 25
27 26 20 19 20 20 24 24 22 24 27 26 27 29 28 31 31 24 21 22 22 24 21 21 20 20 21 21 21 21 21 20 20 20 20 20 20 19 21 21 21 19 20 21 21 21 21 22 23 23 23 24 24 24
23 24 27 29 27 25 31 30 30 29 25 22 25 31 31 31 26 22 22 21 22 22 23 23 22 21 21 22 23 22 23 23 22 21 20 20 21 23 23 23 22 21 22 23 23 24 22 22 22 23 24 23 24 25
28 29 26 32 29 28 27 30 27 24 23 27 29 28 26 24 24 23 21 21 21 22 24 25 26 27 26 26 27 27 24 23 22 25 26 24 24 21 24 24 23 24 25 22 24 23 22 23 23 23 24 24 25 27
28 28 29 33 31 29 29 27 28 27 24 24 22 21 23 23 22 21 21 21 22 25 27 27 29 26 26 25 26 25 27 28 25 22 23 23 23 24 25 24 23 25 26 24 23 22 23 24 24 25 26 26 26 26
26 29 29 28 28 26 26 29 25 26 29 28 29 28 27 26 23 23 26 29 28 28 26 27 28 30 27 28 26 26 24 26 31 29 28 27 26 25 25 26 28 28 26 26 26 26 26 26 27 27 26 27 28 29
29 32 29 28 27 26 28 33 33 31 32 29 30 33 30 29 30 25 25 25 25 27 28 28 27 24 27 28 30 29 30 25 26 27 27 26 24 26 27 27 30 28 27 27 27 27 28 27 27 28 28 28 29 30
29 27 28 28 28 29 30 29 29 30 31 32 32 34 35 31 29 25 25 27 24 23 26 26 28 29 29 29 26 27 29 26 29 24 28 27 29 27 27 28 28 28 27 26 27 28 28 28 28 29 29 30 30 30

GFSWCAN_con_lsi_066.txt.gz
Lid_Strength_Index
2 2 2 2 2 2 1 1 2 2 2 2 2 2 2 2 2 3 5 3 5 7 5 4 3 5 5 7 10 7 9 8 9 12 11 11 12 10 11 10 12 12 13 14 13 15 17 7 7 10 8 6 6 6
2 2 2 1 1 2 1 1 1 1 2 2 2 2 2 2 2 3 6 3 2 5 5 2 1 1 2 3 5 6 7 7 7 9 9 8 10 9 10 13 8 12 9 11 10 11 7 6 6 5 5 6 6 6
2 2 2 2 2 2 1 1 1 1 1 1 2 2 2 2 2 3 5 4 4 7 6 5 6 2 1 1 1 7 6 5 5 4 6 8 11 8 12 11 9 8 7 9 9 7 7 6 5 5 4 5 4 4
2 2 2 1 1 1 1 1 1 1 1 1 1 1 2 3 3 3 5 4 5 7 9 7 3 5 2 1 2 2 4 3 4 4 7 8 9 6 8 8 9 7 7 8 8 7 6 6 5 5 5 4 5 5
1 1 1 1 1 1 1 1 1 1 0 0 0 1 1 2 3 3 4 3 3 5 9 8 5 4 3 3 3 3 4 5 6 8 8 9 6 7 6 7 9 6 8 9 10 7 8 7 5 6 6 6 6 7
0 0 0 0 0 0 0 0 0 1 0 0 0 0 0 1 2 5 9 5 3 3 7 10 5 5 4 3 4 4 4 5 6 7 8 6 5 6 10 10 7 6 6 6 7 6 6 6 7 8 8 8 7 8
0 0 0 0 0 0 0 0 0 0 0 0 -0 -0 0 1 3 5 6 5 4 3 7 9 9 6 5 4 4 5 4 5 6 7 8 7 6 6 9 11 8 9 9 8 8 8 7 9 9 9 9 9 10 11
1 0 0 0 0 0 0 0 0 0 0 0 -0 -0 0 1 2 3 2 3 3 5 5 10 10 8 5 8 8 5 7 6 6 7 7 7 6 7 12 12 12 11 10 10 10 10 10 9 10 11 11 10 12 13
1 0 1 0 0 0 0 0 0 0 0 0 -0 0 2 3 5 3 1 2 1 4 8 8 10 11 5 7 7 6 6 10 7 9 9 8 10 12 15 14 14 13 13 12 11 10 11 11 12 13 13 13 13 15
1 0 1 1 0 0 0 0 0 0 1 1 2 6 8 5 1 1 4 7 6 6 5 8 7 10 6 7 8 8 7 9 12 10 8 10 15 14 14 14 13 13 12 12 12 11 11 11 12 13 14 14 14 14
1 0 0 1 1 1 1 1 1 0 0 2 5 7 3 1 3 5 8 8 7 9 6 7 7 9 6 9 10 7 10 9 12 11 11 12 15 15 13 14 13 13 13 12 12 12 12 12 12 13 14 15 15 16
1 1 0 0 1 1 0 0 0 1 2 2 4 4 6 7 6 9 9 9 9 10 9 9 8 7 8 6 8 9 11 10 13 9 11 14 16 14 14 14 14 13 13 13 13 13 13 13 14 14 15 16 17 17
2 1 1 1 1 2 1 1 2 2 2 4 6 10 9 10 12 11 13 12 11 10 10 9 9 8 9 8 9 9 12 12 10 12 15 16 15 14 14 14 15 14 14 14 15 15 15 15 15 16 17 17 17 18
2 2 2 2 2 3 3 4 4 4 5 9 10 15 13 14 14 13 13 12 11 10 10 8 9 9 9 10 11 12 13 11 15 16 18 15 16 15 15 15 15 16 16 16 17 17 17 18 17 17 18 17 18 19
3 3 3 3 3 4 4 5 6 7 10 12 12 16 15 13 13 13 12 11 11 10 9 9 10 9 12 13 12 13 15 17 16 16 16 15 15 16 16 16 16 17 17 17 17 18 18 18 18 18 18 18 18 19
2 2 4 4 4 5 5 6 7 8 11 13 14 15 14 13 14 13 13 12 11 10 9 9 11 13 15 14 15 18 15 17 18 16 16 15 16 17 17 16 16 16 16 17 17 17 18 18 19 19 18 19 19 19
3 4 3 5 5 6 6 8 9 13 14 15 16 14 14 14 15 14 13 12 10 9 12 11 14 17 13 16 19 17 18 17 17 16 15 16 16 17 17 17 17 16 17 17 17 17 18 17 17 18 19 18 18 18
4 3 4 4 5 7 9 10 12 14 17 15 16 16 14 14 14 13 13 12 10 11 12 15 13 17 18 20 19 18 18 17 16 17 17 17 17 17 17 17 17 17 17 17 17 16 16 16 17 17 17 17 17 18
4 3 4 4 5 7 11 12 12 17 16 15 14 14 14 14 13 13 12 12 12 12 13 15 18 19 20 18 19 18 18 18 18 18 18 17 17 17 17 17 17 17 17 16 16 16 16 16 16 16 16 16 16 16
5 5 5 5 5 9 12 13 10 14 16 15 14 15 15 15 14 14 15 14 15 16 18 20 20 19 18 17 16 17 16 16 16 17 17 16 16 16 16 15 15 15 16 16 16 16 16 17 17 17 16 16 16 17
5 5 6 5 7 8 11 12 14 14 14 15 14 14 16 15 16 17 17 16 18 19 20 18 18 16 15 14 14 14 14 14 14 14 15 17 16 15 16 16 16 16 16 16 17 17 17 17 16 16 16 16 16 16
6 7 6 7 10 11 12 11 13 13 14 15 15 15 17 18 18 18 16 18 19 18 16 16 16 15 16 16 15 15 15 15 16 16 16 16 16 17 17 16 16 17 17 16 16 16 16 16 15 15 16 16 16 16
7 7 9 10 12 13 14 11 14 14 16 16 16 18 19 18 17 15 19 18 17 16 15 16 16 16 17 16 16 16 15 15 16 16 17 17 17 17 17 16 15 16 16 16 15 15 16 18 17 15 16 15 15 16
10 14 15 14 13 17 14 15 14 16 16 17 18 20 19 17 16 17 20 18 17 15 16 16 16 17 16 16 17 17 17 16 17 17 16 16 17 17 16 16 15 15 15 15 16 16 15 15 18 15 16 15 16 16
14 18 16 18 16 17 18 18 18 17 18 17 18 18 18 15 19 20 21 19 17 17 16 16 16 16 17 17 17 17 16 15 16 17 16 15 16 16 16 15 15 15 15 15 15 15 16 15 15 15 16 16 18 19
21 20 19 19 18 17 17 18 18 18 17 19 19 18 17 19 21 22 19 17 17 17 17 16 16 16 17 16 16 16 16 15 15 16 16 15 15 14 15 15 15 16 15 14 14 15 15 16 16 18 17 19 22 19
22 21 19 18 17 17 18 17 16 17 19 20 19 21 20 23 23 21 18 17 17 17 16 15 15 15 16 17 17 17 16 16 16 17 16 16 15 15 15 15 18 16 15 16 15 15 16 16 16 17 17 16 17 18
20 20 22 23 21 20 22 21 21 22 20 19 19 24 24 23 22 19 18 17 17 17 17 17 16 16 16 17 17 18 18 18 18 17 16 16 16 16 17 16 16 18 16 16 16 16 16 16 16 17 17 18 18 17
22 21 21 27 23 23 23 23 22 21 20 19 21 22 22 21 20 18 18 18 17 17 18 19 20 19 19 19 19 17 16 16 18 20 20 17 16 16 16 16 15 16 16 16 20 18 17 17 17 17 18 18 18 19
22 20 23 25 26 25 23 22 22 21 20 20 19 20 20 20 20 17 17 17 17 18 18 18 19 17 18 18 19 19 18 18 18 17 17 17 16 16 16 16 16 16 17 16 17 17 19 18 19 18 19 19 18 19
20 21 23 23 24 22 21 19 19 19 19 20 19 21 22 20 19 20 20 20 19 19 19 19 20 19 19 19 17 18 18 19 22 21 18 17 17 17 17 18 18 17 17 18 18 18 19 19 19 20 20 21 22 23
22 23 23 24 23 21 20 19 19 20 20 19 20 19 20 19 21 19 20 19 19 18 21 18 17 18 19 19 20 19 23 19 19 19 20 18 17 19 18 18 19 18 18 19 19 19 20 21 20 21 21 21 22 23
22 22 22 22 23 22 21 20 20 20 20 20 21 22 23 21 22 20 21 21 19 18 18 18 19 20 21 20 19 19 19 19 21 20 22 22 23 21 18 17 18 19 20 19 19 20 21 21 21 21 21 22 23 23

GFSWCAN_con_lsi_069.txt.gz
Lid_Strength_Index
2 2 2 2 2 2 1 1 1 1 1 1 -0 -0 -0 0 1 1 2 1 4 7 5 3 3 5 5 5 10 7 8 8 9 12 12 11 12 10 10 10 11 12 13 13 12 14 16 6 7 10 8 6 6 5
2 2 2 2 2 1 1 1 1 1 1 1 1 1 0 0 1 2 4 1 1 5 5 1 1 1 2 3 6 6 7 8 7 9 9 9 10 9 10 13 8 12 9 11 10 10 7 6 7 5 5 6 5 5
2 2 2 2 2 2 2 1 1 1 1 1 1 1 2 2 2 3 5 3 4 7 6 4 4 1 0 1 0 7 5 4 5 4 8 8 11 8 12 11 9 7 7 8 9 8 7 6 5 5 4 5 4 4
2 2 2 1 1 1 1 1 1 1 1 1 1 1 2 2 2 3 5 4 4 6 8 6 1 2 0 0 1 2 3 3 3 4 7 9 10 6 9 10 8 8 7 8 8 7 6 6 5 5 4 4 4 4
2 1 0 0 0 0 1 1 1 1 1 1 1 1 2 2 2 3 3 3 2 5 7 6 2 2 1 2 2 2 4 4 6 8 8 9 6 7 6 7 9 6 8 9 10 7 7 6 5 5 5 6 5 5
0 0 0 -0 0 0 0 0 1 1 1 0 0 1 1 2 2 4 9 4 2 2 6 10 3 4 3 3 3 4 4 4 6 8 8 6 5 7 9 10 7 6 5 5 7 5 5 5 6 6 7 7 7 7
1 0 0 0 0 0 0 0 0 1 1 0 0 1 1 1 3 6 6 4 2 3 7 9 8 4 3 3 3 4 4 5 6 7 7 6 6 6 8 11 9 8 7 7 7 7 7 7 9 8 9 8 8 9
0 0 1 0 0 0 0 0 0 0 0 0 0 0 1 1 2 4 2 2 2 5 6 10 9 7 4 6 7 4 7 6 7 7 6 7 6 7 11 11 10 10 8 8 9 8 9 9 10 11 10 10 11 12
0 1 1 0 0 0 0 0 0 0 -0 -0 0 0 2 3 4 3 2 1 1 4 8 8 11 12 5 7 6 7 6 10 6 9 9 7 9 14 14 13 13 12 12 12 10 8 9 10 11 12 12 12 12 12
1 1 0 0 0 0 0 0 0 0 -0 -0 2 6 8 3 1 2 5 7 7 5 5 8 6 10 7 7 8 8 8 9 12 10 7 10 14 13 12 12 12 12 12 11 12 12 12 12 11 12 12 12 12 13
0 1 1 1 0 0 0 0 0 1 1 3 7 6 2 1 3 5 8 9 8 9 6 7 7 9 5 9 10 7 10 9 12 10 10 11 15 14 13 13 12 12 12 12 12 12 12 12 12 12 13 13 13 14
0 1 1 1 0 1 1 1 1 1 2 2 4 4 4 5 7 9 10 8 8 10 7 8 8 6 6 5 8 8 10 9 13 8 11 14 15 14 13 14 13 13 13 13 13 13 13 13 12 13 14 15 15 15
1 2 1 2 1 1 1 1 1 1 1 2 5 8 6 8 11 11 13 11 11 9 9 8 9 7 6 7 8 9 12 12 9 11 14 15 14 14 14 14 14 13 13 14 14 14 14 15 15 15 16 16 16 16
2 2 2 3 3 3 3 3 3 2 3 7 9 13 10 12 11 11 10 10 10 9 9 7 9 8 8 9 9 12 12 10 13 14 15 15 15 14 14 14 14 15 15 16 16 16 17 17 17 17 17 17 17 18
3 2 3 4 4 4 4 4 4 4 6 10 9 13 13 11 11 10 10 9 9 9 9 8 8 7 10 11 10 11 13 14 13 14 14 14 14 14 14 14 15 16 16 16 16 16 17 17 18 18 17 17 18 18
2 2 4 3 4 5 5 5 6 6 8 10 12 12 11 11 11 11 10 10 10 9 7 7 10 11 13 11 13 15 13 14 15 14 14 14 15 15 15 15 15 15 15 15 16 16 16 17 17 18 18 18 18 18
2 3 5 5 5 6 5 6 8 11 12 13 13 11 12 12 13 12 11 11 9 9 10 9 12 15 11 13 16 14 16 15 15 14 14 14 15 15 15 15 15 15 16 16 16 16 16 16 16 16 17 17 17 17
2 3 5 5 4 6 8 8 10 12 15 12 13 13 12 12 12 12 11 10 9 9 9 13 10 14 15 16 16 16 15 14 14 15 15 15 15 15 15 16 16 15 15 15 15 15 14 14 15 15 15 15 16 16
3 3 3 4 4 6 10 10 9 14 14 12 12 11 11 11 11 11 10 9 9 9 10 11 15 16 17 15 16 16 16 15 17 16 16 16 15 15 15 14 14 14 14 14 14 14 14 14 14 13 13 13 14 14
5 4 4 4 5 8 11 11 8 12 14 13 12 13 13 13 12 12 12 12 12 13 16 17 17 16 16 15 14 15 15 14 14 15 15 14 14 14 14 13 14 14 14 14 14 14 14 14 15 14 14 14 13 14
5 5 5 4 6 7 9 10 12 12 12 13 12 12 13 12 13 14 14 13 15 16 18 16 16 14 13 13 12 12 12 12 12 12 14 15 14 13 14 14 13 13 14 14 14 15 14 14 14 13 13 14 13 14
4 6 4 5 8 9 10 9 11 11 12 13 13 12 14 15 15 16 14 16 18 16 14 15 14 14 14 15 14 14 14 14 14 13 14 14 14 14 14 13 13 14 14 14 13 13 13 13 13 13 13 14 13 13
6 5 6 8 11 11 13 9 13 12 15 15 13 16 15 15 15 13 17 16 16 14 14 14 15 14 15 15 14 14 13 13 14 14 14 14 14 14 14 14 13 13 14 14 13 12 13 16 15 14 13 13 12 13
8 11 12 12 12 15 12 14 12 14 14 15 16 18 17 15 13 15 18 17 16 14 15 15 14 15 14 14 15 15 14 14 14 14 13 13 14 15 14 14 13 13 13 13 13 13 13 14 16 13 13 13 13 14
13 17 14 16 13 14 15 16 16 15 17 16 16 16 16 13 15 17 18 18 16 15 15 14 14 13 14 15 15 15 14 13 14 15 14 13 14 14 14 14 13 13 12 12 13 13 14 14 14 13 14 14 15 16
18 18 17 16 15 15 15 17 16 15 15 17 17 15 14 15 18 18 17 16 15 15 14 14 14 14 14 13 14 14 15 13 13 14 15 14 14 13 13 13 13 13 13 13 13 13 14 14 15 16 15 16 18 17
19 19 17 16 14 14 14 14 13 14 16 17 16 17 16 19 20 19 16 14 15 14 13 13 12 13 14 15 15 15 14 15 15 15 14 14 14 14 13 14 15 14 13 13 13 14 14 15 15 15 15 14 14 15
19 18 20 18 18 16 18 17 17 18 17 16 16 20 20 20 20 16 16 15 14 14 14 13 13 13 14 15 15 15 15 16 16 15 14 14 14 14 14 14 14 16 14 14 14 14 14 15 15 15 15 15 15 15
19 17 19 23 20 20 20 19 19 19 18 16 18 19 20 19 16 17 16 15 14 14 15 16 16 15 15 15 15 14 14 14 17 19 19 15 14 14 13 13 13 14 13 14 16 16 15 15 15 16 16 15 15 15
20 16 20 22 22 22 21 18 19 18 17 17 18 19 19 18 16 14 15 14 14 15 15 15 15 14 16 16 17 17 16 16 16 16 15 15 15 14 14 14 14 14 14 14 14 15 15 15 15 15 16 16 15 16
17 17 19 20 21 19 18 17 17 16 16 16 16 18 19 18 17 16 16 16 16 15 16 17 16 15 16 16 15 16 17 17 18 18 16 15 14 14 15 15 15 15 15 15 15 15 16 16 15 16 16 17 18 19
18 20 21 22 22 19 17 17 17 17 17 17 18 17 16 17 18 17 17 15 16 16 17 15 16 17 16 17 17 18 18 17 17 17 17 15 15 16 15 15 15 15 15 16 16 16 17 17 17 17 17 17 18 19
18 18 19 20 21 20 19 17 17 18 17 17 18 18 18 17 19 18 18 17 16 15 16 16 16 17 18 17 17 17 17 17 18 18 19 19 20 18 16 15 15 16 17 16 16 16 17 17 18 18 18 19 19 19

GFSWCAN_con_lsi_072.txt.gz
Lid_Strength_Index
1 1 2 2 2 2 2 1 1 1 1 0 -0 -0 -1 -1 -1 0 1 -1 3 6 6 4 4 6 6 6 10 7 9 8 9 12 12 12 12 11 12 10 12 13 14 15 13 15 17 7 8 12 9 7 7 7
2 2 2 2 2 2 1 1 1 1 1 1 1 0 -0 -0 -0 0 3 0 -0 5 5 2 2 1 2 3 6 6 8 8 7 10 9 11 12 11 11 14 8 13 10 12 11 12 8 6 7 6 5 7 7 7
2 2 2 2 2 1 1 1 1 1 1 1 1 1 0 -0 -0 0 1 1 3 6 5 5 5 2 1 1 1 8 6 5 6 5 8 9 12 9 13 12 11 9 7 11 10 9 8 7 5 5 5 6 6 7
2 2 2 2 1 1 1 1 1 1 1 1 1 1 1 1 1 1 4 3 3 6 9 7 1 3 1 1 1 2 3 3 4 5 8 10 11 7 11 10 10 8 8 9 11 9 8 7 6 6 6 5 6 5
2 2 1 0 0 -0 -0 -0 0 1 1 1 1 1 1 1 1 2 3 2 2 5 8 7 3 2 1 1 2 2 3 4 6 8 9 10 8 8 8 8 11 8 9 11 13 8 8 9 7 6 6 7 6 7
1 1 1 0 0 0 -0 -0 -0 -0 0 1 1 1 1 1 1 4 9 3 1 2 6 10 4 3 2 2 3 4 3 5 6 8 8 7 5 8 11 12 9 7 7 8 9 7 7 7 7 7 8 7 7 8
1 1 0 0 0 0 0 -0 -0 -0 0 0 1 1 1 1 3 6 7 3 1 2 7 9 8 4 3 3 4 4 3 5 6 7 8 8 7 7 10 13 11 10 7 8 7 7 8 9 10 9 8 8 9 10
1 0 0 0 0 0 0 0 0 -0 0 0 0 1 2 2 3 5 2 2 2 5 5 10 9 7 3 6 8 4 7 6 6 8 7 8 7 7 13 12 12 11 9 10 9 8 9 9 10 10 10 10 11 12
0 0 0 0 0 0 0 0 0 -0 0 0 1 1 2 4 6 4 1 2 2 5 8 9 11 12 4 6 6 6 7 10 7 9 9 8 10 15 14 13 13 12 12 11 9 10 10 10 11 11 11 12 12 13
1 1 1 0 0 0 0 0 0 -0 -0 1 3 6 8 4 1 2 5 8 8 6 5 9 7 10 6 7 8 9 7 10 12 9 7 11 15 12 12 12 12 12 12 11 12 13 13 12 12 13 13 13 13 14
1 1 1 0 0 0 0 0 0 1 1 4 6 6 2 1 3 6 9 9 8 10 7 7 7 9 5 9 10 7 10 9 12 11 11 12 15 14 12 13 13 12 12 13 12 13 13 13 13 14 14 15 15 15
1 1 1 1 0 1 0 0 1 1 2 3 3 2 3 5 7 9 10 9 9 10 7 8 7 7 7 6 9 8 11 10 14 8 11 15 16 14 13 14 14 14 14 14 14 14 14 14 14 15 15 16 16 16
1 1 1 1 1 1 0 1 1 1 1 2 4 6 7 8 11 12 13 11 11 9 8 8 9 7 6 6 8 9 12 12 9 12 15 16 15 14 14 14 15 14 14 15 15 15 16 16 15 16 17 17 17 18
2 2 2 2 3 2 1 1 1 2 3 6 8 12 10 11 11 11 11 10 9 8 8 7 8 8 8 9 10 12 12 10 13 14 17 16 15 15 14 14 15 16 16 16 16 16 16 16 17 17 17 18 18 19
2 3 3 4 3 3 3 3 3 3 6 9 9 13 13 11 10 10 9 9 9 8 8 7 7 8 10 11 10 12 13 14 15 16 15 15 14 14 15 15 15 15 15 16 16 16 17 17 18 18 17 17 18 18
2 2 4 3 4 4 4 4 4 5 7 10 11 11 10 10 10 10 9 10 8 8 8 6 10 11 13 11 13 14 13 15 16 15 14 14 15 15 15 15 15 15 15 15 16 16 17 17 18 18 18 18 18 18
2 3 4 4 4 4 4 5 7 9 10 11 12 10 10 10 11 11 10 10 8 9 10 8 12 14 11 14 15 15 16 15 14 14 14 14 15 15 15 15 15 15 16 16 16 16 16 16 15 16 17 17 17 17
3 5 4 4 4 5 6 6 9 11 13 11 12 12 12 11 11 11 10 9 8 9 10 12 10 14 15 15 17 15 15 14 14 14 15 15 14 14 14 15 15 15 15 14 14 14 14 14 15 15 15 15 16 16
2 4 4 5 4 6 9 9 8 13 12 11 11 11 11 12 11 10 10 9 9 8 9 12 15 16 16 14 15 15 15 15 16 16 15 15 15 15 14 14 14 14 14 13 14 14 14 14 14 14 14 14 15 14
3 3 3 4 4 8 11 10 7 11 12 12 11 12 12 12 11 11 11 11 11 12 15 16 16 15 15 14 14 14 14 14 14 15 15 14 13 13 13 13 14 13 14 14 14 14 14 15 15 15 15 15 14 14
4 5 5 4 6 7 8 10 11 11 11 12 11 11 12 11 12 13 13 12 14 16 17 15 15 14 13 12 12 11 12 11 12 13 14 15 13 13 13 13 13 13 13 13 14 14 14 15 14 14 13 14 14 14
5 5 4 5 8 9 10 8 11 10 11 12 11 11 12 14 14 15 14 16 17 16 15 15 14 14 14 14 14 13 13 13 13 13 14 13 14 14 14 13 13 14 14 14 14 14 14 14 15 13 13 13 14 15
6 4 5 7 10 11 13 8 12 11 13 14 12 14 14 15 14 13 17 17 16 13 13 14 14 14 15 14 14 13 12 13 14 14 14 14 14 13 14 14 13 14 14 14 14 13 14 18 15 14 13 13 13 14
7 9 10 10 11 14 10 12 11 13 13 14 15 17 16 15 13 15 17 16 15 14 15 15 14 15 14 14 15 14 14 13 14 13 13 13 14 15 14 14 14 14 14 14 13 13 13 13 17 13 14 14 14 15
12 16 13 14 11 13 15 15 14 14 16 15 16 16 16 13 15 16 17 17 15 15 14 13 13 13 14 15 15 15 13 13 14 15 14 13 14 14 14 14 14 14 13 13 13 13 14 14 14 14 15 14 16 15
17 17 15 14 14 14 14 16 15 15 15 16 16 14 13 14 16 18 17 15 15 14 14 13 13 14 14 13 14 15 15 13 13 15 15 14 14 14 14 15 14 15 13 13 13 13 13 14 14 15 15 15 19 17
18 18 16 14 13 13 14 13 12 14 15 16 15 15 15 18 19 18 14 13 14 13 12 12 12 13 14 15 15 15 15 15 15 15 15 15 15 14 14 15 15 15 13 14 13 14 14 15 14 15 15 14 14 14
18 17 20 17 17 15 17 16 16 17 17 15 15 18 19 18 19 16 15 14 13 13 13 13 13 13 14 14 14 15 15 15 15 15 15 14 14 14 14 15 15 15 15 14 15 14 14 15 15 15 15 15 15 14
18 17 19 22 19 19 19 18 18 18 17 15 17 19 20 18 16 16 15 14 13 14 16 16 16 15 15 14 14 14 14 15 15 18 17 16 15 16 14 14 13 14 13 14 15 15 14 15 15 15 16 16 15 15
18 15 19 21 21 22 20 17 18 17 17 17 18 18 18 17 15 13 13 13 14 15 15 15 14 15 16 16 17 17 16 16 17 16 16 16 16 15 14 14 14 14 14 14 15 14 13 14 14 14 15 15 15 15
15 15 18 19 21 19 17 16 15 15 15 16 16 18 19 18 17 15 15 14 14 15 15 16 16 15 16 16 16 17 18 18 19 18 16 15 15 15 16 16 15 15 15 15 15 15 16 17 16 16 16 16 17 18
16 18 20 22 21 17 16 15 16 17 17 17 18 16 16 16 18 17 16 14 14 16 16 15 16 18 17 17 18 18 18 17 17 17 16 15 15 16 15 15 15 15 16 16 16 16 16 17 17 17 17 17 18 18
17 17 18 19 20 19 17 16 17 17 17 17 18 17 17 17 19 18 16 15 15 15 17 17 17 17 17 17 17 17 18 19 20 18 19 19 20 19 17 15 15 16 16 17 17 16 17 17 18 18 19 19 19 19

GFSWCAN_con_lsi_075.txt.gz
Lid_Strength_Index
3 2 2 1 1 2 2 2 2 1 1 1 0 -0 -0 -1 -1 1 3 2 4 7 6 5 5 7 6 7 10 8 9 8 9 13 13 13 14 12 13 12 12 13 15 16 15 17 18 8 9 13 10 7 8 8
2 2 1 2 2 2 2 2 1 1 1 1 1 0 -0 -1 -1 -0 5 2 2 5 7 4 4 3 4 5 6 8 8 8 8 10 11 11 13 12 12 16 10 14 12 14 12 13 8 7 8 7 7 8 8 9
2 1 2 2 2 2 2 2 1 1 1 1 1 1 0 -0 -1 -0 3 4 4 7 6 7 7 4 3 3 2 8 6 5 7 5 8 10 13 11 15 13 12 10 7 11 11 9 9 8 7 7 7 8 8 9
2 2 2 2 2 2 1 1 1 1 1 1 1 1 1 0 -0 -0 3 3 4 6 12 9 3 4 3 3 3 3 4 3 4 6 8 10 12 8 12 11 12 10 9 11 11 11 10 9 8 8 8 8 9 9
3 2 2 2 2 1 0 0 0 0 0 1 1 1 1 0 -0 0 2 3 3 6 9 8 5 3 3 3 4 4 4 5 7 8 9 11 8 9 9 9 12 10 12 12 13 10 11 11 9 8 9 10 10 10
2 2 2 1 1 0 0 0 0 -0 -0 0 1 1 1 1 1 4 9 4 2 3 7 11 4 5 3 3 4 4 5 6 7 8 9 8 6 8 12 13 11 11 10 10 10 8 9 10 10 9 10 11 11 12
2 1 1 1 0 0 -0 -0 -0 -0 -0 -0 0 1 1 1 3 6 7 4 2 2 7 9 9 5 3 4 5 5 5 6 6 7 8 8 8 8 11 14 12 11 10 10 9 8 12 12 12 10 10 10 11 13
1 1 0 0 0 0 0 0 0 -0 -0 -0 0 0 1 1 2 5 2 2 2 4 5 10 10 8 4 8 8 5 7 6 6 8 7 9 8 9 15 13 13 12 11 11 10 9 10 10 11 12 11 11 13 14
0 0 0 0 0 0 0 0 -0 -0 -0 -0 0 1 3 4 6 4 1 2 2 5 9 9 11 12 5 7 6 7 6 10 6 9 9 8 12 17 14 14 14 13 13 13 11 12 11 12 12 13 13 13 15 15
1 1 1 0 0 0 0 0 -0 -0 -0 1 3 6 9 5 1 1 5 7 7 6 6 9 7 11 7 8 9 9 9 10 12 10 8 13 15 13 13 14 14 14 13 13 15 15 14 14 15 16 16 15 16 16
1 1 0 0 0 0 0 -0 -0 1 1 4 6 7 3 1 4 6 10 10 9 10 9 8 8 9 6 10 10 9 10 11 13 11 11 14 16 15 14 15 14 14 14 14 14 15 15 15 16 17 17 17 17 18
1 0 -0 0 0 0 0 1 1 2 3 4 3 3 4 6 7 10 10 10 11 13 10 10 8 7 7 6 9 10 11 10 14 9 12 18 16 15 15 16 16 15 15 16 16 16 16 16 17 17 17 18 18 18
1 2 1 1 1 0 0 0 1 1 1 2 4 7 7 9 12 14 15 15 12 10 9 9 9 8 7 6 9 10 12 14 12 14 19 18 16 16 15 16 16 16 16 17 17 17 17 18 17 18 19 20 19 19
2 2 2 2 2 1 1 1 2 2 4 7 10 17 12 12 13 13 12 11 10 9 9 9 10 10 9 11 10 13 13 12 16 20 20 18 19 18 17 16 16 18 18 18 20 19 20 20 20 20 20 21 21 21
2 3 3 3 2 2 2 2 2 4 7 10 11 15 15 13 14 11 10 10 10 9 9 10 11 10 11 13 12 14 14 16 18 22 20 17 17 17 18 18 17 18 19 19 21 20 21 21 21 20 21 21 21 22
2 3 4 3 3 2 3 3 5 5 8 11 12 13 12 12 12 11 10 11 9 10 9 11 11 13 14 13 15 19 16 21 22 20 18 18 19 19 17 17 19 20 20 20 21 21 21 23 22 22 22 23 24 23
1 5 3 3 3 3 3 6 7 10 11 12 15 13 11 15 14 12 11 10 9 10 10 12 15 14 13 17 19 18 21 19 17 17 17 19 20 21 19 19 18 18 17 17 19 20 21 20 19 19 20 21 19 20
6 5 4 4 4 5 6 7 10 11 13 13 15 14 15 12 12 12 10 11 10 12 13 14 13 18 21 20 21 19 17 16 17 17 17 18 18 17 16 17 17 16 17 18 18 18 17 18 17 19 18 17 17 17
5 5 3 4 4 7 9 9 9 14 12 13 11 11 11 12 11 11 11 11 12 12 12 14 17 20 19 18 18 18 18 18 17 17 17 17 18 18 17 15 16 16 15 15 15 17 16 16 17 17 16 16 17 17
4 4 4 4 4 9 11 11 8 12 13 13 11 13 12 12 11 12 12 12 13 14 17 18 18 16 17 16 16 16 16 16 17 18 18 18 15 15 15 15 17 17 16 15 16 17 15 16 17 18 18 17 17 19
4 5 4 4 6 8 10 11 12 12 12 13 12 13 14 13 14 15 16 14 16 17 18 17 16 15 14 14 14 14 13 13 17 18 17 17 18 17 17 16 15 15 15 16 18 20 19 20 19 18 21 24 24 24
6 4 6 6 9 10 11 10 11 11 12 12 12 12 14 17 17 17 15 17 18 17 17 16 16 16 15 16 16 14 14 14 15 16 17 16 17 17 18 18 17 21 20 22 20 22 21 20 20 18 19 23 20 21
5 5 8 9 13 14 13 9 12 11 15 15 13 15 16 18 16 14 19 18 17 16 15 15 15 15 16 15 15 14 14 14 16 17 17 18 18 20 19 19 18 20 19 20 18 18 22 22 21 23 20 19 18 20
7 11 12 14 14 15 12 15 12 13 13 14 16 17 17 18 15 18 20 19 18 17 16 16 16 16 16 16 17 17 16 16 17 19 17 17 19 19 18 18 19 20 20 18 18 21 21 23 23 17 21 24 20 24
15 18 16 18 14 17 18 17 16 15 19 18 19 19 19 15 19 20 21 19 17 17 19 16 15 15 18 21 20 19 16 15 17 18 20 17 19 19 18 18 19 19 18 18 18 20 23 24 24 24 23 25 24 25
21 20 18 16 16 17 17 20 19 19 19 20 20 17 16 17 21 22 20 17 17 19 18 16 18 17 17 16 18 19 18 16 16 19 18 17 18 22 22 21 20 20 19 22 23 23 18 19 23 23 24 22 21 24
22 21 17 14 14 14 17 16 16 18 21 22 19 20 22 26 26 20 16 17 16 15 14 14 14 17 18 18 18 18 18 18 18 18 18 18 18 18 21 24 23 21 19 20 21 25 25 25 25 23 23 24 21 20
20 18 24 19 20 18 21 21 21 21 22 18 19 25 26 26 23 18 16 15 16 16 17 16 15 16 17 18 19 21 22 22 21 19 19 20 21 22 23 23 23 17 22 24 25 25 24 25 25 24 22 22 23 23
21 20 21 26 23 23 22 22 22 21 19 19 25 26 24 19 17 17 17 16 16 17 18 19 20 20 18 18 18 19 20 22 23 26 27 23 23 23 23 23 20 21 24 23 18 20 21 23 24 24 24 25 25 25
21 19 23 25 26 25 22 19 22 22 21 22 19 19 19 18 16 16 17 16 17 19 20 21 20 21 24 23 26 25 24 25 27 26 24 25 24 24 24 24 24 24 24 24 24 23 18 22 22 21 21 22 24 26
17 20 22 22 24 20 19 18 18 19 19 20 21 21 23 20 19 17 16 18 19 19 18 21 20 22 23 23 24 24 27 27 28 27 26 26 23 25 26 26 25 25 23 25 25 26 26 27 27 27 27 27 27 28
20 23 25 25 23 19 17 21 22 20 20 21 23 24 23 22 24 21 20 19 17 19 19 19 23 25 26 27 26 24 24 26 27 27 26 23 26 26 25 23 24 24 25 26 26 25 25 27 28 28 29 28 29 28
21 21 22 24 24 23 21 21 21 20 19 21 21 20 22 24 26 23 20 17 17 20 21 21 23 24 24 25 24 24 25 28 27 22 24 24 26 25 27 26 27 27 27 27 27 27 26 26 27 28 29 29 29 30

GFSWCAN_con_lsi_081.txt.gz
Lid_Strength_Index
3 3 3 3 3 3 3 3 2 2 2 2 2 1 0 -1 -1 1 3 3 6 10 8 6 6 9 9 10 14 10 11 9 9 12 13 13 14 12 14 12 13 14 15 16 15 17 18 8 9 13 10 9 9 10
2 3 3 3 3 3 3 2 2 2 2 2 1 1 1 -0 -1 -0 4 3 4 7 9 5 4 5 6 7 9 8 10 9 9 11 11 10 13 13 13 16 10 15 12 14 13 14 9 8 8 7 8 10 10 10
3 3 3 3 3 3 2 2 2 2 1 1 1 1 1 0 -1 0 3 3 3 6 7 9 8 6 4 4 4 9 8 6 8 6 8 10 12 11 15 14 13 12 10 12 12 10 9 10 10 10 11 12 11 11
3 3 4 3 3 2 2 2 2 2 1 1 1 1 0 0 -0 -0 3 3 5 8 14 11 5 7 4 4 5 5 5 5 5 6 8 10 12 8 12 12 14 13 12 11 11 10 10 11 12 11 12 12 13 14
3 3 3 3 3 2 2 2 2 1 1 1 0 0 0 0 -0 0 1 2 3 8 12 10 7 5 4 5 6 6 6 6 7 8 10 10 8 9 10 11 15 13 14 14 13 11 12 12 12 13 14 15 14 15
4 3 3 3 2 2 2 2 1 1 1 0 0 0 -0 0 0 2 7 3 2 4 9 13 8 7 5 5 6 6 6 6 6 7 9 8 6 8 12 15 14 13 12 11 12 11 11 12 12 13 15 15 15 16
3 3 3 2 2 2 2 1 1 1 0 -0 -0 -0 0 0 2 4 6 4 2 3 7 12 12 7 4 5 6 6 5 6 6 7 9 8 8 9 13 17 15 13 12 11 11 10 13 12 14 13 14 16 16 17
3 3 2 2 2 2 2 1 0 0 -0 -0 -0 -0 0 0 1 4 3 1 2 5 6 11 12 8 5 9 8 6 8 6 7 9 7 9 10 11 17 15 14 14 12 13 12 12 13 13 13 14 14 15 17 18
3 2 2 2 2 1 1 0 0 -0 -0 -0 -0 -0 2 4 6 4 1 1 2 5 10 10 12 12 5 7 7 7 8 10 7 9 9 10 14 18 16 15 15 15 15 15 13 13 14 15 16 15 15 16 17 18
2 2 2 1 1 0 0 0 -0 -0 -1 -0 2 5 8 5 1 1 3 7 7 6 6 10 9 11 7 9 9 9 8 10 12 10 10 14 17 15 15 15 15 15 15 15 15 16 15 17 17 17 17 17 17 18
2 1 0 0 0 0 0 -0 -0 -0 -0 3 7 7 3 1 4 6 9 10 10 10 8 9 8 9 6 10 10 8 10 10 13 11 12 16 18 17 15 15 16 16 16 16 16 16 16 16 17 18 18 18 18 19
0 0 0 -0 -0 -0 -0 -0 -0 1 3 3 3 2 3 6 7 10 12 10 11 12 12 10 8 7 7 7 9 9 11 10 14 9 15 23 19 16 16 16 17 17 17 17 16 17 17 17 17 18 18 20 21 21
-0 0 -0 -0 -0 -0 -0 -0 0 0 1 2 4 7 7 8 11 14 15 12 12 10 9 8 9 8 8 7 9 9 13 15 11 21 22 21 17 17 17 17 17 17 17 18 18 18 19 20 20 20 22 23 23 23
0 0 0 0 0 0 0 0 0 2 3 7 9 13 12 13 16 16 18 17 11 9 8 8 9 9 9 10 10 17 15 14 22 23 23 21 18 18 17 17 19 22 22 22 23 22 23 23 25 26 27 28 25 26
1 1 1 2 2 2 1 2 3 5 7 10 11 16 19 14 12 11 10 10 9 9 9 10 11 10 13 14 13 13 17 22 21 23 25 20 19 19 20 20 21 22 23 23 25 24 26 25 25 25 28 26 25 27
2 2 3 2 3 3 3 4 5 6 9 11 13 14 13 14 14 12 11 11 9 9 9 11 13 15 15 15 16 19 18 21 24 26 23 20 21 21 21 21 22 24 23 25 26 26 26 26 25 26 26 27 29 27
3 5 3 2 3 3 4 6 8 10 11 13 16 15 18 17 16 13 12 12 10 9 12 14 17 17 14 20 21 20 23 25 24 21 20 23 21 22 23 22 22 21 22 24 25 24 25 25 25 22 23 24 22 23
5 3 2 2 4 5 6 7 10 11 14 15 16 14 14 16 18 13 12 12 11 12 14 17 15 21 24 22 25 24 21 23 22 21 23 24 22 21 20 22 22 21 22 23 22 22 22 22 20 21 20 19 19 19
4 4 3 3 3 7 9 10 10 15 16 16 15 14 17 17 16 14 13 12 13 13 15 18 22 25 26 24 25 23 22 21 19 19 19 21 21 20 21 20 20 21 20 19 18 19 18 17 18 18 18 16 18 18
3 4 4 3 3 9 10 11 9 12 15 14 14 14 14 16 15 17 15 14 14 15 19 22 23 20 22 23 23 18 18 17 18 19 20 20 21 20 21 19 20 19 18 17 18 19 18 19 19 20 20 19 21 21
4 4 4 4 7 8 10 12 12 12 12 14 13 14 16 15 17 18 17 14 18 19 21 21 18 17 17 16 16 16 18 17 20 21 21 19 22 19 19 19 18 18 19 21 21 22 22 23 22 21 27 29 30 29
6 4 7 7 9 9 10 10 12 11 12 12 13 13 18 20 21 19 16 19 20 21 20 19 18 16 17 18 18 16 17 17 18 19 20 19 20 20 20 22 20 24 22 24 22 25 25 22 23 24 28 29 26 25
4 6 9 10 13 13 13 9 13 12 17 15 14 17 20 21 19 15 22 20 21 19 17 17 17 16 16 16 16 15 15 16 18 18 19 20 21 24 22 23 24 24 25 23 22 24 26 25 26 28 28 26 28 27
8 11 15 16 14 16 14 16 12 13 14 16 18 20 20 21 17 22 23 20 20 18 17 17 17 18 18 18 19 18 18 18 20 22 20 20 21 22 21 22 23 23 23 20 22 25 26 29 28 26 30 30 31 28
15 18 18 19 17 19 20 20 20 19 23 21 22 22 20 18 24 25 24 23 21 23 23 20 19 19 22 26 23 20 18 17 19 21 23 20 22 21 22 21 23 22 22 26 27 28 29 31 31 30 28 31 27 28
21 21 19 19 19 19 19 22 22 22 22 23 23 19 20 24 27 27 23 24 24 27 26 21 21 21 20 19 20 20 20 18 19 22 21 20 21 23 25 26 26 25 24 29 29 30 27 25 27 27 28 26 27 30
24 24 17 15 16 15 19 19 17 20 24 24 24 24 26 29 29 23 23 24 22 25 20 18 18 19 20 21 21 21 21 21 21 21 21 21 22 23 24 26 25 23 26 28 30 29 29 29 29 28 28 28 26 26
21 21 22 24 23 21 26 27 28 27 25 20 22 29 29 28 26 22 23 20 19 19 19 19 19 19 21 22 23 23 24 23 23 23 23 23 24 27 29 29 28 22 29 31 31 32 31 31 30 31 31 30 30 31
24 24 22 27 26 26 25 28 27 23 21 23 29 30 27 22 23 23 20 21 19 19 21 22 24 24 25 26 27 28 30 25 27 29 32 32 32 27 29 31 32 32 33 28 23 24 25 26 27 29 29 31 29 32
24 25 27 31 30 28 28 27 27 26 22 25 23 22 23 22 20 20 21 21 22 23 25 23 24 24 27 26 30 28 32 35 31 27 30 32 28 29 30 30 30 33 35 32 31 28 23 29 26 31 31 32 34 34
24 27 28 28 28 27 26 27 25 26 29 29 29 28 28 23 20 19 21 23 22 22 23 27 30 32 27 31 33 32 31 30 34 33 30 30 33 34 34 34 34 35 34 33 33 33 32 33 35 34 34 33 32 35
31 33 29 29 27 26 28 30 29 29 29 29 28 32 29 28 29 25 21 24 25 26 30 27 26 28 32 34 34 33 28 28 31 32 31 33 35 36 34 33 35 35 34 34 35 34 34 33 34 34 34 33 33 34
32 33 33 30 27 27 26 28 29 29 29 28 27 29 33 31 30 27 24 24 25 25 27 30 29 29 30 28 27 28 29 32 33 26 29 30 32 32 36 37 37 36 34 34 36 35 33 33 33 33 34 35 34 33

GFSWCAN_con_lsi_084.txt.gz
Lid_Strength_Index
4 4 3 3 3 2 2 3 3 3 2 2 2 2 2 1 0 1 3 2 4 8 9 7 7 10 9 10 13 10 11 10 10 12 13 13 14 12 13 12 13 14 15 15 14 17 18 8 9 13 10 11 13 13
4 3 3 3 2 3 3 3 3 2 2 2 2 2 2 1 0 0 4 2 3 6 9 6 5 5 7 7 9 9 10 9 9 11 11 10 12 12 13 16 10 15 12 14 13 14 9 9 9 10 11 12 11 13
4 3 3 3 3 3 3 3 2 2 2 2 2 1 1 1 0 1 4 3 3 5 7 9 9 6 5 5 5 10 8 6 7 6 8 10 13 11 14 14 13 13 10 13 12 11 11 10 10 12 12 13 13 12
3 3 3 3 3 3 3 3 2 2 2 2 1 1 1 1 0 0 3 3 4 7 11 11 6 7 5 5 5 5 6 4 6 7 8 10 12 8 12 13 15 14 13 14 12 10 10 12 12 13 13 14 14 14
3 3 3 3 3 3 3 2 2 2 2 1 1 1 0 0 0 1 2 2 3 7 13 11 7 6 5 6 6 6 6 7 8 11 9 12 9 9 10 12 17 14 15 16 15 11 12 14 14 14 15 16 15 16
3 3 3 3 3 3 2 2 2 1 1 1 1 0 -0 0 0 2 7 2 2 3 8 14 8 8 6 6 7 8 8 7 8 8 8 9 6 9 12 15 15 13 13 12 12 11 12 13 14 14 16 16 16 17
3 3 3 3 3 3 2 2 1 2 1 1 1 -0 -0 0 2 5 6 4 2 3 7 11 12 8 5 6 7 8 6 7 8 7 10 9 9 10 14 17 14 14 12 12 12 10 13 13 15 15 15 16 16 17
3 3 3 3 3 2 2 2 2 1 1 1 -0 -0 -0 0 1 4 3 1 2 5 6 11 13 10 5 9 9 7 9 8 7 8 9 9 11 12 17 15 14 14 13 13 13 13 13 14 14 15 15 16 18 18
3 3 3 3 2 2 2 2 1 1 1 -0 -0 -0 1 4 5 3 1 1 2 5 10 10 12 15 5 7 6 7 7 12 8 9 9 10 14 18 16 15 16 15 16 16 14 14 15 16 16 16 16 16 18 18
4 3 3 2 2 2 2 1 1 0 -0 -0 2 5 9 5 1 1 4 7 7 7 6 12 10 11 7 7 9 10 8 10 12 10 11 15 19 15 15 15 16 16 16 15 15 16 16 17 17 17 17 17 18 19
3 2 2 2 2 1 1 1 0 -0 -0 3 6 7 3 0 4 6 9 9 9 10 8 8 10 12 5 9 10 8 10 9 13 11 12 16 19 16 15 16 16 16 16 16 16 16 16 17 17 18 18 19 19 20
2 2 2 1 1 0 0 0 -0 1 3 3 3 2 3 6 7 9 11 10 11 12 10 10 9 9 7 7 9 9 11 10 14 10 14 21 18 16 16 17 17 17 17 17 17 17 17 18 18 19 20 21 22 22
2 1 0 0 0 -0 -0 -0 -0 0 1 2 4 7 7 8 11 15 15 13 13 13 10 8 9 8 7 7 9 9 12 13 11 19 21 22 17 17 17 17 17 17 17 18 19 19 20 21 21 21 23 24 24 25
0 0 0 -0 -0 -0 -0 -0 0 1 3 7 8 12 11 13 15 14 13 15 12 8 9 8 8 9 9 10 10 16 14 11 17 21 21 20 19 18 18 18 19 22 22 22 24 23 23 24 26 26 27 29 26 28
1 1 2 1 0 0 -0 1 2 4 7 10 10 13 17 14 13 10 9 9 9 8 8 9 10 9 13 14 13 13 15 17 20 21 25 21 20 20 21 22 23 25 26 25 26 25 28 26 25 27 29 29 27 29
2 2 3 2 2 3 3 4 5 6 9 10 14 15 13 14 12 11 10 10 8 8 9 10 13 16 16 15 15 17 18 21 24 27 24 21 22 22 22 21 22 23 24 26 28 26 26 27 26 27 28 28 30 29
2 4 2 2 2 3 4 7 8 10 11 13 16 15 17 17 14 12 11 11 9 9 13 14 17 16 14 18 19 19 22 24 25 22 22 22 21 22 24 24 23 23 24 25 26 25 26 27 26 23 24 25 23 24
4 3 3 3 4 4 6 7 9 10 14 14 16 15 14 16 14 13 14 12 10 12 14 16 14 20 22 20 23 25 24 24 24 21 23 25 24 23 21 23 23 22 23 24 23 23 23 23 20 20 20 20 20 20
3 3 2 3 4 7 9 10 10 14 15 15 14 15 16 17 14 13 14 13 13 14 15 18 21 23 24 25 26 26 23 23 20 21 23 24 22 21 22 21 21 22 21 21 18 19 19 18 18 19 19 18 20 19
3 3 2 2 4 9 10 11 9 12 15 14 15 15 16 17 16 15 15 14 14 15 19 22 24 21 24 24 23 19 20 18 18 20 21 21 21 20 22 20 21 19 17 17 19 20 19 20 21 21 22 21 23 24
4 4 3 4 8 9 11 11 12 12 12 15 14 15 16 15 17 18 18 15 18 19 22 22 18 17 19 19 17 17 18 18 21 21 20 20 21 20 20 20 18 19 20 22 23 24 23 23 22 22 28 30 31 31
5 3 6 6 9 10 11 11 12 12 13 12 13 14 18 21 21 20 17 19 21 22 21 18 17 17 18 18 18 17 18 17 18 19 20 19 20 20 22 23 20 24 24 24 23 26 26 23 24 25 29 30 27 26
4 6 9 9 12 14 14 10 14 12 17 15 15 18 20 21 19 15 21 20 22 19 19 17 17 16 17 17 16 16 16 17 19 20 21 22 22 26 23 24 25 25 25 24 23 25 26 26 27 30 31 29 30 30
8 11 12 13 12 15 12 15 12 13 14 16 18 20 20 21 17 22 24 22 21 18 17 17 17 18 17 18 20 20 19 19 21 23 22 20 22 23 23 23 24 24 24 22 23 27 27 32 30 28 32 31 33 31
13 16 15 17 15 16 17 19 20 18 21 21 21 22 21 18 25 26 24 23 22 21 22 20 19 19 22 24 21 21 20 18 19 21 24 21 23 22 23 23 24 23 24 28 29 30 29 33 33 31 30 32 28 29
20 19 19 18 19 19 19 22 24 23 23 24 23 20 21 25 27 27 23 25 23 24 24 22 22 21 21 20 21 22 21 19 19 23 22 21 22 24 27 27 27 26 26 30 31 32 30 29 28 26 26 26 28 31
24 23 17 16 16 16 21 21 19 22 26 25 24 25 27 28 29 25 23 24 22 26 22 21 19 20 20 22 21 22 21 21 21 22 23 23 23 24 25 28 26 24 26 29 32 31 30 31 31 31 31 32 31 30
21 21 22 24 24 22 28 28 29 28 26 21 23 30 28 28 27 23 22 20 21 20 21 21 21 20 21 23 23 23 25 24 24 24 24 24 26 28 30 30 26 24 32 34 33 35 32 32 31 32 32 31 31 30
25 25 22 27 27 26 26 28 28 24 21 25 30 30 26 23 25 25 20 20 21 20 23 24 27 27 26 27 29 29 28 26 28 31 33 33 33 28 31 34 34 35 36 32 26 26 28 28 30 31 32 33 32 34
25 26 27 31 31 29 28 28 28 27 24 25 24 22 24 25 22 20 21 23 24 24 27 24 28 25 26 26 30 30 35 37 32 28 30 31 27 30 33 33 34 36 38 34 33 30 24 30 28 33 33 33 36 36
24 28 29 28 29 29 28 29 28 27 30 31 32 30 29 26 22 21 22 22 23 23 24 28 31 34 27 29 31 30 29 31 35 34 32 30 30 33 36 36 37 39 38 36 35 35 34 34 36 35 34 33 32 35
31 33 30 31 29 28 29 33 31 30 29 28 30 35 32 30 31 26 24 23 23 25 28 26 27 30 33 34 34 33 28 29 32 30 29 30 35 38 37 36 39 38 37 36 37 36 35 34 35 35 35 34 34 35
34 35 34 31 29 30 30 30 30 29 29 29 29 35 37 32 30 28 25 25 25 25 26 32 31 29 29 29 28 29 29 32 32 26 30 30 34 34 39 40 40 38 35 36 37 37 35 35 34 35 35 36 34 33

GFSWCAN_con_lsi_087.txt.gz
Lid_Strength_Index
4 4 5 5 4 4 3 3 3 3 2 2 2 2 2 2 2 3 4 3 5 9 8 7 6 8 9 9 12 10 10 9 9 12 12 13 13 12 13 11 13 13 14 15 13 16 17 9 8 13 11 11 12 14
4 4 4 4 4 4 3 3 3 3 3 2 2 2 1 2 1 2 5 3 3 6 7 5 5 5 6 6 8 8 9 9 8 11 10 10 12 11 12 15 10 14 12 13 13 13 11 10 11 11 11 12 13 13
4 4 4 4 4 3 3 3 3 2 2 2 2 2 2 1 1 2 4 3 5 6 7 7 8 5 4 4 4 9 7 6 7 6 9 9 12 10 14 14 13 13 11 12 13 13 13 12 11 11 13 14 14 13
4 3 3 3 3 3 3 3 3 2 2 2 2 1 1 1 1 2 4 3 4 7 11 9 5 6 4 4 5 5 6 4 5 6 9 9 12 8 12 13 14 14 13 14 13 12 12 13 13 13 14 14 14 15
4 3 3 3 3 3 4 3 3 2 2 2 1 1 1 1 1 2 2 2 3 6 11 9 6 5 4 5 6 5 6 6 7 9 9 10 8 9 10 12 16 13 15 15 16 12 14 15 14 14 16 16 15 16
3 3 3 3 3 3 3 3 2 2 2 2 1 1 1 0 0 3 7 3 2 3 7 12 7 7 5 5 6 7 7 6 7 8 8 7 6 8 12 15 14 13 12 13 12 13 13 14 14 14 16 17 17 17
2 3 3 3 3 3 3 2 2 2 2 1 1 1 0 0 2 5 6 4 2 3 7 10 10 7 4 5 6 7 6 6 6 7 8 8 9 10 13 16 15 14 12 13 11 12 14 14 16 15 16 16 16 17
2 3 3 3 3 2 2 2 2 2 2 1 1 1 0 0 1 4 2 1 2 5 6 10 11 9 4 7 7 6 8 6 6 7 7 8 10 11 16 15 14 14 13 13 14 13 14 14 14 15 15 16 18 18
2 3 3 3 2 2 2 2 2 2 1 1 1 1 2 3 5 4 1 2 2 5 10 10 12 13 5 6 6 6 6 9 7 9 8 9 13 17 16 15 16 16 16 15 14 15 15 16 16 16 16 17 18 18
3 3 3 2 2 2 2 2 2 1 1 1 2 5 8 5 1 2 4 7 7 7 6 10 9 11 7 7 8 8 7 9 11 9 10 13 17 15 15 15 15 15 15 14 14 16 16 17 17 17 17 17 18 19
3 3 3 3 3 2 2 2 1 1 1 4 7 7 3 1 4 7 9 9 9 10 8 8 9 10 5 9 9 8 10 9 13 11 11 14 17 16 15 16 16 15 15 15 15 16 16 16 17 18 18 18 19 20
3 3 3 2 2 2 2 1 1 2 3 4 3 2 3 6 7 9 10 10 10 11 9 9 9 7 6 5 8 8 10 10 13 10 13 16 17 15 16 16 17 16 16 17 16 17 17 17 17 18 19 20 21 22
2 2 3 2 2 1 1 1 1 1 1 2 5 7 7 8 11 13 15 12 12 11 11 8 9 8 6 6 8 9 12 12 10 14 15 18 16 16 16 17 17 17 17 18 18 18 19 20 20 20 22 23 22 23
3 2 2 2 1 1 1 0 0 1 3 6 8 11 11 12 12 13 12 11 10 10 9 8 8 8 8 9 9 12 11 10 14 16 16 17 17 17 17 17 19 21 21 21 21 21 22 22 24 24 24 24 23 24
2 1 0 1 0 0 -0 -0 0 3 7 9 9 13 14 13 13 10 10 9 8 8 7 8 8 8 10 11 11 12 13 14 14 15 18 18 18 19 20 20 22 23 23 22 22 23 23 23 23 24 24 23 24 25
2 2 2 0 -0 -0 -0 0 5 6 8 10 12 15 14 12 10 10 10 9 8 8 7 8 10 11 12 13 13 13 15 17 17 19 20 19 21 21 21 20 21 21 21 22 22 22 22 23 22 22 23 23 25 24
2 5 2 2 2 2 3 6 7 9 10 13 17 18 17 16 13 11 10 10 9 8 10 12 14 13 13 16 16 16 17 18 21 20 19 19 20 21 21 21 21 20 21 21 21 21 22 23 22 20 20 20 20 21
4 3 2 3 4 5 7 7 9 11 14 14 16 17 15 15 13 12 12 11 9 10 11 13 12 15 16 16 17 19 20 21 20 19 19 20 20 20 19 20 20 19 20 21 20 21 21 20 19 18 18 18 19 18
3 3 2 3 4 7 9 9 9 14 14 14 13 13 14 14 13 13 12 11 11 11 13 15 17 17 17 19 20 22 20 19 19 20 20 20 19 19 20 19 20 20 19 19 18 18 17 17 17 16 16 16 17 17
2 3 3 3 4 9 10 10 8 12 14 13 12 13 14 14 14 14 14 13 13 14 16 18 19 19 19 19 19 18 18 17 17 19 19 19 18 18 18 18 18 17 17 17 17 18 17 17 17 17 17 17 16 17
4 4 3 5 7 8 10 10 11 11 12 14 13 13 15 14 16 16 16 15 16 18 19 19 17 18 18 18 16 16 16 16 17 17 17 19 18 17 17 17 16 16 17 17 18 19 19 17 18 18 18 19 20 19
5 3 7 6 9 9 10 10 11 11 12 12 13 14 16 18 18 17 16 18 19 19 19 16 17 17 17 17 17 16 17 17 17 18 18 18 18 18 18 17 17 18 18 18 18 18 18 18 18 18 18 19 21 18
4 6 8 9 13 14 14 9 14 12 17 15 15 17 19 19 18 15 20 19 20 18 17 16 16 16 17 16 16 16 15 16 17 17 18 18 19 19 19 19 19 19 19 19 19 19 19 23 21 20 20 20 19 17
7 10 12 13 14 18 13 16 12 13 14 16 18 20 19 19 17 20 21 20 19 17 17 16 16 17 17 17 18 17 18 18 19 20 19 19 20 21 20 20 20 20 19 19 19 20 20 21 25 20 21 20 20 19
13 15 14 17 15 19 19 18 19 18 21 21 21 21 20 17 21 23 21 21 19 19 18 17 17 17 19 20 20 19 18 17 18 20 20 19 20 20 21 21 21 21 21 20 21 20 21 24 23 22 21 20 19 19
17 17 16 15 16 18 18 21 23 22 22 23 22 19 19 22 24 23 21 22 20 21 20 19 19 19 19 18 19 19 19 18 18 20 20 19 19 20 21 21 21 21 22 21 22 21 21 23 22 22 20 20 23 22
19 19 17 16 16 16 21 21 18 21 24 23 21 20 23 25 25 23 21 22 20 22 19 18 17 17 19 20 21 21 20 20 20 20 21 21 21 21 21 21 22 20 22 23 22 21 21 22 22 22 21 21 21 22
20 20 21 23 23 22 26 27 28 27 24 19 21 27 24 25 24 22 21 20 21 20 21 22 21 19 20 21 22 23 23 23 23 23 22 23 24 25 25 23 23 23 24 25 23 24 23 22 21 21 22 21 21 22
25 24 21 27 26 26 26 28 26 22 21 23 27 27 25 23 23 24 20 20 20 20 23 24 26 25 25 26 27 25 22 22 23 26 26 25 25 23 26 25 25 26 25 23 25 24 23 22 22 22 22 22 22 25
25 25 26 30 30 28 26 25 26 25 23 24 23 23 24 24 22 20 20 21 22 22 24 24 25 23 24 24 25 25 29 29 26 23 23 24 23 24 25 24 24 27 27 24 23 22 23 23 22 23 23 23 23 23
24 26 27 27 29 27 26 27 27 26 29 29 31 28 26 25 22 22 22 23 24 23 24 26 28 27 25 25 25 25 24 27 29 28 26 26 25 25 26 27 28 28 26 25 25 24 24 24 24 24 23 23 24 26
30 33 29 30 28 26 27 31 31 28 27 27 28 32 30 28 27 25 24 22 22 23 25 24 24 25 28 28 27 27 26 27 27 26 25 26 26 27 28 28 30 28 27 27 27 26 26 25 24 25 25 25 25 26
34 34 34 31 29 30 31 30 29 28 29 28 28 33 34 30 27 26 24 24 22 22 24 27 27 27 27 27 26 27 27 27 27 25 26 27 28 28 29 30 30 28 27 26 26 26 25 26 25 25 25 27 27 27

GFSWCAN_con_lsi_090.txt.gz
Lid_Strength_Index
4 4 4 4 4 4 3 3 3 2 2 2 2 2 2 2 2 2 3 3 5 7 5 5 5 7 7 7 10 8 7 7 8 11 11 11 11 11 11 11 12 13 14 13 13 15 17 10 8 12 11 11 11 13
4 4 4 4 4 4 4 3 2 2 2 3 2 2 2 2 1 1 4 3 3 6 5 3 3 3 4 4 6 6 7 8 7 9 9 10 11 10 11 14 9 13 12 13 13 14 11 11 11 10 11 12 13 13
4 4 4 4 4 4 3 3 3 3 3 2 2 2 2 1 1 1 3 4 4 6 6 4 5 3 2 2 2 7 5 5 6 5 8 9 11 9 13 12 11 10 9 10 11 12 12 11 11 11 12 14 13 13
3 3 4 4 4 4 3 3 3 3 2 2 1 2 2 1 1 1 3 3 4 4 7 5 3 3 2 2 2 3 4 4 4 6 7 8 10 8 10 10 11 12 11 12 12 12 11 12 12 12 13 13 15 15
3 3 3 3 3 3 3 3 3 3 2 2 2 2 1 1 1 1 2 3 1 4 7 6 3 3 2 2 3 3 4 5 6 7 7 9 7 9 9 9 12 12 13 13 14 12 12 14 13 13 15 16 15 15
3 3 3 3 3 3 3 3 3 3 2 2 2 1 1 1 1 2 7 2 1 3 5 8 3 4 3 3 3 4 4 5 5 7 7 6 5 8 11 13 13 12 12 11 12 12 13 13 13 14 15 16 16 16
2 3 3 3 2 2 3 3 3 2 2 2 2 1 0 0 1 4 5 1 1 1 6 8 6 4 3 3 3 3 4 4 5 6 7 7 8 8 10 13 14 12 12 11 11 11 14 13 15 14 15 15 15 16
3 3 2 2 2 2 2 2 2 2 2 2 1 1 0 1 2 4 1 1 1 4 6 10 8 6 3 6 6 2 5 5 5 6 6 8 8 10 15 14 13 13 12 13 12 12 13 13 14 14 14 15 16 17
3 3 2 2 2 2 2 2 2 2 2 1 1 0 2 4 5 3 1 2 1 4 8 9 10 9 4 5 5 5 5 9 4 8 8 8 10 13 14 14 14 14 14 14 13 13 13 14 14 14 14 14 16 16
3 2 2 2 2 2 2 2 2 1 1 1 2 5 8 4 1 2 4 6 6 5 6 8 5 8 5 7 7 7 7 8 11 8 7 9 14 14 14 14 14 14 13 12 14 15 14 15 15 15 15 15 15 16
2 2 2 2 2 2 2 2 2 1 1 3 6 7 3 1 4 6 8 9 8 9 7 7 6 7 4 8 8 6 8 8 12 10 11 10 13 14 13 14 13 13 13 13 13 13 13 14 15 16 16 16 16 17
2 2 2 3 2 2 2 2 2 2 3 4 3 2 3 5 6 8 9 8 9 9 6 8 7 5 5 4 7 7 10 9 13 8 10 12 14 14 14 14 14 14 14 14 14 14 14 15 15 16 16 17 19 19
2 3 3 2 2 2 2 2 1 1 1 2 4 7 6 7 11 11 13 10 10 7 6 7 8 6 6 5 7 9 12 12 7 11 12 13 14 14 14 14 15 15 15 15 15 15 16 16 17 18 19 20 19 21
3 2 2 2 2 2 2 1 1 1 2 6 7 10 9 10 9 9 8 8 6 6 6 7 7 7 6 8 9 12 9 9 12 14 13 13 14 15 14 15 15 17 17 17 18 18 19 20 20 20 20 20 20 21
2 2 2 2 2 2 1 0 0 3 5 7 7 11 10 7 7 7 7 7 7 5 6 7 7 7 9 10 9 10 12 13 12 12 12 13 14 15 16 17 18 19 19 19 18 19 19 20 20 20 20 19 20 21
3 3 3 2 2 1 1 0 3 5 6 8 9 10 9 9 9 8 7 8 6 6 5 5 8 10 10 9 11 12 12 13 11 12 13 14 16 17 17 17 18 18 17 18 18 18 18 19 19 19 19 20 20 20
2 4 2 1 1 1 1 5 6 8 8 10 10 10 8 7 8 8 7 7 7 6 9 7 11 11 10 11 12 11 11 12 14 14 13 14 16 17 18 18 18 17 18 17 17 17 18 18 18 17 17 17 17 18
4 3 0 0 1 4 6 6 8 9 12 10 10 9 9 9 8 8 8 7 7 7 7 9 8 11 11 12 11 12 14 15 13 14 14 15 16 17 16 16 17 16 17 17 17 17 17 17 15 14 15 15 15 15
3 3 2 2 3 6 8 8 7 11 11 10 10 9 9 10 9 9 8 8 8 8 8 9 11 10 10 11 12 14 14 14 16 16 16 16 15 16 16 16 16 16 16 16 15 14 14 15 14 14 14 13 14 13
3 3 3 3 3 7 9 10 7 9 11 10 9 10 10 10 9 9 9 9 9 10 11 11 11 12 12 13 13 13 13 13 15 16 16 15 15 15 15 14 14 14 14 14 14 15 14 14 14 14 14 15 14 13
3 4 3 4 5 6 8 9 10 9 10 11 10 10 11 10 10 10 10 11 11 12 12 12 13 14 14 14 12 12 13 13 13 13 14 15 13 13 14 13 14 13 14 13 14 15 16 14 14 14 14 14 14 13
4 4 4 5 7 8 9 7 9 9 10 10 10 10 11 11 11 11 12 12 12 13 13 13 14 14 15 14 13 12 13 13 13 13 14 14 14 14 14 14 14 14 14 14 14 15 14 14 14 14 14 13 16 13
4 4 5 7 10 10 11 7 10 10 12 12 11 13 13 12 13 12 13 14 14 14 13 13 14 13 13 14 13 13 13 13 13 13 13 13 13 13 13 13 13 14 15 15 14 14 14 18 17 15 14 14 14 14
6 8 10 10 10 12 9 11 9 11 11 12 13 15 15 13 13 13 14 14 14 14 14 14 13 14 14 14 14 14 13 12 13 13 13 14 15 15 14 14 14 14 14 14 15 15 15 15 20 15 15 15 15 15
10 12 11 13 11 12 13 13 13 13 15 14 15 15 14 13 15 15 15 15 15 14 14 13 13 13 13 13 14 14 14 13 14 15 14 13 15 16 16 16 16 16 15 15 16 15 15 16 16 16 16 16 16 15
15 15 13 13 12 13 13 15 14 14 14 15 15 14 13 14 16 15 15 15 15 14 14 14 13 14 14 13 14 15 15 13 13 15 16 15 15 15 16 17 17 17 16 15 15 16 16 17 17 19 17 18 19 18
16 16 15 14 13 13 13 13 13 13 15 16 15 16 15 16 15 16 16 15 14 13 12 12 12 13 14 15 15 15 15 15 14 15 16 16 16 16 14 15 17 16 17 17 17 17 17 17 17 17 17 16 16 16
16 16 16 18 17 16 18 17 17 17 17 15 14 17 16 17 17 17 16 15 15 14 15 14 13 13 14 15 16 17 18 18 18 18 18 18 18 18 18 18 19 19 18 18 18 18 17 17 17 17 17 17 17 16
18 18 17 22 20 20 20 19 19 18 18 16 17 19 20 19 18 18 17 16 15 15 16 18 19 18 18 18 17 17 16 16 17 20 19 19 19 19 19 19 19 19 18 18 21 19 19 18 18 17 18 17 17 17
20 18 20 23 23 22 20 19 19 18 18 18 17 18 19 19 18 17 16 17 16 15 16 17 18 17 18 18 20 20 19 18 17 16 17 18 18 19 19 19 20 20 19 18 18 18 21 18 19 17 17 17 16 17
19 18 20 20 21 20 19 19 19 19 19 19 19 18 20 19 19 19 18 18 19 19 18 19 18 17 18 19 18 19 19 19 22 21 19 19 19 19 20 20 20 20 19 19 19 18 18 18 17 18 18 18 19 19
19 21 21 22 22 20 19 18 19 19 19 19 20 21 21 19 20 20 21 18 18 18 19 18 19 19 19 18 19 19 20 21 21 21 20 20 20 21 21 22 22 20 20 20 19 19 21 20 19 19 19 19 19 20
22 21 21 21 21 21 21 20 21 21 20 20 21 21 22 20 22 21 20 21 18 18 18 19 20 20 21 20 21 21 21 21 22 22 22 23 23 22 22 22 21 21 21 20 19 20 20 20 19 20 19 21 21 21

GFSWCAN_con_lsi_093.txt.gz
Lid_Strength_Index
3 3 3 4 4 3 3 3 3 2 2 2 2 2 2 2 2 1 2 1 4 5 4 3 4 5 5 6 8 6 7 6 7 11 11 11 11 10 11 10 12 13 14 14 13 14 17 10 8 12 12 10 10 12
3 3 3 3 4 4 3 3 3 3 2 2 2 2 2 2 1 1 4 1 2 6 4 1 2 2 2 3 5 5 7 7 7 9 9 9 11 10 11 15 8 13 11 13 12 13 10 10 11 11 10 11 12 12
3 3 3 3 3 4 4 3 3 3 2 2 3 3 2 1 1 1 2 3 5 6 5 3 3 2 1 1 1 6 4 4 5 5 8 8 11 9 13 12 12 9 8 11 11 11 12 11 11 11 11 13 13 13
3 3 3 4 4 3 3 3 3 3 3 3 3 2 1 1 1 1 2 2 3 5 7 4 1 2 1 1 1 2 3 3 3 4 7 8 10 7 11 9 10 11 9 11 12 11 11 12 12 12 12 13 14 14
3 3 3 3 4 4 4 3 3 3 3 3 2 1 1 1 1 0 1 1 2 5 7 5 2 2 1 1 2 2 2 3 5 7 8 9 8 8 7 7 11 11 13 13 14 11 12 14 13 12 13 14 14 14
2 3 3 3 3 3 4 3 3 3 3 2 2 2 1 1 1 2 7 1 0 2 5 8 2 3 2 2 2 3 2 3 5 7 7 6 5 7 11 12 12 10 11 10 12 11 12 13 12 13 14 15 15 15
2 2 3 3 3 2 3 3 3 3 3 2 1 1 1 1 1 4 4 2 1 2 4 8 6 3 2 2 2 3 2 3 4 5 7 7 7 7 9 12 12 11 11 11 10 10 13 13 14 13 13 14 14 14
2 2 2 2 3 2 2 2 3 3 2 2 1 1 1 0 2 4 1 1 1 3 3 9 7 5 2 6 7 2 4 5 5 5 5 7 7 9 13 13 12 12 12 12 11 11 12 12 13 13 13 13 15 15
2 2 2 2 2 2 2 2 2 2 1 1 1 1 2 3 5 3 1 1 0 3 7 8 9 10 3 5 5 4 4 8 4 7 6 6 8 13 13 13 13 12 12 13 12 11 12 12 13 12 13 13 14 15
2 2 2 2 2 2 2 2 2 2 1 1 2 5 8 5 1 2 4 6 6 6 5 8 5 7 5 5 6 6 5 8 10 8 5 9 12 12 13 12 12 12 11 11 13 14 13 14 14 14 14 13 14 15
2 2 2 2 2 2 2 2 1 1 1 3 6 6 3 1 3 5 8 8 8 9 6 7 5 7 3 8 9 4 8 7 11 9 10 10 12 13 12 13 12 11 11 11 11 11 11 12 14 14 14 14 15 16
2 2 2 2 2 2 2 2 1 1 3 3 3 2 3 6 6 8 9 7 9 9 6 7 7 5 4 3 7 7 9 8 12 7 10 13 13 12 12 12 12 12 12 12 12 12 12 13 13 14 14 16 17 19
2 2 2 2 2 2 2 2 1 1 1 2 3 6 6 7 11 11 12 10 9 6 6 6 7 5 5 5 7 8 11 12 7 11 11 11 12 12 12 12 13 12 13 13 13 13 13 14 15 16 18 18 18 19
2 2 2 2 2 2 2 1 1 2 2 6 7 10 9 10 9 8 8 8 6 5 6 6 7 7 6 8 8 11 9 8 12 14 13 11 12 13 13 13 13 14 14 14 15 16 17 18 18 18 18 18 19 20
2 2 2 2 2 1 1 1 1 2 5 7 7 10 10 7 6 7 6 6 4 4 5 7 5 6 7 10 8 10 12 13 11 12 10 11 12 13 14 14 15 16 17 17 17 18 18 18 18 18 18 18 19 19
2 2 3 2 1 1 1 1 3 4 5 5 7 8 8 8 8 8 7 7 4 5 4 5 8 10 10 9 11 12 12 12 11 11 11 12 14 14 14 15 16 16 16 16 16 16 17 18 17 17 18 18 18 18
2 3 2 1 1 1 2 5 6 7 6 8 9 8 7 7 9 8 7 6 4 6 9 7 11 11 8 11 11 8 11 11 11 12 12 12 14 15 15 16 16 16 15 15 15 16 16 16 17 17 16 16 16 16
4 2 2 1 2 4 6 6 6 7 10 8 8 8 8 8 7 7 7 5 5 6 6 8 6 10 11 12 11 9 11 11 11 11 12 13 14 15 15 15 15 14 15 15 16 16 16 16 15 13 14 15 15 15
3 1 1 1 3 5 7 7 6 9 9 9 8 8 7 8 7 7 6 6 6 6 4 6 9 9 9 8 9 10 11 11 13 13 14 14 14 15 14 14 14 14 15 15 15 14 13 14 13 13 13 13 14 13
1 0 2 2 2 6 8 8 5 7 9 8 7 8 7 8 8 7 7 7 6 6 7 8 8 8 8 10 9 9 10 11 12 14 15 14 13 13 13 13 13 13 13 13 13 13 13 14 13 14 14 14 14 13
4 4 3 3 5 6 7 7 7 7 8 9 8 7 9 8 8 8 8 6 8 7 7 7 9 11 11 10 9 10 11 11 11 11 12 13 12 12 13 12 12 12 13 13 13 14 15 13 13 13 13 13 13 13
4 3 4 4 6 7 7 5 7 7 8 9 8 7 9 9 9 8 7 8 8 8 8 9 10 12 12 12 11 10 10 10 10 11 11 12 12 12 13 12 13 13 13 13 12 13 13 13 13 13 13 13 14 13
3 3 5 6 8 8 10 5 9 8 10 10 9 10 10 9 8 8 9 8 9 9 10 10 11 10 11 11 11 11 11 11 11 11 11 11 11 11 12 12 12 12 13 13 12 12 13 16 15 15 14 14 13 13
4 7 8 8 9 11 8 10 8 10 9 10 11 12 11 10 10 10 10 9 10 11 11 12 11 12 12 12 12 12 11 10 11 11 11 11 12 12 12 12 12 12 12 12 13 13 14 14 16 15 14 15 14 14
8 10 9 11 8 10 11 11 11 11 12 11 12 12 12 11 12 11 12 11 12 13 12 11 11 11 11 11 12 12 11 10 11 12 11 11 12 13 13 13 13 13 13 13 14 14 14 14 15 15 15 15 15 15
12 12 11 10 10 10 10 12 12 12 11 12 12 11 11 11 13 13 12 12 12 12 13 12 11 11 12 11 13 12 12 10 11 12 12 12 12 12 14 15 15 15 13 13 13 14 15 15 16 17 16 15 17 17
13 13 11 10 10 9 10 10 9 10 12 13 12 12 12 14 13 13 13 12 12 12 11 10 10 11 12 12 12 12 11 11 11 12 12 13 13 13 12 13 15 14 13 14 14 15 15 16 16 16 16 15 15 15
13 13 14 13 12 11 13 12 12 13 12 11 11 13 14 13 14 15 14 13 11 11 11 10 10 11 12 12 13 14 15 15 15 15 15 15 15 15 15 15 16 17 15 16 15 16 16 16 16 16 16 16 16 15
14 13 14 19 16 15 15 15 14 14 14 13 12 14 16 16 15 15 14 13 12 13 14 14 14 13 14 13 13 13 13 14 15 17 17 17 17 17 15 16 16 16 16 17 19 18 18 17 17 16 16 16 15 14
16 14 16 18 19 17 16 15 15 15 15 15 14 16 16 16 16 14 14 13 13 13 13 14 14 14 15 15 16 16 15 14 13 14 15 16 15 16 16 17 17 17 16 16 16 16 19 17 16 16 16 15 15 14
15 14 16 16 18 17 16 16 15 15 15 15 14 15 16 17 16 15 15 14 13 14 14 15 15 14 15 16 16 17 18 17 18 16 15 15 16 16 17 17 17 17 17 17 17 17 17 17 16 16 16 17 17 17
15 17 17 19 19 17 16 15 15 15 16 16 17 16 17 16 18 17 17 15 15 14 15 15 15 15 14 15 16 16 16 17 17 17 17 16 17 18 18 19 18 18 18 18 18 18 18 18 18 17 17 17 17 18
17 16 16 17 19 18 17 16 17 17 16 16 17 16 16 16 19 18 17 17 15 15 15 16 17 17 17 17 17 18 18 18 19 19 19 19 20 19 19 19 19 19 19 18 17 18 19 19 18 18 18 18 19 19

GFSWCAN_con_lsi_096.txt.gz
Lid_Strength_Index
3 3 3 3 3 3 3 3 3 3 2 3 2 2 2 2 2 2 2 1 4 6 5 4 3 5 5 6 8 6 7 7 8 11 11 12 13 12 12 11 12 13 15 15 14 16 17 11 10 14 12 11 11 12
3 3 3 3 3 3 3 3 3 3 2 2 2 2 2 2 2 1 3 2 2 5 5 2 2 2 3 3 5 5 7 7 7 10 10 10 12 11 13 15 9 14 11 13 14 14 11 11 12 11 11 12 12 13
3 3 3 3 3 3 3 3 3 3 3 3 2 2 2 2 2 2 2 2 3 7 5 3 4 1 1 2 1 6 5 5 6 5 8 9 12 9 14 13 12 9 8 11 11 12 12 12 11 11 12 12 13 13
3 3 3 3 3 3 3 3 2 2 3 3 2 2 2 2 1 2 3 2 3 5 8 5 1 2 1 1 1 2 3 3 3 4 7 9 11 7 11 10 11 11 9 11 12 11 12 13 12 12 12 12 13 13
3 3 3 3 3 3 3 3 3 3 3 2 2 2 2 1 1 1 0 2 1 5 8 6 2 1 1 1 2 2 3 4 5 7 8 9 8 8 8 8 13 11 13 13 14 11 13 14 13 12 13 14 13 14
3 3 3 3 3 3 3 3 3 3 3 2 2 2 1 1 1 2 7 1 1 2 6 9 2 3 2 2 2 3 3 3 5 7 7 6 5 7 11 12 12 10 10 9 12 11 13 13 13 13 14 14 14 14
2 3 3 3 3 3 3 3 3 3 3 3 2 2 2 1 1 4 5 3 1 1 6 8 7 3 2 2 3 3 2 4 4 6 7 7 7 7 10 13 12 11 10 10 9 11 13 12 14 13 13 13 13 14
2 2 3 3 3 3 3 3 3 3 3 3 2 1 1 1 2 4 1 1 1 4 5 9 8 6 2 5 6 3 5 4 5 6 6 7 7 8 14 12 11 11 11 11 11 11 12 12 12 12 12 13 15 16
2 2 2 3 3 2 2 3 3 3 3 2 2 1 1 3 5 4 1 1 0 3 8 8 10 12 3 5 4 5 5 9 5 8 7 7 9 13 13 12 12 11 12 12 11 11 11 12 12 12 13 13 15 15
2 2 2 2 2 2 2 2 2 2 2 2 1 4 8 5 1 2 4 6 5 5 5 8 5 8 5 6 7 7 6 8 10 8 6 9 13 12 11 11 11 11 11 11 12 13 13 14 14 14 14 14 14 15
2 2 2 2 2 2 2 2 2 2 2 3 6 7 3 1 3 5 8 8 7 9 7 7 6 8 3 8 8 6 9 8 11 10 10 11 12 13 12 12 11 11 10 11 11 11 12 12 14 14 14 15 15 17
2 2 2 2 2 2 2 2 2 2 3 3 3 2 3 5 6 9 9 7 8 9 6 7 7 5 5 4 7 7 9 9 13 7 10 13 12 11 12 12 12 11 11 12 11 12 12 13 13 14 15 17 18 19
2 2 2 1 1 2 2 2 1 1 1 2 4 7 7 7 11 11 12 10 9 7 6 6 8 6 5 4 7 9 11 11 7 11 12 12 11 12 12 12 12 12 12 12 13 13 14 15 15 17 19 19 19 19
2 1 1 1 1 1 1 1 1 1 3 6 7 10 9 10 9 9 8 8 6 6 6 6 7 7 6 8 8 11 10 9 13 14 13 12 11 11 12 12 13 14 14 15 16 16 17 18 19 19 19 19 20 21
2 2 1 2 1 1 1 1 1 2 6 7 7 11 9 7 7 7 7 6 5 4 6 6 7 6 8 9 9 10 12 13 12 13 11 11 11 12 13 14 15 16 16 16 17 18 19 18 19 19 19 18 19 20
2 2 2 1 1 2 1 1 3 4 6 6 7 9 8 8 8 8 8 7 4 5 5 5 8 10 10 10 11 12 13 13 11 11 11 12 13 13 14 14 15 15 15 16 17 17 17 19 18 18 18 18 19 19
2 4 2 1 1 2 2 4 5 7 6 7 8 7 7 8 8 8 7 6 3 6 10 8 11 11 8 11 12 9 11 10 11 11 11 12 13 14 15 15 15 15 15 15 16 16 16 16 17 17 18 18 17 17
3 2 1 1 2 4 5 5 6 6 8 7 8 8 7 7 7 6 5 4 5 6 7 8 7 10 11 13 11 9 10 10 10 11 12 12 13 14 14 15 15 14 15 15 16 16 16 17 16 15 15 15 15 15
2 1 1 2 2 4 6 7 6 8 8 8 7 7 7 7 6 5 6 5 4 4 5 6 9 10 10 8 9 10 10 11 12 13 13 13 14 14 14 14 14 14 15 15 15 14 14 14 14 14 14 14 15 14
2 2 1 1 2 5 7 7 4 7 9 8 7 8 7 7 7 7 6 6 6 6 7 8 9 8 9 9 7 8 9 10 12 14 15 14 14 14 14 14 13 13 14 14 13 13 13 14 14 14 15 16 16 15
3 3 2 2 4 5 6 6 6 7 7 8 7 7 9 8 8 8 8 6 7 7 8 6 8 10 9 8 8 8 10 11 12 12 14 15 13 13 13 12 12 12 13 13 13 14 14 14 14 14 14 14 14 14
5 3 6 4 6 6 7 5 6 6 7 8 8 7 9 9 9 8 6 8 7 6 7 7 8 10 10 10 10 10 10 9 10 11 11 12 13 13 12 12 12 12 12 12 12 13 13 13 14 14 14 14 15 14
3 3 5 6 8 8 9 5 8 8 10 10 8 9 9 9 7 6 9 7 7 7 8 8 9 9 10 10 10 10 10 10 11 11 12 11 11 11 11 11 11 12 13 13 12 13 13 17 17 15 15 15 14 14
3 6 8 8 8 10 8 9 7 9 9 10 10 11 10 9 8 9 9 8 8 9 9 10 10 11 11 11 12 12 10 10 11 11 10 11 12 12 12 12 11 11 12 12 13 13 14 14 17 15 14 15 15 15
7 10 8 10 8 9 10 10 10 10 11 10 10 10 10 9 11 11 10 9 10 10 10 10 10 11 12 11 11 11 10 10 12 12 11 11 11 12 12 12 13 13 13 13 14 14 14 14 15 15 15 16 16 16
11 11 10 10 9 9 10 11 11 10 10 11 10 9 9 10 11 12 10 10 11 11 11 10 10 11 11 11 12 12 11 10 11 12 12 11 12 12 13 15 15 16 13 13 13 14 14 15 16 17 17 17 21 18
12 12 10 8 8 8 9 8 8 9 11 11 11 11 11 13 12 13 12 12 11 10 10 9 9 10 11 11 11 11 10 10 11 12 12 13 13 12 12 13 14 14 13 14 14 15 15 16 16 17 17 16 15 15
12 11 13 11 11 9 11 10 11 11 10 9 10 12 12 12 14 13 13 12 10 10 10 9 9 9 11 12 12 13 14 14 15 15 14 14 14 14 15 16 17 16 16 16 16 16 16 16 17 17 17 17 17 15
13 11 12 15 13 12 12 12 12 13 13 11 11 13 15 15 14 14 13 12 10 11 12 12 12 12 12 13 13 13 13 14 16 18 17 18 18 17 16 16 16 16 16 18 19 17 18 17 18 18 18 17 16 15
14 12 14 16 16 15 15 14 14 14 13 13 13 14 16 16 15 13 13 12 12 12 12 13 13 13 15 15 15 14 13 13 13 14 15 16 16 16 16 17 17 16 16 16 17 18 19 18 16 17 18 16 16 16
13 12 14 14 16 15 15 14 14 13 13 13 12 13 16 17 15 14 13 12 11 12 13 14 14 14 14 15 16 17 19 17 16 15 15 16 16 16 16 17 17 17 17 18 18 18 19 18 18 17 17 18 18 18
13 15 15 17 18 16 14 14 14 14 15 15 16 15 16 15 17 16 15 14 13 13 13 13 14 14 14 15 15 15 17 17 17 16 16 16 17 18 18 18 18 18 18 19 19 18 19 19 19 19 19 19 19 19
15 14 15 16 18 17 16 15 15 16 15 15 16 15 14 15 19 17 15 14 13 13 14 15 15 15 16 17 17 17 18 18 19 18 19 19 19 18 18 19 19 19 19 19 18 19 19 20 20 20 19 19 20 20

GFSWCAN_con_lsi_099.txt.gz
Lid_Strength_Index
3 3 4 3 4 4 3 3 3 3 3 3 3 3 3 3 2 4 5 4 6 9 9 6 5 8 8 9 13 9 9 9 11 13 13 13 14 13 13 12 13 15 15 16 15 18 19 13 12 16 13 12 13 13
3 3 3 3 3 3 3 3 3 2 3 2 2 2 3 3 2 2 5 3 3 8 9 6 5 4 4 5 8 8 8 8 10 13 12 12 13 12 13 16 10 15 12 15 15 16 13 12 13 12 12 13 13 13
2 3 3 3 3 3 3 3 3 2 2 2 2 3 3 3 2 3 4 4 5 8 9 8 6 3 1 3 4 8 6 6 8 7 10 11 13 10 14 14 13 12 10 13 13 14 13 12 12 12 13 13 13 13
2 2 2 3 3 3 3 2 2 2 2 2 2 3 3 3 2 3 5 4 6 7 12 7 3 3 2 3 4 4 5 5 6 7 9 10 11 9 12 12 14 13 12 12 14 13 13 13 13 12 12 13 13 13
2 2 2 3 3 3 2 2 2 2 2 2 3 3 3 2 2 3 4 4 3 6 10 10 5 3 2 3 4 4 5 6 8 10 11 10 8 9 11 11 14 12 14 14 17 13 14 14 13 13 14 14 13 14
2 2 2 2 2 2 2 2 2 2 2 2 3 3 2 2 2 4 8 4 3 3 9 13 6 4 3 3 3 4 5 5 7 9 10 8 6 10 12 16 12 10 10 10 13 13 14 14 13 13 14 13 13 14
3 2 2 3 2 2 2 2 2 2 2 3 2 2 2 2 3 5 7 4 2 3 8 12 10 4 3 3 5 5 5 6 7 9 9 8 8 10 14 17 12 10 10 10 11 12 14 13 15 13 13 14 14 14
2 2 2 2 2 2 2 2 2 2 2 2 2 2 2 1 2 4 2 2 2 5 6 10 11 8 4 8 8 5 7 7 7 9 8 9 9 11 15 13 12 12 11 11 11 12 13 12 12 13 13 14 15 16
2 2 3 3 3 2 2 2 2 2 3 2 2 2 3 5 6 5 1 1 2 5 10 9 11 12 5 7 7 7 7 12 7 10 9 9 10 16 13 12 12 11 11 11 11 12 12 13 13 13 14 14 15 16
2 2 2 3 3 3 3 3 2 2 2 2 3 6 8 5 1 2 4 7 7 6 6 11 9 12 6 9 10 10 8 11 13 10 7 11 14 12 11 11 11 11 11 11 13 14 14 15 15 15 16 16 17 18
2 2 2 2 2 3 3 3 3 2 3 5 7 7 3 1 4 6 9 10 11 11 9 9 10 12 6 11 11 9 12 11 13 11 11 12 15 14 12 12 11 11 11 11 12 13 14 14 15 16 17 17 18 19
2 2 2 2 2 2 2 2 2 4 5 4 4 3 3 6 8 9 13 11 9 12 9 9 10 8 7 6 11 9 10 12 14 9 11 14 13 13 12 13 13 13 13 13 13 14 14 14 15 16 18 19 20 21
1 2 2 2 2 2 2 1 1 1 1 2 5 7 7 8 11 13 16 12 15 11 9 10 12 7 9 7 11 10 11 12 8 13 14 13 12 13 13 13 14 13 14 15 15 16 16 17 18 19 21 24 23 24
1 1 1 1 1 1 1 1 1 2 5 7 8 11 10 12 11 12 12 12 10 10 9 9 10 11 10 11 9 12 10 10 13 17 14 13 13 14 13 13 15 17 17 18 19 20 21 22 23 24 25 27 26 28
1 1 1 1 1 1 1 1 2 4 6 8 8 11 13 10 7 8 7 8 7 9 9 10 10 10 11 10 9 10 13 14 14 13 13 12 14 15 16 16 17 18 19 20 22 22 23 24 23 25 26 26 26 27
1 1 2 1 1 1 1 2 3 4 7 8 8 9 8 8 8 8 8 7 6 8 9 9 11 13 13 11 12 14 14 17 13 12 12 13 15 16 17 17 18 19 20 21 21 21 21 23 23 23 24 25 26 26
2 4 2 1 1 1 2 5 6 7 7 8 9 8 7 7 8 8 7 7 6 9 9 10 12 13 9 12 12 10 14 12 12 12 12 13 15 17 18 17 18 17 19 20 20 21 23 23 22 21 22 23 21 20
5 2 1 1 2 3 5 5 7 7 10 8 10 8 7 7 7 7 7 7 7 9 9 10 8 11 13 14 14 11 11 11 11 12 13 14 16 17 16 17 16 17 18 19 20 20 21 21 19 19 17 17 18 17
3 2 1 2 3 5 7 7 7 9 9 9 9 8 8 8 7 8 8 7 6 6 7 10 11 12 12 10 10 11 12 13 14 14 14 14 15 16 16 15 15 17 18 19 17 17 17 16 15 15 16 16 19 18
1 2 1 1 2 6 7 7 5 7 10 10 8 9 8 8 8 7 8 8 7 7 8 12 12 10 10 10 9 10 12 13 15 16 16 15 14 15 16 15 15 16 17 16 15 15 15 16 17 17 19 19 22 22
3 2 2 3 5 5 6 7 7 7 8 9 8 8 10 9 9 9 9 7 9 11 12 11 9 14 13 13 9 10 12 13 14 16 16 16 15 14 15 15 15 15 16 17 17 19 18 18 17 17 22 23 23 23
4 2 4 4 6 6 7 6 7 8 9 9 8 8 10 10 10 9 8 9 9 10 11 11 12 14 13 12 12 11 11 11 12 14 15 15 15 15 15 15 16 16 16 16 14 17 20 17 18 19 22 23 22 22
2 4 6 6 9 9 9 6 9 9 12 10 9 10 10 9 9 8 10 9 9 11 10 11 11 10 11 11 11 11 10 11 13 14 15 15 15 16 14 15 14 14 15 17 14 16 20 20 21 23 23 23 23 24
4 7 8 9 10 12 9 10 8 9 10 10 11 11 11 10 9 10 11 11 11 11 12 12 11 12 12 12 13 13 12 12 14 15 14 13 13 14 14 14 14 16 15 15 16 18 19 21 22 22 24 23 24 25
9 10 9 10 10 11 12 12 12 12 16 13 12 11 11 10 12 12 12 12 11 14 14 11 12 13 16 16 15 14 12 12 13 13 14 13 14 15 15 15 17 16 16 17 21 21 22 23 24 24 24 26 26 27
11 11 11 10 11 12 12 14 14 13 11 11 11 10 13 11 12 13 13 11 10 10 11 11 11 12 13 13 14 14 13 12 12 15 15 13 15 17 19 20 21 21 18 20 19 22 20 21 24 24 26 25 26 26
12 12 11 9 9 9 11 10 10 12 13 12 11 14 12 13 15 15 14 13 12 12 11 10 11 11 12 14 14 13 13 13 14 15 16 16 17 17 18 19 19 20 19 19 21 23 24 25 25 26 26 27 26 26
13 11 14 11 12 11 11 11 12 12 13 10 12 14 13 17 18 16 15 15 12 14 13 11 11 11 14 15 16 16 16 16 17 17 17 18 19 21 22 20 18 19 20 21 22 22 23 25 26 26 27 27 27 27
13 12 12 14 13 15 14 13 13 14 14 13 14 16 18 17 15 16 16 13 11 11 14 15 14 14 15 15 15 16 16 17 19 21 25 26 26 24 24 23 20 21 23 23 19 22 23 25 26 26 26 27 27 25
14 11 14 16 18 16 18 16 16 16 15 15 15 16 17 19 19 17 16 15 14 14 14 14 15 15 16 16 16 17 17 17 20 20 22 25 25 21 22 22 23 23 23 22 24 25 21 24 22 26 26 27 28 28
13 13 14 15 17 16 16 17 17 16 16 16 14 18 21 21 19 18 18 18 14 14 15 15 15 15 16 16 18 19 21 19 20 19 19 19 19 20 21 22 24 23 23 23 23 25 26 27 27 29 28 28 29 29
14 15 16 19 18 16 16 16 17 17 19 18 19 20 20 20 22 21 18 16 14 16 16 15 15 15 16 16 17 18 18 19 19 19 20 20 21 22 22 23 22 23 24 25 25 26 27 28 30 30 31 29 30 30
16 15 17 19 20 20 17 16 16 17 16 17 21 20 18 19 23 22 18 16 16 14 15 17 17 17 18 18 19 20 20 20 19 19 20 21 22 21 23 23 25 26 25 24 26 26 27 29 30 30 30 32 33 33

GFSWCAN_con_lsi_102.txt.gz
Lid_Strength_Index
3 3 3 4 4 4 4 3 3 3 3 3 3 3 3 2 3 5 7 6 8 14 11 8 7 10 10 10 14 10 10 10 12 14 14 14 14 13 13 12 13 15 16 17 16 18 19 14 14 16 14 13 14 15
3 3 3 3 3 3 3 3 3 3 3 3 3 2 2 3 3 4 8 5 6 10 10 7 7 6 6 6 9 9 8 10 12 13 13 12 13 12 13 16 11 16 14 16 16 17 13 13 14 13 12 14 14 15
2 2 3 3 3 3 3 3 3 3 3 3 3 2 2 3 3 4 6 6 8 11 11 9 8 5 3 4 5 9 7 7 8 7 11 11 12 11 14 16 14 14 12 16 16 14 14 13 13 13 13 13 14 14
2 2 2 2 3 3 3 3 3 2 2 2 2 3 3 3 3 4 8 6 7 9 14 10 4 6 3 4 4 5 6 6 7 8 11 11 11 9 12 13 16 14 13 14 15 14 14 14 13 13 14 14 14 14
2 2 2 2 3 3 3 3 2 2 2 2 2 3 3 3 2 5 6 6 4 8 13 11 7 4 3 4 4 5 6 7 9 11 12 10 9 10 11 13 15 12 15 16 17 14 15 15 13 13 14 14 14 15
2 2 2 2 3 3 3 2 2 2 2 2 3 3 3 2 3 6 11 6 4 3 11 15 8 6 5 4 4 5 6 7 8 10 11 9 6 11 13 16 12 11 13 11 15 13 14 14 13 13 14 14 14 15
2 2 2 2 2 2 2 3 2 2 2 2 2 2 2 2 5 6 8 4 2 4 9 12 12 6 3 5 6 6 6 7 8 9 10 8 9 10 17 21 12 10 12 13 13 13 15 15 15 13 14 14 14 15
2 2 2 2 3 2 2 2 2 2 2 2 2 2 2 2 4 6 4 2 2 6 7 14 13 10 4 9 9 7 8 8 8 9 9 10 11 15 19 14 13 12 12 11 12 12 13 13 13 14 14 15 16 17
2 2 2 2 2 2 2 2 2 2 2 2 2 2 5 7 9 7 2 2 3 5 10 12 15 14 6 8 8 8 8 13 8 11 10 9 11 16 17 15 15 12 13 13 12 12 13 13 14 15 15 15 17 17
2 2 2 2 2 2 2 2 2 2 2 2 4 7 10 6 2 2 5 8 8 7 7 12 11 13 7 11 11 11 10 12 12 11 9 12 14 12 11 11 11 11 10 10 13 14 14 15 15 15 16 16 17 18
2 2 2 3 3 2 2 2 2 2 3 6 8 8 4 2 4 6 10 10 12 11 10 10 9 14 7 12 12 10 13 12 14 11 11 12 15 13 11 11 11 11 11 11 12 13 14 15 16 17 17 17 18 19
2 2 2 3 3 2 2 2 2 5 6 5 5 4 4 6 8 10 12 12 11 13 11 9 12 9 9 7 11 10 12 12 15 8 11 14 15 12 12 12 13 12 13 13 13 14 14 15 16 17 18 19 20 21
2 2 2 2 2 2 2 2 3 2 3 4 6 8 8 9 12 13 16 14 17 13 10 12 13 8 10 8 12 12 12 16 9 12 13 15 14 13 14 14 15 15 15 15 16 15 16 17 18 20 22 25 24 25
2 2 2 2 1 2 2 2 3 4 5 8 9 12 12 13 12 14 15 15 12 12 11 12 12 11 12 12 12 12 12 9 13 17 15 15 14 14 13 14 15 17 18 18 20 20 21 22 24 26 26 27 26 28
2 2 2 2 1 1 2 2 3 5 6 9 8 13 12 11 9 8 8 11 11 11 11 11 11 11 13 10 9 10 12 14 15 17 15 14 14 15 16 17 19 20 21 21 21 22 24 24 24 27 29 28 27 30
1 2 3 1 1 1 2 4 5 5 7 8 9 9 8 9 9 8 8 8 7 10 11 10 12 15 14 14 11 14 14 17 14 13 14 13 15 17 17 17 18 19 20 22 23 23 23 24 23 24 27 27 29 28
2 5 1 1 1 2 2 7 6 8 9 9 9 9 8 8 9 8 7 7 8 10 10 12 14 14 10 12 13 13 17 14 13 13 13 13 15 19 19 19 19 20 21 21 23 22 24 25 24 22 22 23 23 21
5 2 1 1 2 4 7 6 7 8 11 9 10 9 8 7 7 8 7 7 7 10 11 11 10 13 12 15 15 11 12 12 13 12 13 15 16 19 17 18 19 19 20 21 21 22 22 22 20 20 19 18 19 19
3 2 1 1 4 8 11 10 7 10 9 9 9 9 8 8 8 9 8 7 7 8 9 11 12 14 17 12 11 12 12 17 14 16 14 15 17 17 18 18 18 19 19 20 18 18 18 17 17 17 16 16 18 18
1 1 1 1 2 6 8 8 6 8 12 12 8 9 9 9 8 8 8 8 7 8 9 12 14 11 11 14 12 12 16 15 15 17 17 16 16 17 17 16 17 17 18 17 16 17 17 17 17 17 18 19 21 23
2 3 2 3 6 5 7 8 8 9 10 11 9 9 12 9 9 9 9 7 9 9 13 13 14 17 13 14 12 12 13 14 15 16 16 17 16 16 16 15 16 17 18 18 19 19 18 18 18 19 22 24 26 24
4 3 6 5 8 7 8 6 8 9 10 10 8 9 12 11 10 9 8 9 10 12 13 13 12 14 14 13 13 12 12 12 13 15 15 15 16 16 16 16 17 19 19 19 19 20 21 18 18 19 21 24 23 23
3 4 6 6 9 10 12 6 10 9 13 10 9 12 13 11 9 7 11 9 11 13 12 12 11 10 11 12 11 11 11 12 14 15 15 15 17 18 17 17 18 19 19 18 16 18 19 20 21 23 25 26 27 27
4 8 8 10 11 15 9 10 8 9 10 10 11 13 11 10 9 11 12 13 14 14 13 12 11 12 13 12 14 13 12 12 15 17 15 15 16 16 15 16 16 16 16 17 17 19 20 22 23 25 28 28 28 28
12 13 9 10 9 12 13 13 12 12 16 14 15 16 12 10 14 13 13 15 14 15 17 14 13 12 16 18 16 14 13 13 14 16 18 15 17 15 16 17 18 18 17 18 21 21 25 28 28 27 28 29 26 28
12 12 13 12 15 14 14 15 15 14 14 13 16 14 15 12 13 16 14 12 11 11 11 11 13 14 14 14 15 14 14 13 13 15 15 13 14 17 18 19 20 20 21 19 21 23 23 25 26 26 27 27 27 29
13 13 11 10 11 11 15 15 12 15 18 17 14 17 13 14 14 16 16 13 12 14 10 9 10 11 14 14 14 15 15 15 15 16 17 18 18 18 17 20 22 22 24 22 23 21 22 25 27 28 29 30 30 29
14 14 16 14 14 13 16 16 17 17 17 13 13 14 15 16 18 18 18 15 12 11 11 11 10 12 14 15 16 17 17 18 18 18 18 19 20 21 21 21 20 21 23 24 25 24 24 25 26 28 28 28 30 32
17 14 14 16 16 15 17 14 14 17 16 16 17 20 21 18 19 19 17 14 11 14 15 15 15 15 16 16 16 16 17 16 17 20 22 24 24 23 24 23 25 24 23 23 20 23 24 25 27 28 29 29 29 30
16 14 17 17 17 18 20 19 20 22 18 17 17 17 19 21 20 21 16 15 17 19 19 16 15 16 17 17 18 18 18 18 17 17 21 24 24 25 26 25 26 26 25 25 26 26 22 27 25 27 28 30 32 32
12 12 14 15 17 17 16 16 19 21 21 18 18 20 21 21 21 22 20 20 18 16 15 16 16 16 16 18 18 19 20 20 20 19 20 20 21 22 24 24 24 24 25 26 27 28 28 30 30 29 31 33 35 36
15 15 16 18 18 16 15 17 19 20 20 21 21 24 24 25 25 23 20 18 17 20 20 16 17 18 17 17 18 18 18 19 19 19 20 20 21 22 22 23 23 24 25 27 28 29 28 29 30 32 34 37 39 39
17 18 18 19 20 20 19 18 17 19 20 21 24 25 23 23 25 23 20 18 19 17 17 19 18 18 18 18 19 19 19 20 20 19 20 21 22 22 23 24 25 25 26 27 28 29 29 31 33 36 38 40 40 40

GFSWCAN_con_lsi_105.txt.gz
Lid_Strength_Index
3 4 4 4 4 4 4 4 4 3 3 3 3 3 3 2 2 5 7 6 9 12 10 8 8 11 11 11 14 11 12 11 12 14 14 14 15 13 14 13 14 16 17 18 16 18 19 15 14 16 15 14 15 16
3 3 4 4 4 3 3 3 3 3 3 3 3 2 2 2 2 4 8 6 7 10 10 8 8 8 8 8 10 9 11 11 13 13 12 12 15 14 15 19 12 17 15 17 17 19 16 14 14 13 13 14 15 16
3 3 3 3 3 3 3 3 3 3 3 3 2 2 2 2 2 4 7 8 9 12 11 10 9 6 5 6 6 10 9 8 9 9 11 11 13 11 14 16 15 14 12 17 17 16 15 14 14 14 14 15 14 15
2 3 3 3 3 3 3 3 3 3 3 3 3 2 3 3 3 4 7 7 8 10 14 11 6 7 5 4 6 6 6 7 7 8 11 13 12 9 13 14 16 15 14 16 16 15 15 14 14 14 14 14 15 15
2 2 3 3 2 2 2 3 3 3 3 2 3 3 3 3 3 5 7 7 6 10 14 12 8 6 5 5 5 6 6 8 10 11 12 10 9 10 13 13 16 13 15 18 17 15 15 16 14 13 15 15 15 15
2 2 2 2 2 3 3 3 3 2 2 3 3 3 2 3 4 8 11 6 5 7 12 15 9 8 6 6 6 6 6 8 9 10 11 10 6 11 15 17 13 14 12 13 14 13 14 14 14 13 15 15 15 16
2 2 2 2 3 2 3 3 2 2 2 2 3 2 2 3 5 8 10 4 3 6 11 15 13 7 5 6 7 7 7 8 8 10 10 8 8 11 16 18 13 13 14 13 13 13 15 14 15 14 14 14 14 16
2 2 2 3 2 3 2 2 2 2 2 2 2 2 2 3 5 7 6 2 4 8 8 15 13 9 5 9 10 7 9 9 9 10 10 9 9 14 17 14 12 12 12 13 13 12 14 14 14 14 14 16 17 18
2 2 2 3 3 3 3 3 2 2 2 2 2 3 6 7 9 8 2 3 5 8 13 14 16 13 7 9 9 9 9 14 9 11 10 8 12 16 17 13 13 13 13 13 13 13 13 14 15 16 16 16 17 18
2 2 2 2 3 3 3 2 2 2 2 3 5 9 11 8 3 2 6 11 11 10 7 13 12 14 9 12 12 11 11 12 12 10 9 12 14 12 13 13 12 11 12 12 14 14 14 15 16 16 16 16 17 18
2 2 2 2 2 2 2 2 2 2 3 7 8 8 5 2 5 7 10 11 12 13 11 12 11 14 9 13 12 10 13 12 14 11 11 13 15 14 12 11 10 10 10 11 12 13 13 14 16 17 17 17 18 19
2 3 2 2 2 2 2 2 2 5 7 6 5 4 5 7 9 10 12 12 12 14 13 13 12 10 10 8 12 11 13 13 15 8 11 15 16 12 12 13 12 12 12 13 13 14 15 15 15 16 18 19 21 22
2 3 3 2 2 2 2 2 3 3 3 4 6 8 10 9 13 13 18 14 18 13 12 13 14 11 11 10 13 12 16 17 10 13 13 16 14 13 13 14 14 14 14 14 15 15 16 17 18 19 22 26 24 25
2 2 2 2 2 2 2 2 3 4 5 8 10 13 12 14 12 16 16 16 13 13 12 12 13 12 13 12 15 17 13 10 17 17 16 17 14 14 14 14 15 17 17 17 19 19 21 22 25 27 26 28 26 28
2 2 2 2 2 2 3 3 4 6 8 10 10 14 13 12 10 9 8 9 11 12 11 12 12 12 14 11 10 12 14 15 16 18 18 16 14 14 15 16 18 19 20 21 22 23 25 25 25 28 30 30 28 30
2 3 4 2 2 2 3 5 6 6 8 9 10 11 9 10 10 9 8 9 8 10 12 10 12 15 13 15 11 15 16 17 17 18 15 15 15 16 17 17 18 20 20 22 22 23 24 25 24 25 28 29 31 29
3 7 2 2 2 3 3 7 9 10 10 11 10 10 8 8 9 9 8 8 8 11 14 11 16 15 12 13 13 14 18 15 14 13 13 13 15 18 19 19 19 20 21 22 23 23 25 26 25 23 23 25 24 23
7 3 2 2 3 5 7 8 8 9 11 10 11 10 8 7 7 8 8 7 7 9 11 12 9 11 12 15 17 17 16 13 12 13 13 14 16 19 18 20 20 20 21 22 22 23 23 23 21 21 19 19 19 19
3 2 1 2 5 9 13 10 8 12 10 9 9 9 8 8 8 8 8 7 7 7 10 12 12 14 16 14 14 18 20 17 15 15 15 14 15 17 19 19 20 20 20 21 19 19 19 18 18 18 18 17 20 20
1 1 1 2 3 9 10 10 7 9 12 13 9 9 9 9 9 8 8 8 8 8 10 12 14 15 14 14 14 15 17 16 15 16 17 17 16 17 18 18 18 18 18 18 17 18 18 18 18 18 19 19 22 23
2 2 2 4 7 6 7 8 9 9 10 11 8 8 10 9 9 9 9 8 9 9 13 14 16 17 16 14 13 13 14 14 16 16 18 18 17 16 17 17 17 17 18 19 19 21 20 19 19 19 25 26 26 24
3 3 6 6 9 8 8 7 7 8 10 9 8 9 14 13 15 11 10 11 10 12 13 14 14 14 14 13 14 12 13 13 14 15 16 15 17 16 16 17 17 20 19 20 19 20 21 20 20 21 24 27 25 25
3 5 8 7 10 10 11 6 9 10 13 10 9 12 15 15 13 9 12 10 11 13 13 13 12 10 11 12 12 12 11 13 14 15 15 15 16 17 17 18 18 20 21 20 18 20 23 22 22 23 24 26 28 29
4 9 10 12 10 16 10 10 8 9 12 12 11 12 13 13 9 12 12 13 14 16 14 13 12 13 13 12 14 14 13 13 15 17 15 16 17 17 17 17 18 17 18 17 18 20 20 22 22 23 28 29 31 31
13 15 10 14 10 12 14 14 12 12 17 11 12 15 11 11 15 13 14 14 14 18 18 15 14 13 15 18 17 16 14 13 15 16 18 16 17 16 17 18 19 19 17 19 21 21 25 26 28 28 29 30 28 30
15 16 12 12 16 14 13 16 16 16 13 15 17 14 16 12 14 16 14 16 11 16 12 12 16 14 14 14 15 15 15 13 13 16 16 15 15 17 19 19 20 21 20 19 19 21 24 27 28 27 29 28 30 31
13 13 12 9 11 11 15 15 12 14 13 14 13 17 18 17 18 16 17 15 12 11 11 10 10 11 12 13 14 14 14 15 16 16 18 18 18 17 16 18 19 21 24 21 22 22 24 25 26 27 27 32 32 32
14 14 14 12 12 13 15 17 17 18 18 14 15 18 17 16 17 20 19 16 13 11 12 12 12 13 14 15 15 17 18 18 18 18 18 19 20 20 20 20 21 21 25 26 25 24 24 25 26 27 27 29 32 34
17 17 15 17 16 14 14 16 16 17 16 16 17 20 20 20 22 22 20 17 13 13 16 17 16 15 16 16 16 17 17 16 16 19 20 22 22 22 24 23 24 25 24 23 21 24 25 25 27 27 28 29 32 33
18 15 17 19 15 15 19 19 20 20 20 19 18 18 20 22 23 22 19 19 18 22 23 21 18 15 17 18 18 19 18 18 17 17 19 21 21 22 24 24 25 25 24 23 23 23 22 26 26 31 31 33 35 38
13 14 16 18 20 21 20 18 17 16 20 21 22 22 23 25 23 23 22 21 20 19 17 17 17 17 17 18 18 18 20 19 18 19 20 20 21 23 24 24 24 24 24 25 26 27 29 31 30 32 33 36 39 41
14 14 17 19 20 18 16 16 16 17 21 21 22 26 25 25 23 24 21 21 19 19 20 18 18 20 18 17 18 18 18 19 19 20 20 20 22 23 23 24 24 25 26 27 28 30 30 31 32 34 36 40 42 43
16 18 18 18 18 19 18 17 17 19 20 23 25 27 25 23 23 23 20 20 20 20 20 19 18 18 19 19 19 19 19 19 18 18 20 21 22 23 23 24 25 26 27 30 31 31 31 32 35 39 40 42 44 44

GFSWCAN_con_lsi_108.txt.gz
Lid_Strength_Index
3 3 4 4 4 4 4 4 4 4 4 4 4 3 3 3 4 6 8 7 9 13 11 8 8 11 12 12 15 12 13 12 13 15 14 15 15 15 14 14 15 17 18 18 17 18 20 15 14 16 16 15 16 17
3 3 4 4 3 4 4 4 4 4 3 3 3 3 3 3 3 5 9 7 7 10 10 8 8 8 10 10 11 10 11 11 13 13 12 13 14 13 16 19 13 17 16 18 18 19 16 15 15 14 14 15 16 17
3 3 3 3 3 4 4 4 3 3 3 3 3 2 2 3 3 5 8 9 9 11 10 10 10 7 6 7 7 10 10 8 10 10 11 13 13 11 14 17 15 14 13 17 18 16 16 15 14 14 14 16 16 16
3 3 3 3 3 3 3 3 3 2 3 3 3 3 3 3 3 4 8 8 9 10 13 11 7 8 6 6 7 7 7 8 8 9 11 12 13 9 14 15 16 15 15 16 17 16 15 15 15 15 15 15 16 16
3 3 3 3 3 3 3 3 2 3 3 3 3 3 2 3 3 5 7 7 7 10 13 12 9 7 6 6 7 7 7 8 10 11 12 10 9 11 14 14 17 13 15 19 22 16 16 16 16 14 16 16 16 16
3 3 3 3 3 3 2 2 3 3 3 3 3 2 3 3 5 8 11 7 6 8 11 15 10 9 7 7 7 7 7 9 10 10 11 10 6 12 19 18 13 14 12 14 15 14 15 14 15 15 15 15 15 16
2 2 3 3 3 3 2 2 3 3 3 3 3 2 3 3 6 9 10 7 4 7 12 15 12 8 7 7 8 8 8 9 9 10 10 8 9 11 19 19 14 14 13 13 13 13 15 15 16 14 15 15 15 17
2 2 2 3 3 3 2 2 2 3 3 2 2 3 3 3 5 8 6 3 6 9 10 16 12 9 6 10 10 9 9 9 9 10 10 10 9 13 18 16 15 14 14 13 13 13 14 14 14 15 15 16 17 18
2 2 2 2 3 3 3 2 2 2 2 2 3 4 6 8 9 8 4 4 6 9 14 15 14 14 8 10 9 9 9 14 9 12 11 8 11 17 16 13 13 14 14 13 13 14 14 14 15 16 16 17 18 18
2 2 2 3 3 3 3 3 2 2 2 3 6 9 13 8 4 4 7 11 11 10 10 14 12 11 9 13 12 12 11 12 11 9 9 12 16 11 14 12 12 12 12 13 14 15 15 16 16 16 17 17 17 18
2 2 2 2 2 2 2 2 2 3 4 7 9 9 5 3 7 10 14 14 14 14 12 13 12 13 9 14 11 10 12 12 14 11 11 13 16 13 13 12 11 12 12 12 12 12 13 15 15 17 17 17 18 18
2 2 2 2 2 2 2 2 3 6 7 6 5 4 5 7 9 12 13 12 12 14 14 14 13 11 10 9 12 10 13 13 16 9 11 15 15 12 11 11 11 11 12 12 12 13 14 14 15 17 18 19 20 22
2 2 2 2 2 2 2 3 3 3 3 4 6 8 10 10 14 18 18 14 17 14 13 14 14 12 11 10 13 12 17 17 10 12 13 15 12 12 12 13 13 12 12 13 14 14 15 16 18 19 22 25 25 26
2 2 2 3 2 2 2 3 3 4 5 9 11 14 14 15 13 16 16 17 14 14 13 13 13 13 13 13 17 17 15 13 19 17 16 17 12 13 13 13 14 15 15 16 17 18 20 21 25 26 25 27 26 28
2 2 2 3 3 2 3 3 4 6 8 10 10 14 14 13 11 12 10 10 10 13 12 12 12 11 13 13 13 15 15 18 18 18 18 18 14 14 15 15 16 17 18 19 20 21 23 25 25 28 31 30 27 29
2 3 4 3 3 3 4 5 6 7 9 10 10 11 11 11 11 10 9 9 8 9 12 11 11 14 14 16 12 17 16 18 18 17 16 18 15 16 16 16 17 19 19 21 22 22 24 25 24 25 29 30 31 29
4 7 2 2 3 4 5 8 10 11 11 11 12 11 9 9 10 10 9 8 8 9 15 11 17 16 12 14 14 14 18 18 18 14 12 14 17 18 18 18 19 19 21 21 23 23 25 26 25 24 23 26 24 23
7 4 2 3 5 7 8 10 9 11 12 11 13 10 9 8 8 9 8 8 8 8 9 13 10 11 14 17 17 18 12 12 14 14 14 14 15 19 18 18 19 19 20 22 22 23 24 23 21 22 20 20 20 20
5 3 2 3 6 10 13 12 9 13 11 11 10 9 9 9 8 8 8 8 7 7 10 12 12 15 16 17 16 16 18 16 14 14 18 15 15 17 19 19 19 20 20 21 20 20 20 19 19 19 19 18 21 20
2 2 3 3 5 10 11 11 8 9 12 11 9 9 10 10 9 8 8 8 8 8 9 14 15 15 15 15 14 15 17 15 14 15 16 19 16 17 19 18 18 19 19 18 18 19 19 19 19 19 19 20 22 23
3 3 3 5 8 8 9 9 10 9 9 11 9 9 10 9 9 9 9 8 9 11 14 15 17 18 16 16 13 14 15 14 16 15 17 18 19 17 17 17 17 18 18 19 19 20 20 20 20 20 25 27 28 27
4 3 6 6 9 9 10 7 8 8 9 9 9 9 13 14 11 10 10 12 12 13 14 15 14 15 14 13 14 12 13 13 14 16 17 16 17 17 17 18 18 19 20 20 19 20 21 20 21 22 26 29 26 26
4 6 9 8 13 12 14 6 10 9 12 10 9 11 16 17 14 9 16 13 13 14 14 13 12 10 12 12 12 12 12 13 15 16 17 17 17 18 17 18 19 20 20 21 19 20 23 23 23 24 25 27 29 31
5 10 16 13 13 18 11 11 8 10 11 11 14 16 15 14 10 15 16 14 14 16 14 13 13 14 13 13 15 14 14 14 16 19 17 16 17 17 16 17 18 19 18 18 18 21 23 25 23 24 26 29 34 33
13 15 14 15 11 12 13 14 12 13 14 12 16 18 15 11 14 18 16 14 18 16 19 16 14 15 14 13 13 15 14 14 15 16 18 16 17 16 17 18 19 20 18 19 22 23 23 24 24 25 29 31 29 32
19 18 15 16 13 13 13 17 18 18 18 18 17 14 15 12 14 18 14 17 16 11 16 12 12 14 12 12 13 15 15 14 14 17 16 15 15 16 18 19 20 21 20 19 20 21 23 24 25 27 31 30 30 31
14 18 12 10 11 12 17 18 14 15 14 16 16 17 17 19 18 16 16 16 16 13 11 11 10 10 11 12 13 14 14 14 15 16 17 17 17 17 17 18 20 20 20 19 19 20 22 24 27 28 31 35 34 31
13 12 15 12 11 12 18 19 20 17 16 14 14 17 18 18 16 18 19 18 15 12 12 13 12 12 14 16 16 17 17 17 17 17 17 19 20 21 20 20 20 19 22 22 23 23 24 25 27 28 27 28 33 36
15 16 13 15 14 13 12 14 15 16 15 14 16 19 18 19 22 23 21 19 15 12 16 17 15 16 16 16 16 16 16 15 16 18 20 22 23 22 22 22 22 22 21 22 21 23 24 25 26 27 29 31 35 36
18 17 18 20 18 16 16 16 17 18 17 17 18 19 20 23 24 22 22 22 19 20 21 21 22 19 18 19 19 18 18 18 18 17 18 20 21 22 22 21 22 22 21 21 22 23 23 26 27 32 34 36 37 38
14 16 20 21 21 22 21 21 21 18 18 19 20 19 21 24 23 24 23 23 23 22 20 20 20 19 17 17 17 17 19 19 18 18 19 20 20 21 22 23 23 23 23 24 25 27 28 30 32 35 35 36 39 42
16 15 18 21 22 20 18 18 18 20 24 23 22 26 25 24 22 24 22 22 21 21 22 22 20 22 18 16 17 17 18 20 20 19 19 20 21 22 23 23 24 25 26 27 28 29 31 33 35 35 36 38 42 44
17 18 19 18 20 20 19 18 19 20 22 23 25 27 27 23 21 24 23 22 22 22 22 21 19 19 19 19 19 19 19 19 18 18 19 20 21 21 23 24 25 26 27 29 30 30 32 33 36 38 39 41 44 45

GFSWCAN_con_lsi_111.txt.gz
Lid_Strength_Index
3 3 3 4 4 4 4 4 4 4 4 4 4 4 4 5 6 8 9 8 9 11 10 9 9 11 11 11 13 11 10 10 10 12 12 13 14 13 13 14 15 16 17 17 15 17 19 15 14 16 15 15 16 16
3 3 4 4 4 4 4 4 4 4 4 4 4 4 4 5 5 6 9 7 7 9 10 9 8 7 8 9 9 9 10 10 9 11 11 11 13 12 14 16 13 16 16 17 17 18 16 14 15 13 13 15 15 16
3 3 3 4 4 4 4 4 4 4 4 4 4 4 4 4 4 6 8 8 8 10 10 9 9 7 6 6 6 9 8 8 8 8 9 10 12 10 14 15 14 14 13 16 17 16 16 15 14 13 13 15 15 15
3 3 3 3 4 4 4 4 4 4 4 4 3 3 3 3 3 5 7 7 8 9 12 10 7 7 5 5 6 6 7 7 7 7 9 9 11 9 13 13 14 14 13 15 17 16 16 15 14 14 15 15 15 15
3 3 3 3 3 4 4 4 3 3 3 3 2 3 3 3 3 5 6 7 7 9 11 11 8 7 6 6 6 6 6 7 8 8 8 10 9 10 12 12 14 12 15 16 16 14 15 15 14 14 15 15 15 16
3 3 3 3 3 3 3 3 3 3 3 3 3 3 3 3 5 7 10 7 5 7 9 12 9 8 6 6 6 6 6 7 7 7 8 7 6 9 14 14 13 13 12 13 15 13 14 14 14 14 15 14 15 15
3 3 3 3 3 2 3 3 3 3 3 3 3 3 3 3 5 8 9 6 5 7 10 12 11 8 6 7 7 7 7 7 6 7 8 7 8 10 14 15 13 13 13 13 13 13 15 14 15 13 14 14 15 15
2 3 3 3 2 2 2 3 3 3 3 3 3 3 3 3 5 7 5 4 5 9 10 13 11 9 6 9 9 8 7 7 7 8 7 8 8 10 13 14 14 13 13 13 12 12 12 13 13 14 14 15 16 17
3 3 3 2 2 2 2 2 2 3 3 3 4 4 6 7 8 7 4 5 6 8 12 12 12 13 7 9 8 8 8 9 7 8 8 7 9 12 13 13 14 14 13 13 13 13 13 14 15 15 15 16 16 17
2 3 3 3 3 2 2 2 2 3 3 4 6 9 11 7 4 5 8 10 10 10 9 12 11 11 8 10 10 9 9 9 11 9 7 9 10 10 10 10 11 12 12 12 14 15 14 15 15 15 16 15 16 17
2 2 3 3 3 2 2 2 3 4 4 7 8 8 5 3 7 10 13 13 12 13 11 11 10 10 8 10 10 9 10 10 12 10 10 11 12 12 11 10 10 10 11 12 12 12 12 13 15 15 16 16 17 17
2 2 3 3 3 3 3 3 4 6 7 6 6 4 6 8 11 13 14 12 12 13 12 11 11 9 9 8 9 9 11 11 13 8 11 13 12 11 11 11 11 11 11 11 11 12 13 13 14 15 16 17 18 19
2 2 2 2 2 3 3 3 3 3 4 5 7 9 10 11 16 18 19 14 14 12 11 11 11 9 9 9 11 11 13 13 9 11 12 12 11 11 11 10 11 11 11 12 12 12 13 15 15 17 20 21 22 22
2 2 2 2 2 3 3 3 3 4 7 9 12 14 16 15 14 15 14 14 12 12 11 10 11 10 10 11 13 14 13 11 14 15 14 12 11 11 11 11 12 13 13 14 14 15 17 19 21 22 22 23 24 24
2 3 3 3 2 3 3 4 4 6 8 11 11 14 14 12 11 10 10 9 10 11 10 10 10 9 11 12 11 13 14 15 15 14 13 13 11 12 13 13 13 14 15 16 16 18 20 21 22 24 24 23 23 25
3 3 4 3 3 4 4 6 7 7 10 10 10 11 11 11 10 9 9 9 9 9 10 9 10 13 13 13 12 15 15 15 12 13 11 14 13 13 13 14 15 15 16 18 19 20 21 22 21 23 24 23 24 23
4 5 3 3 4 5 5 8 9 10 11 11 12 11 9 9 10 9 8 8 8 9 11 10 15 14 11 14 14 13 13 12 13 11 12 14 14 15 15 15 16 17 18 19 20 20 21 22 22 22 21 22 22 21
6 3 3 4 6 8 10 9 10 11 12 11 12 10 9 8 9 9 8 8 8 9 9 11 10 12 14 15 13 12 11 11 12 12 11 13 14 16 15 16 17 17 18 20 20 21 22 21 20 19 19 19 19 19
4 4 3 4 7 10 13 12 10 13 11 10 10 10 9 9 9 8 8 8 7 7 9 9 11 12 12 12 11 11 13 11 12 13 14 13 14 16 17 17 18 18 19 20 19 19 19 18 17 17 17 17 18 17
3 3 3 4 5 10 12 11 8 10 12 11 10 10 10 10 9 8 8 8 7 8 10 11 12 11 11 10 11 10 11 13 13 14 14 15 14 16 16 16 16 17 18 17 18 18 18 18 17 17 16 16 17 16
4 4 4 7 9 9 10 10 10 10 9 11 9 10 10 9 9 9 9 8 8 10 11 11 12 12 13 12 11 12 12 12 12 12 12 15 15 15 16 16 16 16 16 17 17 17 17 16 16 16 17 16 17 17
5 4 8 8 10 10 11 8 8 8 9 9 9 9 12 13 11 10 8 11 10 11 11 11 11 12 11 11 11 11 12 12 13 15 16 15 16 16 16 16 16 17 16 17 16 17 16 16 16 16 17 19 20 19
5 7 10 10 14 15 14 7 10 9 12 10 9 11 13 15 13 9 13 11 11 12 12 11 10 10 11 11 11 11 11 12 13 14 14 14 14 15 15 16 15 17 17 17 16 16 16 18 19 18 19 19 19 21
5 11 15 14 13 17 12 13 9 10 10 11 12 15 15 12 9 13 13 12 12 14 12 12 11 11 11 12 12 13 12 12 14 15 14 14 15 16 15 16 16 15 15 16 16 16 17 17 20 19 20 20 21 21
11 13 16 20 11 13 13 16 13 13 17 14 15 17 13 10 14 15 14 13 14 12 13 13 12 12 10 11 12 13 13 12 13 14 15 14 15 15 16 16 16 15 15 17 18 18 19 19 19 20 20 20 22 23
19 19 16 17 13 14 14 15 15 17 18 18 16 15 13 13 14 16 14 15 13 10 14 13 11 11 11 11 12 12 12 12 13 14 14 13 14 15 16 17 17 17 16 15 17 18 19 19 20 21 22 24 26 24
19 18 13 11 11 12 16 17 13 16 17 18 17 15 17 17 16 15 15 14 14 12 11 10 10 10 10 12 12 13 13 13 13 14 15 15 15 14 14 15 16 15 16 15 16 17 18 19 21 22 25 26 25 23
13 14 15 15 11 12 15 19 19 17 15 13 14 16 17 17 15 14 15 15 15 12 12 12 13 11 11 13 15 15 16 16 16 16 16 17 18 18 18 18 17 17 16 16 17 17 18 20 22 24 23 25 27 27
13 15 13 15 14 13 13 13 14 14 14 13 15 16 16 15 17 18 17 16 16 12 14 14 15 15 15 15 15 15 14 14 14 16 17 18 18 19 20 19 19 19 18 19 19 20 21 22 23 24 26 27 30 31
16 16 18 19 17 14 13 15 14 14 14 14 15 16 16 17 18 20 19 18 16 14 14 13 14 14 17 16 17 16 15 14 14 14 16 17 17 20 19 19 18 18 18 19 21 22 23 25 26 28 29 30 30 31
14 16 20 20 19 19 19 21 21 20 20 19 19 17 18 20 19 20 20 20 20 20 17 17 17 15 16 16 16 16 16 16 16 16 17 19 19 19 19 20 19 20 21 22 23 24 25 26 27 29 29 31 33 32
14 15 18 20 20 20 19 20 19 19 21 22 22 25 22 21 19 20 20 20 18 18 19 18 17 17 16 14 15 15 16 18 18 18 18 19 20 20 20 20 21 21 22 23 24 25 26 27 28 29 31 32 33 34
17 18 17 17 19 19 18 17 18 19 23 23 23 25 24 21 19 21 21 20 20 18 18 18 18 18 17 17 17 17 18 18 18 18 19 19 20 20 21 21 22 23 24 25 26 27 28 29 30 31 33 34 35 35

GFSWCAN_con_lsi_114.txt.gz
Lid_Strength_Index
4 4 4 5 5 4 4 4 4 4 4 4 4 4 4 4 5 5 7 6 6 8 9 8 8 9 9 8 10 8 8 8 8 10 10 11 12 11 11 11 13 13 14 14 13 15 17 13 12 14 14 13 13 13
4 4 4 4 4 5 4 4 4 4 4 4 4 4 4 5 5 4 7 6 4 7 9 6 7 6 7 6 6 7 7 7 6 8 8 9 12 11 11 14 11 14 13 13 15 15 14 13 13 11 12 12 12 13
4 4 4 4 3 4 4 4 4 4 4 4 4 4 4 5 5 4 6 5 5 7 8 7 8 5 3 4 3 7 5 5 6 3 7 8 11 9 12 11 13 13 12 14 14 15 14 13 12 12 11 12 12 13
3 4 4 4 4 4 4 4 4 4 4 4 4 4 4 4 4 4 5 5 4 7 10 9 5 5 4 3 3 3 4 4 3 3 6 8 10 7 10 10 10 11 12 14 16 15 14 14 13 12 12 12 13 13
3 3 4 4 4 4 4 4 4 4 4 4 4 4 4 4 3 3 3 4 4 6 10 8 5 5 4 3 4 3 4 4 4 6 7 9 7 8 7 9 10 10 12 13 13 13 13 13 12 12 13 13 13 14
3 3 4 4 4 4 4 4 4 4 4 4 3 3 4 5 5 3 7 4 3 3 7 10 6 6 5 4 4 4 4 4 3 4 7 7 5 7 10 10 11 11 11 11 12 11 11 12 12 11 12 13 12 13
3 4 3 3 3 3 4 4 4 3 3 3 3 3 2 3 3 6 7 4 4 2 6 10 9 6 5 4 4 4 4 4 3 4 5 6 6 6 8 10 12 11 11 11 11 12 13 12 13 12 12 12 12 13
3 3 3 3 3 3 3 3 3 3 3 3 3 3 3 3 3 5 4 4 3 5 5 10 10 8 4 6 7 3 4 4 4 4 5 6 6 5 10 12 11 11 11 11 11 11 11 11 12 12 11 12 13 14
3 3 3 3 3 2 3 3 3 3 4 4 4 4 3 4 5 5 4 4 2 4 8 8 11 11 5 6 4 5 4 7 4 6 6 6 7 10 9 11 12 12 11 12 12 11 11 12 12 12 12 13 13 15
3 3 3 3 2 3 3 3 3 4 4 4 4 6 9 5 4 4 4 6 6 5 5 8 6 9 5 6 6 6 5 7 9 7 5 8 8 8 8 8 9 10 10 10 12 13 12 13 13 13 13 12 13 14
3 3 3 3 2 2 3 3 4 3 3 4 6 8 4 4 4 6 10 9 8 10 7 7 8 8 4 7 8 5 8 7 11 10 9 10 10 8 8 8 8 9 10 10 9 10 10 11 12 13 13 13 14 15
3 2 2 3 3 3 3 3 3 3 4 4 4 3 4 6 9 11 12 10 10 11 8 8 7 6 5 3 6 6 9 8 13 7 10 11 9 8 8 8 8 8 10 11 10 10 10 11 11 12 13 14 15 16
3 3 3 2 3 3 3 3 3 3 3 3 5 8 8 10 13 13 15 12 11 9 8 7 8 5 5 4 7 8 11 11 6 11 11 9 8 9 8 8 9 9 9 10 11 11 11 12 12 13 14 16 18 18
3 3 3 3 3 3 3 4 4 4 4 8 9 13 12 13 12 11 10 9 9 7 7 6 7 6 6 8 8 11 9 8 12 13 13 8 9 9 9 9 9 10 10 11 11 12 13 14 15 16 17 18 19 20
3 3 3 3 3 4 4 4 4 3 6 9 9 13 12 10 9 9 9 8 8 6 6 7 7 6 8 10 8 10 12 13 11 11 9 8 9 9 10 10 10 11 12 12 12 14 15 17 17 19 19 18 19 20
3 3 4 4 4 4 5 5 4 4 7 8 9 10 9 9 9 8 8 8 6 5 5 5 9 10 12 9 11 13 12 13 10 8 8 9 10 10 10 10 10 11 11 12 13 14 16 17 18 18 19 19 19 19
3 5 4 4 5 5 5 5 5 8 9 9 10 9 8 8 9 8 6 6 4 5 9 7 11 12 9 11 13 9 10 9 8 8 7 9 10 10 11 11 12 13 13 14 15 15 16 17 19 19 19 19 18 18
5 4 4 5 5 6 6 6 7 8 11 9 9 9 8 8 7 7 6 5 5 6 7 8 7 10 11 12 10 8 7 8 9 8 8 10 10 11 11 12 13 13 14 15 15 17 18 18 17 16 16 17 16 16
4 4 4 4 5 6 8 8 7 11 10 8 8 7 7 7 7 6 6 6 5 5 5 7 9 9 9 7 8 8 8 8 9 9 10 10 10 12 12 13 13 14 15 16 16 15 15 15 14 14 14 15 14 14
4 3 4 4 4 7 10 10 6 9 10 9 8 8 8 8 8 7 6 7 6 6 7 8 8 6 6 5 5 5 5 7 8 9 10 10 11 12 12 12 12 13 14 14 14 15 15 15 14 14 14 14 13 13
4 4 4 4 5 5 7 9 10 9 9 10 9 9 9 8 8 8 7 7 7 7 7 5 6 6 8 7 6 6 7 7 7 6 7 10 11 10 11 11 12 12 12 13 13 14 14 13 13 13 13 12 12 12
4 4 4 5 7 7 8 7 8 8 8 9 9 9 10 10 9 9 7 7 7 6 5 5 5 6 7 8 7 7 8 8 9 10 11 10 11 11 11 11 11 12 11 11 12 13 12 12 12 12 12 12 13 13
4 5 6 8 10 10 11 6 9 9 11 10 9 11 11 10 9 7 9 7 6 6 6 6 7 7 7 8 8 8 8 8 8 9 10 9 9 9 10 11 10 11 12 11 11 12 12 12 12 12 13 13 14 15
5 8 10 11 10 13 10 10 8 9 9 10 10 13 11 10 9 10 10 7 7 8 8 8 7 8 8 9 7 8 8 8 9 9 9 10 10 11 10 11 11 10 10 11 12 12 12 12 14 13 14 14 14 15
9 11 10 14 10 12 12 11 11 11 12 12 12 11 11 9 10 11 10 7 8 8 8 9 7 7 7 7 8 9 10 8 9 10 10 9 10 11 11 11 11 11 11 11 12 13 13 13 13 14 14 14 15 16
13 12 11 12 12 12 12 13 12 12 11 12 11 9 9 10 11 11 9 8 8 8 9 9 8 7 8 8 9 10 11 9 9 9 10 9 9 10 11 12 13 13 11 11 12 13 14 14 14 14 15 16 18 17
13 12 10 9 9 10 11 10 10 10 12 12 10 10 10 13 12 9 8 9 8 9 9 9 9 7 7 9 10 10 10 9 9 9 10 10 10 9 9 11 12 11 11 11 12 12 14 14 15 15 16 17 17 18
10 10 12 10 10 9 11 11 11 11 9 8 9 11 12 11 10 8 8 9 9 9 9 9 9 9 8 10 10 10 11 12 12 12 11 12 12 12 12 11 11 12 11 12 12 12 13 14 15 17 17 19 20 19
11 9 9 12 10 9 9 9 9 8 8 8 9 9 9 9 10 9 10 10 10 10 9 9 10 10 10 10 10 10 10 10 11 12 13 13 13 14 13 13 13 14 14 15 14 14 14 15 16 18 19 21 22 22
11 9 10 12 12 11 9 9 8 10 10 10 10 11 11 11 11 13 12 11 10 10 9 9 10 10 11 11 12 12 10 10 9 10 12 12 12 14 14 14 15 15 15 15 17 19 20 21 22 22 23 23 23 25
11 10 11 11 11 10 12 12 12 12 11 11 12 11 10 12 12 13 13 13 13 13 12 11 11 10 11 11 11 12 12 11 11 11 11 13 14 14 15 15 15 16 16 17 18 19 19 20 21 22 23 24 26 26
11 11 12 13 12 12 12 12 11 11 12 12 11 14 13 13 12 13 15 15 13 13 13 12 11 11 11 10 10 11 11 12 13 14 14 14 15 16 16 16 16 16 17 18 19 19 20 21 21 23 24 26 26 27
13 12 13 13 14 14 13 13 14 14 14 14 13 15 14 14 13 15 14 15 15 15 13 13 13 12 13 13 13 14 14 14 14 15 16 16 17 17 17 17 17 18 19 19 20 21 21 23 24 25 26 28 28 28

GFSWCAN_con_lsi_117.txt.gz
Lid_Strength_Index
5 5 4 1 1 2 1 2 1 1 1 1 0 0 1 1 1 3 4 2 4 6 7 6 6 7 8 8 10 8 9 8 8 10 11 10 11 10 11 10 12 12 14 14 13 15 17 11 11 13 12 11 11 10
5 5 5 3 2 2 2 1 1 1 1 2 2 2 2 2 2 2 5 2 2 6 7 4 5 5 5 6 7 6 7 6 6 8 8 8 10 10 11 13 8 13 10 13 12 14 12 11 11 10 10 11 11 12
4 4 4 4 4 3 3 3 4 4 3 2 3 3 3 3 2 3 4 3 4 7 7 6 8 6 4 3 2 6 5 4 5 3 7 7 11 8 12 10 10 10 10 11 12 13 13 12 11 10 10 11 10 10
4 4 4 4 4 4 4 4 4 3 3 3 4 3 4 3 3 2 4 3 4 7 10 10 5 6 4 3 2 2 2 2 3 3 7 8 10 6 10 9 8 8 10 12 14 13 13 12 11 11 12 11 11 11
4 4 4 4 4 4 4 5 5 4 4 4 4 3 3 3 3 3 3 3 3 7 10 9 6 5 3 3 3 2 2 3 4 6 7 9 7 7 7 7 9 8 10 12 12 12 11 13 12 12 12 12 12 12
4 4 4 4 4 4 4 4 4 4 4 4 4 4 4 4 3 4 7 4 3 3 8 10 6 6 4 3 4 3 3 2 3 4 7 6 5 6 10 11 10 9 9 9 11 9 10 12 12 10 11 11 11 11
4 4 4 4 4 4 4 4 4 4 4 4 4 4 4 4 4 6 7 5 4 2 7 9 9 5 4 4 4 4 3 3 3 4 6 7 6 6 9 11 10 10 10 9 9 11 13 12 13 10 10 10 10 11
4 4 4 4 4 4 4 5 4 4 4 4 4 4 4 4 3 5 3 3 2 4 5 9 10 8 4 6 6 3 5 4 4 4 4 6 6 6 11 9 10 10 9 10 10 9 10 10 10 10 10 10 11 12
3 3 4 4 4 4 4 4 4 4 4 4 3 3 3 4 5 5 4 3 0 3 7 8 10 11 4 5 5 5 3 6 3 6 5 5 7 10 9 9 10 10 10 10 10 10 10 11 11 11 10 11 11 12
3 3 3 3 4 4 4 4 4 4 3 3 2 5 9 5 4 3 3 5 4 4 5 7 6 9 6 6 6 6 4 6 9 7 4 7 8 6 5 6 7 8 8 8 10 12 12 11 11 11 11 10 11 12
3 3 3 3 4 4 3 3 3 3 2 3 5 7 4 4 3 5 8 8 7 9 7 7 6 7 4 7 8 4 7 6 10 9 9 9 10 7 5 6 6 7 7 8 8 9 9 9 10 11 11 11 12 13
3 3 3 3 3 3 3 3 3 3 3 4 4 3 3 5 7 9 10 9 9 10 7 7 7 5 5 3 7 6 9 8 13 7 10 11 9 6 6 6 7 7 8 9 8 9 9 9 10 10 11 12 13 13
3 2 3 3 3 3 3 3 3 3 3 2 5 8 7 8 11 11 14 11 11 8 6 6 8 5 4 4 7 7 11 11 7 11 10 10 6 6 7 7 8 7 8 9 9 9 9 10 10 11 12 13 15 16
3 3 3 3 4 4 4 4 4 3 2 6 8 12 10 12 11 11 9 9 8 6 6 6 6 7 5 8 7 10 9 8 12 13 12 9 7 8 8 8 8 9 9 10 10 10 11 12 12 12 14 15 16 18
3 3 4 4 4 5 5 4 4 2 4 7 8 12 11 9 9 9 8 8 6 5 5 6 6 6 7 9 7 9 12 12 11 11 9 8 8 8 9 8 9 10 10 10 11 12 13 14 15 15 16 15 16 18
4 3 4 5 5 5 4 3 3 3 5 7 8 9 8 9 10 9 8 8 4 4 4 5 8 10 11 9 11 12 12 12 10 8 8 8 9 9 9 9 9 9 10 10 11 12 14 15 15 15 15 16 18 17
3 4 4 5 5 4 4 3 4 7 8 8 10 8 8 9 9 9 6 5 2 5 9 7 10 12 8 10 11 8 10 9 9 8 8 8 9 9 9 9 10 10 10 11 12 13 14 14 16 16 17 17 16 16
4 3 4 4 4 4 4 4 6 7 10 8 9 9 8 8 8 7 5 4 4 6 7 9 6 10 11 12 10 8 7 8 9 8 8 9 8 9 9 10 10 10 11 12 12 13 15 16 16 15 15 15 15 15
4 4 4 4 4 5 7 6 5 10 9 8 7 7 7 7 5 5 4 4 3 3 5 6 9 9 9 7 8 8 8 7 8 8 9 9 9 10 10 10 11 11 12 13 14 14 14 14 13 13 14 14 14 14
4 4 4 4 4 6 9 8 5 8 10 9 7 8 8 8 6 6 5 5 5 5 7 8 8 7 7 6 4 5 5 6 6 7 9 9 9 9 10 10 10 11 12 12 12 13 13 13 12 12 13 13 12 12
3 3 3 3 4 5 7 8 9 8 8 9 8 8 8 6 7 7 6 6 6 6 7 5 6 6 5 5 4 4 5 4 4 5 6 8 8 8 9 9 10 10 11 11 12 12 12 12 12 11 11 11 10 11
3 4 3 4 6 6 7 6 8 7 8 9 8 8 9 9 9 7 6 7 6 5 4 4 4 4 5 6 5 5 5 6 7 7 7 8 8 9 9 9 10 10 10 10 11 11 11 10 11 11 11 10 11 11
3 4 5 6 9 9 10 5 9 9 10 10 9 11 11 10 9 7 9 6 5 5 4 4 5 5 5 6 6 6 6 6 6 6 7 6 6 7 8 9 9 9 10 10 9 10 10 10 11 10 11 11 12 13
4 7 9 9 9 12 9 10 8 9 9 10 10 12 11 10 9 9 10 6 5 5 5 7 5 6 6 6 5 6 6 5 6 7 6 7 8 9 8 9 9 9 9 9 9 10 10 10 11 11 12 12 13 13
9 10 9 12 9 11 12 11 11 10 12 11 12 10 10 8 10 9 10 6 6 8 7 6 6 6 7 7 6 6 8 6 6 7 7 6 7 8 9 10 9 9 8 9 10 11 11 11 11 12 12 12 13 14
12 10 10 11 10 11 11 13 12 11 10 11 10 8 8 9 10 10 8 7 7 8 8 8 8 7 7 5 6 7 8 7 7 8 8 7 8 9 10 11 11 11 9 8 10 11 11 12 12 12 12 13 14 14
13 11 8 7 8 8 9 9 8 9 11 11 9 10 10 12 11 7 6 6 7 8 7 7 8 7 7 7 7 8 7 7 7 8 8 8 8 8 8 9 10 9 9 9 9 10 11 12 12 13 14 14 14 14
8 8 11 9 9 8 10 10 10 10 8 7 7 10 11 10 9 6 7 7 7 7 7 7 7 7 7 7 8 8 9 9 9 9 9 10 9 9 9 9 9 9 9 9 9 10 10 12 13 14 14 15 15 15
9 8 8 11 10 9 9 9 8 6 6 6 8 8 7 6 7 7 7 7 7 7 8 8 8 8 8 9 8 8 8 8 9 11 11 11 12 12 10 10 10 10 10 10 11 11 12 13 13 14 15 16 17 17
9 7 9 10 11 10 7 7 7 8 7 7 7 7 7 7 8 8 8 8 8 8 8 8 8 8 9 9 10 10 8 8 8 8 10 10 11 11 11 11 11 12 12 14 16 17 17 17 18 19 19 19 20 21
8 9 9 9 9 8 9 9 9 9 9 9 8 9 8 8 9 10 10 11 10 10 10 9 9 8 9 9 9 10 11 9 9 9 9 10 10 11 11 12 12 13 15 16 16 16 17 17 18 19 19 20 22 22
9 9 10 11 9 9 9 9 9 9 9 10 9 10 10 10 10 12 13 12 11 11 10 10 9 9 9 8 8 9 8 10 10 10 10 11 11 12 12 13 13 13 14 15 15 16 17 18 19 20 21 22 23 24
10 10 10 10 11 12 10 11 11 11 11 11 10 11 11 11 11 13 12 12 13 13 11 10 10 10 10 10 10 10 11 11 11 12 12 13 13 13 13 14 14 15 16 16 17 17 18 19 20 21 23 24 24 25

GFSWCAN_con_lsi_120.txt.gz
Lid_Strength_Index
4 2 1 1 1 2 2 2 1 1 1 0 0 0 -0 -0 -0 0 3 -0 3 6 5 4 3 6 6 7 10 8 9 9 10 12 12 11 12 12 12 11 12 13 14 14 13 16 17 9 10 13 11 9 10 11
3 2 2 2 2 2 3 3 1 1 1 0 0 0 -0 -0 -0 -0 3 0 0 4 4 3 3 3 4 5 6 7 8 8 7 10 9 10 13 10 11 14 8 13 11 13 14 13 11 10 10 9 9 10 11 12
4 3 2 2 3 2 3 3 2 1 0 0 0 0 0 -0 -0 1 2 1 3 6 6 6 7 4 2 3 3 8 7 6 5 4 7 9 11 8 12 11 11 9 8 10 12 12 12 11 10 9 9 11 11 11
4 3 2 2 2 2 2 1 1 1 1 0 0 0 0 0 -0 0 3 1 2 5 10 9 4 6 3 3 3 3 3 3 3 4 7 9 10 7 10 9 10 8 8 10 12 12 12 11 10 11 11 11 12 11
4 4 4 3 2 2 2 1 1 1 1 1 0 0 1 0 0 1 1 1 2 6 10 10 6 5 5 4 4 3 3 4 5 7 7 10 7 8 8 8 10 7 9 11 12 10 11 12 11 11 12 13 12 12
5 5 5 5 4 4 4 2 2 2 1 1 2 1 0 1 0 2 6 2 1 4 9 12 7 7 5 4 4 3 3 4 4 6 7 6 5 7 11 11 9 8 8 7 9 9 10 11 11 11 12 12 11 11
4 4 5 4 4 4 4 3 3 3 3 2 2 2 2 2 3 6 7 4 4 2 7 11 11 7 5 5 4 4 3 4 4 5 7 7 7 6 9 11 9 9 9 8 8 10 12 12 13 11 11 11 10 11
4 5 5 5 5 4 4 4 4 4 3 3 3 3 3 3 3 5 4 3 4 5 7 10 11 9 5 7 7 4 6 5 5 5 5 7 7 7 10 8 9 9 8 9 9 8 10 10 11 11 10 10 11 12
4 5 5 5 5 5 5 5 4 4 3 3 3 3 3 5 7 6 5 5 -0 4 8 9 11 12 5 6 5 5 5 7 5 7 7 6 8 11 9 8 8 8 9 9 9 9 10 11 12 11 11 11 12 12
4 4 5 5 4 4 4 4 4 4 4 3 4 6 10 6 5 4 4 5 5 5 5 8 6 9 5 6 7 7 6 8 10 7 5 8 9 6 6 5 6 7 7 8 10 11 11 12 12 11 11 10 11 12
3 3 4 4 4 4 3 3 3 3 3 4 6 7 5 4 3 5 8 8 7 9 6 6 6 8 4 8 8 6 8 7 11 9 9 10 10 8 5 5 5 6 6 7 8 8 9 10 11 10 10 10 11 12
3 3 3 3 4 4 4 4 2 2 3 4 4 3 3 5 6 9 10 8 8 11 7 8 7 6 5 4 7 6 9 8 12 7 10 11 9 6 5 6 6 6 6 7 7 8 9 9 9 10 10 11 12 14
3 4 4 4 4 4 4 3 3 3 3 2 5 7 7 8 11 11 14 11 11 8 7 6 8 6 5 5 7 8 11 11 7 11 11 10 7 6 6 7 7 7 7 7 8 8 9 10 9 10 13 14 15 16
3 4 4 4 4 4 4 3 3 2 3 6 8 12 10 12 12 11 10 9 7 6 7 6 7 7 6 8 8 11 9 8 12 13 12 9 7 7 7 7 8 9 9 8 9 9 10 11 13 14 14 15 16 18
4 4 4 4 4 4 3 3 3 1 4 8 8 12 12 10 10 9 7 7 6 5 6 7 7 6 8 10 8 10 12 13 11 12 10 8 7 8 8 8 9 10 10 10 10 12 13 14 14 15 15 15 16 17
3 3 5 4 4 4 3 2 2 3 4 8 8 10 9 9 10 9 8 8 4 5 5 6 8 10 11 9 11 12 11 12 11 9 8 8 8 8 8 9 9 9 10 10 11 12 13 14 15 15 15 16 17 17
4 6 5 4 4 3 3 3 4 6 8 9 9 9 9 9 10 9 7 6 3 6 9 7 11 12 8 11 11 9 11 9 9 9 9 8 8 8 9 9 10 10 10 11 12 13 14 14 15 16 17 17 16 16
5 5 5 4 3 3 3 3 5 7 10 8 9 9 8 8 8 8 6 4 5 6 7 9 6 10 11 12 11 9 9 9 8 9 9 8 8 8 8 9 9 9 10 11 12 13 14 16 15 16 16 16 16 16
5 4 4 4 4 5 7 6 5 10 9 8 7 6 7 7 6 5 4 4 4 4 5 6 9 10 10 8 9 9 8 8 9 9 10 9 8 9 9 9 10 10 11 11 12 13 14 14 13 14 14 14 15 14
3 4 4 3 3 6 8 8 5 8 10 8 7 8 8 8 6 7 5 5 5 5 7 8 9 8 8 7 6 6 7 7 8 9 10 10 9 9 10 10 10 11 12 12 12 12 13 12 12 13 13 13 14 14
3 4 3 3 4 5 7 8 9 8 8 9 8 8 9 7 7 7 6 5 6 7 8 7 7 6 5 5 4 4 5 5 6 6 7 9 9 8 9 9 10 10 11 12 12 12 12 12 12 12 12 11 11 11
4 4 4 5 7 7 8 6 8 7 8 9 9 9 9 9 9 8 6 7 7 7 6 5 5 5 6 6 5 5 5 6 6 6 6 7 8 9 9 9 9 10 10 10 11 11 11 11 11 11 11 10 10 11
3 3 5 6 9 9 10 6 9 9 10 10 9 11 11 10 9 7 9 7 6 5 5 5 5 5 6 6 6 6 5 5 6 6 6 7 7 7 8 8 8 9 10 10 9 10 10 10 10 10 10 10 12 12
4 7 9 9 9 12 8 10 8 9 9 10 10 12 11 10 8 9 9 7 6 5 6 6 5 6 6 6 6 6 6 5 7 7 6 7 9 8 8 9 8 8 8 9 9 9 9 10 10 10 11 12 12 13
9 11 9 12 9 10 11 11 10 10 12 11 11 10 10 9 10 9 9 8 7 8 9 7 6 6 7 7 7 7 7 6 7 8 7 7 8 9 9 9 8 8 7 8 9 9 10 10 10 11 11 12 13 13
12 10 10 10 11 11 11 12 12 11 10 11 10 9 8 9 11 11 8 8 8 8 8 8 7 7 7 7 7 7 7 6 6 8 8 7 8 9 10 11 10 9 7 7 8 9 10 10 11 11 11 12 13 14
12 11 9 7 8 9 10 9 9 10 11 11 10 10 10 12 11 8 7 7 8 8 8 8 7 7 7 8 7 7 7 7 7 8 8 8 8 8 8 9 10 9 8 7 8 8 10 10 11 11 12 13 14 15
9 8 11 9 9 8 10 9 10 10 9 7 8 11 11 10 9 8 8 7 7 7 7 7 7 7 7 8 8 8 9 9 8 9 9 9 9 9 8 8 8 8 8 8 8 9 9 10 12 13 14 15 15 15
9 8 8 11 10 9 9 9 8 7 6 6 8 8 8 6 7 7 7 7 7 7 8 8 8 8 8 8 8 8 8 8 10 11 11 13 12 12 9 9 9 8 8 9 9 9 10 12 13 14 15 16 16 16
9 7 9 10 11 10 8 8 7 7 6 7 6 6 7 7 8 7 7 7 8 8 8 7 7 8 9 9 10 9 8 7 7 8 9 11 12 10 10 10 10 11 12 14 15 15 15 16 17 17 18 18 19 19
8 9 10 9 9 8 8 8 8 8 8 8 7 8 7 8 10 10 11 10 10 9 9 9 9 8 8 9 9 10 10 8 8 8 9 10 10 10 10 11 12 13 14 14 15 16 17 17 18 19 19 20 21 22
9 9 9 11 9 9 8 9 9 9 8 9 9 8 9 10 10 12 12 11 10 10 10 9 9 9 8 8 8 8 8 9 9 9 10 10 11 11 11 12 12 12 13 14 15 16 17 17 18 20 21 21 22 23
9 9 9 10 10 11 10 10 10 11 10 11 10 10 10 11 12 13 11 11 12 12 11 11 10 10 9 9 10 10 10 10 10 10 11 11 12 12 12 12 12 13 14 15 16 17 18 19 20 21 22 23 24 25

GFSWCAN_con_lsi_123.txt.gz
Lid_Strength_Index
3 2 2 2 2 3 3 2 2 2 1 -0 -0 -0 -0 -0 -1 0 3 0 3 7 7 5 5 7 7 8 11 10 10 10 10 13 13 14 14 13 13 12 13 14 15 15 14 16 18 10 10 13 13 11 11 11
1 1 1 1 2 1 2 3 2 2 1 0 0 -0 -0 -0 -0 -0 4 1 0 6 6 4 5 5 4 6 8 7 9 9 10 12 12 12 13 12 13 16 9 14 12 14 13 15 12 11 12 10 10 12 13 14
1 2 1 2 2 2 2 3 2 2 2 0 0 -0 -0 -0 -0 0 3 2 3 6 7 7 7 4 2 4 3 9 8 7 8 7 10 10 13 10 14 13 12 11 9 13 14 14 12 11 10 10 10 12 13 13
1 3 3 3 2 2 3 2 2 2 1 0 0 -0 -0 -0 -0 -0 3 1 3 6 9 8 4 5 3 3 4 4 6 5 6 7 10 11 12 8 13 11 12 12 11 12 13 12 12 11 11 11 12 12 13 13
2 2 2 2 2 2 2 2 1 1 0 0 -0 -0 -0 -0 -0 1 2 1 2 5 9 8 6 4 4 4 4 4 5 7 8 10 10 12 9 10 12 11 13 11 13 14 16 12 12 13 11 11 12 13 13 14
3 2 1 1 1 1 1 1 0 0 0 0 -0 -0 -0 -0 -0 1 6 2 1 4 9 12 6 6 5 5 5 6 6 7 7 9 9 8 6 9 13 14 11 9 9 10 12 10 11 11 12 11 12 12 12 13
4 2 2 1 1 1 1 1 1 1 1 0 -0 -0 -0 -0 1 4 6 3 1 4 8 11 11 7 5 5 6 7 6 7 6 7 9 9 8 8 10 15 12 9 10 9 10 10 12 12 13 12 11 11 11 12
4 3 3 3 2 1 1 1 0 0 0 0 0 -0 -0 0 1 4 3 1 2 5 6 12 11 10 6 10 10 7 9 8 8 8 8 9 9 10 15 10 11 10 9 9 10 9 11 10 11 11 11 11 13 13
4 4 4 3 3 2 2 1 1 1 0 0 1 0 2 3 5 5 3 3 3 5 11 11 13 14 7 9 9 9 8 12 8 11 10 9 12 14 12 10 10 9 9 9 9 10 10 11 11 11 11 12 13 14
5 4 4 4 4 4 3 3 3 2 2 1 2 6 10 6 4 3 4 7 7 7 7 11 10 12 8 10 11 11 9 11 13 11 8 12 14 8 8 8 8 8 7 8 10 12 11 11 11 11 12 12 13 13
4 4 4 4 4 4 3 3 3 3 2 5 8 9 6 3 4 6 10 11 10 12 10 10 10 10 7 11 12 9 12 12 14 12 12 14 14 11 8 8 7 7 6 7 8 9 10 10 11 11 11 11 12 13
4 4 4 4 4 4 3 3 3 4 5 5 5 4 4 6 9 11 13 12 12 13 11 12 10 8 8 7 10 10 12 12 15 10 14 16 10 8 8 7 7 6 7 7 7 9 9 10 10 10 11 12 13 15
4 4 4 4 4 4 3 3 3 3 3 4 6 9 10 11 16 16 18 14 15 12 11 10 11 9 8 8 11 11 15 16 10 17 16 12 9 7 7 7 7 7 8 8 9 9 9 9 10 12 15 15 16 17
4 4 4 4 4 3 3 3 2 3 4 9 11 16 14 14 14 12 12 12 11 10 9 9 11 11 11 12 13 16 12 12 18 19 14 10 9 9 9 9 9 10 10 10 11 10 11 13 14 14 15 15 16 17
3 4 4 4 3 3 2 2 2 3 6 10 10 15 14 11 11 10 9 9 8 9 9 10 10 10 12 14 12 13 15 18 16 15 11 10 9 10 9 10 11 12 11 11 12 13 14 14 15 16 15 16 16 17
4 4 5 4 3 3 2 2 3 4 7 9 10 13 11 11 10 9 9 9 7 9 9 9 12 15 14 13 14 16 14 16 12 11 10 9 9 9 9 11 11 11 11 12 13 13 14 14 15 16 16 17 17 18
4 7 4 3 3 3 2 5 7 9 10 10 11 10 10 10 10 10 9 9 7 9 13 11 14 14 12 14 14 13 14 12 10 10 10 9 9 9 9 11 12 11 12 13 14 14 15 15 16 17 18 18 17 18
7 5 3 3 4 4 6 6 9 10 11 10 11 10 10 9 10 9 9 9 8 10 10 11 10 12 16 14 16 11 11 10 10 10 10 9 8 8 9 10 11 12 12 14 14 15 16 17 17 17 17 16 17 16
5 5 4 4 4 7 10 9 8 11 10 9 9 10 10 9 9 10 9 8 6 6 8 10 11 13 12 10 10 10 10 10 11 11 10 9 9 9 9 9 11 11 13 13 14 15 15 14 15 15 16 16 17 17
4 4 4 4 4 8 10 10 7 10 11 10 9 10 10 10 11 9 9 9 9 9 9 11 10 9 9 9 8 9 9 9 11 12 12 11 10 9 10 10 11 11 12 12 12 13 14 14 14 15 15 15 16 17
4 5 4 5 7 7 9 10 10 10 10 11 10 9 10 9 11 10 10 8 9 10 11 10 9 9 9 8 7 7 8 8 9 9 10 11 10 10 10 10 11 12 13 13 14 14 14 13 14 14 15 15 15 15
6 4 6 6 9 9 10 9 10 9 10 10 10 10 11 11 11 12 10 10 9 9 8 9 9 10 9 9 9 8 9 9 9 10 10 10 10 10 10 10 11 12 13 13 13 14 14 14 14 14 15 14 13 13
5 5 8 8 12 13 14 9 11 10 13 12 10 11 12 12 11 9 11 9 9 8 9 9 8 8 9 9 9 9 8 8 8 9 9 9 9 9 9 10 10 10 12 12 12 13 14 13 14 14 13 13 13 14
5 9 13 13 12 14 11 13 10 11 11 12 13 13 12 11 11 11 10 9 9 9 10 9 8 9 9 8 8 9 9 7 9 9 8 9 9 10 9 10 10 10 9 10 11 13 13 13 14 13 13 13 14 14
14 15 14 18 12 15 16 15 15 13 16 12 14 14 12 10 14 15 12 10 10 10 10 9 8 8 9 9 9 10 9 8 8 9 9 8 9 10 10 10 10 10 8 10 12 12 12 11 11 12 13 14 14 15
18 15 15 14 15 15 13 18 17 16 15 16 14 12 12 13 16 15 11 10 10 10 10 10 9 9 9 8 9 9 11 8 8 10 9 8 9 10 11 11 12 12 10 10 10 11 11 11 11 12 13 13 13 16
18 16 11 9 10 10 14 13 11 14 17 18 15 15 16 19 18 11 10 9 10 9 9 9 8 8 9 9 9 9 10 10 9 10 10 10 10 10 10 11 11 12 12 10 9 10 11 11 11 11 12 14 15 15
12 11 16 11 11 11 16 15 16 16 14 10 12 17 17 16 13 10 10 9 9 8 9 8 8 8 9 9 9 10 10 11 13 13 13 12 12 12 12 11 11 11 11 9 9 10 10 11 12 13 14 15 15 16
12 11 9 12 11 10 13 13 13 11 10 11 14 12 11 9 9 9 9 8 8 8 9 9 9 9 9 9 9 9 10 10 14 15 18 18 14 13 11 11 11 11 9 10 10 11 12 13 14 15 16 17 18 19
12 9 13 15 17 15 10 9 9 9 9 9 10 10 10 10 10 9 9 9 9 9 8 8 9 9 10 10 11 10 9 9 9 10 13 18 17 12 12 14 14 14 14 14 14 15 14 16 16 18 19 20 21 22
9 9 11 13 14 10 9 9 9 9 9 9 8 9 9 11 12 12 13 12 11 10 10 10 9 9 9 9 10 11 12 11 12 12 12 12 13 13 14 15 15 15 15 15 16 17 18 18 19 20 21 23 24 24
10 10 10 12 10 9 9 10 10 10 9 10 10 9 10 10 12 16 15 14 13 12 11 12 11 10 11 11 10 11 11 11 11 11 11 12 13 13 14 14 14 15 15 16 17 17 18 19 21 22 23 24 25 26
10 10 11 12 11 11 11 14 11 11 11 13 12 12 12 13 17 16 15 16 15 15 15 14 12 12 13 13 13 13 12 11 11 11 12 12 13 13 13 13 14 15 16 17 18 19 20 21 22 23 25 26 27 28